[[{"header":{"parameterUnit":"m.s-1","parameterCategory":1,"la1":30.6,"la2":29.2853,"lo1":-89.7004,"lo2":-87.6739,"dy":0.0162,"dx":0.0183,"nx":112,"ny":82,"refTime":"2024-08-15T06:00:00:Z","depth":0,"parameterNumber":2,"parameterNumberName":"U-component_of_WINDS"},"data":[0.0,0.0,0.0,0.0,0.0,0.0,0.0,0.0,0.0,0.0,0.0,0.0,0.0,0.0,0.0,0.0,0.0,0.0,0.0,0.0,0.0,0.0,0.0,0.0,0.0,0.0,0.0,0.0,0.0,0.0,0.0,0.0,0.0,0.0,0.0,0.0,0.0,0.0,0.0,0.0,0.0,0.0,0.0,0.0,0.0,0.0,0.0,0.0,0.0,0.0,0.0,0.0,0.0,0.0,0.0,0.0,0.0,0.0,0.0,0.0,0.0,0.0,0.0,0.0,0.0,0.0,0.0,0.0,0.0,0.0,0.0,0.0,0.0,0.0,0.0,0.0,0.0,0.0,0.0,0.0,0.0,0.0,0.0,0.0,0.0,0.0,0.0,0.0,0.0,0.0,1.7869,1.8763,1.9696,2.0125,1.9832,1.957,1.8291,1.5605,0.0,0.0,0.0,0.0,0.0,0.0,0.0,0.0,0.0,0.0,0.0,0.0,0.0,0.0,0.0,0.0,0.0,0.0,0.0,0.0,0.0,0.0,0.0,0.0,0.0,0.0,0.0,0.0,0.0,0.0,0.0,0.0,0.0,0.0,0.0,0.0,0.0,0.0,0.0,0.0,0.0,0.0,0.0,0.0,0.0,0.0,0.0,0.0,0.0,0.0,0.0,0.0,0.0,0.0,0.0,0.0,0.0,0.0,0.0,0.0,0.0,0.0,0.0,0.0,0.0,0.0,0.0,0.0,0.0,0.0,0.0,0.0,0.0,0.0,0.0,0.0,0.0,0.0,0.0,0.0,0.0,0.0,0.0,0.0,0.0,0.0,0.0,0.0,0.0,0.0,0.0,0.0,0.0,0.0,0.0,0.0,0.0,0.0,0.0,0.0,0.0,0.0,0.0,0.0,1.7554,1.9811,2.0039,1.9973,1.9802,1.9663,1.8304,1.5363,0.0,0.0,0.0,0.0,0.0,0.0,0.0,0.0,0.0,0.0,0.0,0.0,0.0,0.0,0.0,0.0,0.0,0.0,0.0,0.0,0.0,0.0,0.0,0.0,0.0,0.0,0.0,0.0,0.0,0.0,0.0,0.0,0.0,0.0,0.0,0.0,0.0,0.0,0.0,0.0,0.0,0.0,0.0,0.0,0.0,0.0,0.0,0.0,0.0,0.0,0.0,0.0,0.0,0.0,0.0,0.0,0.0,0.0,0.0,0.0,0.0,0.0,0.0,0.0,0.0,0.0,0.0,0.0,0.0,0.0,0.0,0.0,0.0,0.0,0.0,0.0,0.0,0.0,0.0,0.0,0.0,0.0,0.0,0.0,0.0,0.0,0.0,0.0,0.0,0.0,0.0,0.0,0.0,0.0,0.0,0.0,0.0,0.0,0.0,0.0,0.0,0.0,0.0,1.7279,1.8398,2.0131,2.0115,1.9953,1.9802,1.9669,1.8519,1.5976,1.4042,0.0,0.0,0.0,0.0,0.0,0.0,0.0,0.0,0.0,0.0,0.0,0.0,0.0,0.0,0.0,0.0,0.0,0.0,0.0,0.0,0.0,0.0,0.0,0.0,0.0,0.0,0.0,0.0,0.0,0.0,0.0,0.0,0.0,0.0,0.0,0.0,0.0,0.0,0.0,0.0,0.0,0.0,0.0,0.0,0.0,0.0,0.0,0.0,0.0,0.0,0.0,0.0,0.0,0.0,0.0,0.0,0.0,0.0,0.0,0.0,0.0,0.0,0.0,0.0,0.0,0.0,0.0,0.0,0.0,0.0,0.0,0.0,0.0,0.0,0.0,0.0,0.0,0.0,0.0,0.0,0.0,0.0,0.0,0.0,0.0,0.0,0.0,0.0,0.0,0.0,0.0,0.0,0.0,0.0,0.0,0.0,0.0,0.0,0.0,0.0,0.0,0.0,1.8953,1.9445,2.0227,2.0088,1.9922,1.9802,1.9431,1.8357,1.6422,1.4202,0.0,0.0,0.0,0.0,0.0,0.0,0.0,0.0,0.0,0.0,0.0,0.0,0.0,0.0,0.0,0.0,0.0,0.0,0.0,0.0,0.0,0.0,0.0,0.0,0.0,0.0,0.0,0.0,0.0,0.0,0.0,0.0,0.0,0.0,0.0,0.0,0.0,0.0,0.0,0.0,0.0,0.0,0.0,0.0,0.0,0.0,0.0,0.0,0.0,0.0,0.0,0.0,0.0,0.0,0.0,0.0,0.0,0.0,0.0,0.0,0.0,0.0,0.0,0.0,0.0,0.0,0.0,0.0,0.0,0.0,0.0,0.0,0.0,0.0,0.0,0.0,0.0,0.0,0.0,0.0,0.0,0.0,0.0,0.0,0.0,0.0,0.0,0.0,0.0,0.0,0.0,0.0,0.0,0.0,0.0,0.0,0.0,0.0,0.0,0.0,0.0,0.0,1.9208,2.0227,2.0285,2.0011,1.9802,1.979,1.8652,1.7383,1.6115,1.3445,0.0,0.0,0.0,0.0,0.0,0.0,0.0,0.0,0.0,0.0,0.0,0.0,0.0,0.0,0.0,0.0,0.0,0.0,0.0,0.0,0.0,0.0,0.0,0.0,0.0,0.0,0.0,0.0,0.0,0.0,0.0,0.0,0.0,0.0,0.0,0.0,0.0,0.0,0.0,0.0,0.0,0.0,0.0,0.0,0.0,0.0,0.0,0.0,0.0,0.0,0.0,0.0,0.0,0.0,0.0,0.0,0.0,0.0,0.0,0.0,0.0,0.0,0.0,0.0,0.0,0.0,0.0,0.0,0.0,0.0,0.0,0.0,0.0,0.0,0.0,0.0,0.0,0.0,0.0,0.0,0.0,0.0,0.0,0.0,0.0,0.0,0.0,0.0,0.0,0.0,0.0,0.0,0.0,0.0,0.0,0.0,0.0,0.0,0.0,0.0,0.0,0.0,1.8754,1.9688,2.0235,2.0079,1.989,1.9821,1.9261,1.8155,1.6354,0.0,0.0,0.0,0.0,0.0,0.0,0.0,0.0,0.0,0.0,0.0,0.0,0.0,0.0,0.0,0.0,0.0,0.0,0.0,0.0,0.0,0.0,0.0,0.0,0.0,0.0,0.0,0.0,0.0,0.0,0.0,0.0,0.0,0.0,0.0,0.0,0.0,0.0,0.0,0.0,0.0,0.0,0.0,0.0,0.0,0.0,0.0,0.0,0.0,0.0,0.0,0.0,0.0,0.0,0.0,0.0,0.0,0.0,0.0,0.0,0.0,0.0,0.0,0.0,0.0,0.0,0.0,0.0,0.0,0.0,0.0,0.0,0.0,0.0,0.0,0.0,0.0,0.0,0.0,0.0,0.0,0.0,0.0,0.0,0.0,0.0,0.0,0.0,0.0,0.0,0.0,0.0,0.0,0.0,0.0,0.0,0.0,0.0,0.0,0.0,0.0,0.0,1.7407,1.8696,1.9631,2.0235,2.0115,1.9953,1.9802,1.9382,1.8327,1.6522,0.0,0.0,0.0,0.0,0.0,0.0,0.0,0.0,0.0,0.0,0.0,0.0,0.0,0.0,0.0,0.0,0.0,0.0,0.0,0.0,0.0,0.0,0.0,0.0,0.0,0.0,0.0,0.0,0.0,0.0,0.0,0.0,0.0,0.0,0.0,0.0,0.0,0.0,0.0,0.0,0.0,0.0,0.0,0.0,0.0,0.0,0.0,0.0,0.0,0.0,0.0,0.0,0.0,0.0,0.0,0.0,0.0,0.0,0.0,0.0,0.0,0.0,0.0,0.0,0.0,0.0,0.0,0.0,0.0,0.0,0.0,0.0,0.0,0.0,0.0,0.0,0.0,0.0,0.0,0.0,0.0,0.0,0.0,0.0,0.0,0.0,0.0,0.0,0.0,0.0,0.0,0.0,0.0,0.0,0.0,0.0,0.0,0.0,0.0,0.0,0.0,0.0,1.7484,1.9215,2.0312,2.0312,2.0115,1.9953,1.9802,1.8758,1.7636,0.0,0.0,0.0,0.0,0.0,0.0,0.0,0.0,0.0,0.0,0.0,0.0,0.0,0.0,0.0,0.0,0.0,0.0,0.0,0.0,0.0,0.0,0.0,0.0,0.0,0.0,0.0,0.0,0.0,0.0,0.0,0.0,0.0,0.0,0.0,0.0,0.0,0.0,0.0,0.0,0.0,0.0,0.0,0.0,0.0,0.0,0.0,0.0,0.0,0.0,0.0,0.0,0.0,0.0,0.0,0.0,0.0,0.0,0.0,0.0,0.0,0.0,0.0,0.0,0.0,0.0,0.0,0.0,0.0,0.0,0.0,0.0,0.0,0.0,0.0,0.0,0.0,0.0,0.0,0.0,0.0,0.0,0.0,0.0,0.0,0.0,0.0,0.0,0.0,0.0,0.0,0.0,0.0,0.0,0.0,0.0,0.0,0.0,0.0,0.0,0.0,0.0,0.0,1.7484,1.9215,2.0312,2.0312,2.0241,2.0143,1.9963,1.9545,1.8565,1.6867,0.0,0.0,0.0,0.0,0.0,0.0,0.0,0.0,0.0,0.0,0.0,0.0,0.0,0.0,0.0,0.0,0.0,0.0,0.0,0.0,0.0,0.0,0.0,0.0,0.0,0.0,0.0,0.0,0.0,0.0,0.0,0.0,0.0,0.0,0.0,0.0,0.0,0.0,0.0,0.0,0.0,0.0,0.0,0.0,0.0,0.0,0.0,0.0,0.0,0.0,0.0,0.0,0.0,0.0,0.0,0.0,0.0,0.0,0.0,0.0,0.0,0.0,0.0,0.0,0.0,0.0,0.0,0.0,0.0,0.0,0.0,0.0,0.0,0.0,0.0,0.0,0.0,0.0,0.0,0.0,0.0,0.0,0.0,0.0,0.0,0.0,0.0,0.0,0.0,0.0,0.0,0.0,0.0,0.0,0.0,0.0,0.0,0.0,0.0,0.0,0.0,0.0,1.7484,1.9215,2.0312,2.0312,2.0312,2.0225,2.0022,1.9933,1.9021,1.7027,0.0,0.0,0.0,0.0,0.0,0.0,0.0,0.0,0.0,0.0,0.0,0.0,0.0,0.0,0.0,0.0,0.0,0.0,0.0,0.0,0.0,0.0,0.0,0.0,0.0,0.0,0.0,0.0,0.0,0.0,0.0,0.0,0.0,0.0,0.0,0.0,0.0,0.0,0.0,0.0,0.0,0.0,0.0,0.0,0.0,0.0,0.0,0.0,0.0,0.0,0.0,0.0,0.0,0.0,0.0,0.0,0.0,0.0,0.0,0.0,0.0,0.0,0.0,0.0,0.0,0.0,0.0,0.0,0.0,0.0,0.0,0.0,0.0,0.0,0.0,0.0,0.0,0.0,0.0,0.0,0.0,0.0,0.0,0.0,0.0,0.0,0.0,0.0,0.0,0.0,0.0,0.0,0.0,0.0,0.0,0.0,0.0,0.0,0.0,0.0,0.0,0.0,1.758,1.9273,2.0331,2.0408,2.035,2.0233,2.0031,2.0012,1.916,1.7195,0.0,0.0,0.0,0.0,0.0,0.0,0.0,0.0,0.0,0.0,0.0,0.0,0.0,0.0,0.0,0.0,0.0,0.0,0.0,0.0,0.0,0.0,0.0,0.0,0.0,0.0,0.0,0.0,0.0,0.0,0.0,0.0,0.0,0.0,0.0,0.0,0.0,0.0,0.0,0.0,0.0,0.0,0.0,0.0,0.0,0.0,0.0,0.0,0.0,0.0,0.0,0.0,0.0,0.0,0.0,0.0,0.0,0.0,0.0,0.0,1.6789,1.6396,0.0,0.0,0.0,0.0,0.0,0.0,0.0,0.0,0.0,0.0,0.0,0.0,0.0,0.0,0.0,0.0,0.0,0.0,0.0,0.0,0.0,0.0,0.0,0.0,0.0,0.0,0.0,0.0,0.0,0.0,0.0,0.0,0.0,0.0,0.0,0.0,0.0,0.0,0.0,0.0,1.8414,1.9658,2.0542,2.1177,2.0677,2.0277,2.0241,2.0078,1.9545,1.8469,1.6592,0.0,0.0,0.0,0.0,0.0,0.0,0.0,0.0,0.0,0.0,0.0,0.0,0.0,0.0,0.0,0.0,0.0,0.0,0.0,0.0,0.0,0.0,0.0,0.0,0.0,0.0,0.0,0.0,0.0,0.0,0.0,0.0,0.0,0.0,0.0,0.0,0.0,0.0,0.0,0.0,0.0,0.0,0.0,0.0,0.0,0.0,0.0,0.0,0.0,0.0,0.0,0.0,0.0,0.0,0.0,0.0,0.0,0.0,0.0,2.1304,2.0129,0.0,0.0,0.0,0.0,0.0,0.0,0.0,0.0,0.0,0.0,0.0,0.0,0.0,0.0,0.0,0.0,0.0,0.0,0.0,0.0,0.0,0.0,0.0,0.0,0.0,0.0,0.0,0.0,0.0,0.0,0.0,0.0,0.0,0.0,0.0,0.0,0.0,0.0,0.0,0.0,1.8722,2.01,2.1043,2.1466,2.1139,2.0716,2.0331,2.0205,1.9752,1.8856,1.7405,0.0,0.0,0.0,0.0,0.0,0.0,0.0,0.0,0.0,0.0,0.0,0.0,0.0,0.0,0.0,0.0,0.0,0.0,0.0,0.0,0.0,0.0,0.0,0.0,0.0,0.0,0.0,0.0,0.0,0.0,0.0,0.0,0.0,0.0,0.0,0.0,0.0,0.0,0.0,0.0,0.0,0.0,0.0,0.0,0.0,0.0,0.0,0.0,0.0,0.0,0.0,0.0,0.0,2.1458,2.1569,2.4198,2.4207,2.4233,2.43,2.4279,2.2701,2.0138,2.0156,0.0,0.0,0.0,0.0,0.0,0.0,0.0,0.0,0.0,0.0,0.0,0.0,0.0,0.0,0.0,0.0,0.0,0.0,0.0,0.0,0.0,0.0,1.8887,1.8906,1.941,1.9309,1.7127,0.0,0.0,0.0,0.0,0.0,0.0,0.0,0.0,0.0,0.0,0.0,1.9223,2.0773,2.1773,2.1947,2.1812,2.1408,2.0581,2.0504,2.0107,1.9111,1.8156,1.6884,0.0,0.0,0.0,0.0,0.0,0.0,0.0,0.0,0.0,0.0,0.0,0.0,0.0,0.0,0.0,0.0,0.0,0.0,0.0,0.0,0.0,0.0,0.0,0.0,0.0,0.0,0.0,0.0,0.0,0.0,0.0,0.0,1.2861,1.4187,0.0,0.0,0.0,0.0,0.0,0.0,0.0,0.0,0.0,0.0,0.0,0.0,0.0,1.8584,1.8356,2.1389,2.3351,2.419,2.3749,2.3769,2.421,2.4211,2.4374,2.472,2.4596,0.0,2.3438,2.2085,0.0,0.0,0.0,0.0,0.0,0.0,0.0,0.0,0.0,0.0,0.0,0.0,0.0,0.0,0.0,0.0,0.0,0.0,0.0,0.0,0.0,0.0,2.2441,2.25,2.2598,2.2558,2.2165,1.9099,1.6374,1.6194,1.5587,1.5061,0.0,0.0,0.0,0.0,0.0,0.0,2.0946,2.2023,2.2908,2.3687,2.309,2.2274,2.1427,2.135,2.0996,2.0161,1.905,1.8329,1.8063,1.6335,0.0,0.0,0.0,0.0,0.0,0.0,0.0,0.0,0.0,0.0,0.0,0.0,0.0,0.0,0.0,0.0,0.0,0.0,0.0,0.0,0.0,0.0,0.0,0.0,0.0,0.0,0.0,0.0,0.0,1.3112,1.4364,1.5367,1.5176,1.502,0.0,0.0,0.0,0.0,0.0,0.0,0.0,0.0,0.0,2.0158,1.9606,2.0187,2.2042,2.3492,2.421,2.421,2.4192,2.419,2.421,2.4358,2.4519,2.469,2.4714,2.4654,2.4451,2.3247,2.2567,2.2219,0.0,0.0,0.0,0.0,2.1705,2.1773,2.2274,2.2235,2.1861,2.1312,0.0,0.0,0.0,0.0,0.0,0.0,0.0,2.0859,2.123,2.2246,2.3164,2.3184,2.3164,2.3144,2.3105,2.1609,2.0094,1.9532,1.9111,1.8535,1.7568,1.7773,0.0,0.0,0.0,2.085,2.2062,2.2985,2.3687,2.4052,2.3764,2.3186,2.2293,2.2235,2.2081,2.1735,2.064,1.9805,1.9363,1.7863,1.6392,0.0,0.0,0.0,0.0,0.0,0.0,0.0,0.0,0.0,0.0,0.0,0.0,0.0,0.0,0.0,0.0,0.0,0.0,0.0,0.0,0.0,0.0,0.0,0.0,0.0,0.0,0.0,0.0,1.4965,1.6063,1.6775,1.7228,1.7219,0.0,0.0,0.0,0.0,0.0,0.0,2.0118,2.0144,2.064,2.1715,2.0971,2.1733,2.4171,2.419,2.419,2.419,2.419,2.419,2.4227,2.4413,2.4552,2.4666,2.4749,2.4832,2.4799,2.4106,2.3474,2.2897,2.2384,2.2668,2.3285,2.2679,2.2889,2.3524,2.4178,2.4302,2.4091,2.3601,2.3321,2.2956,2.1681,0.0,0.0,0.0,0.0,2.25,2.2793,2.3359,2.3848,2.3848,2.3809,2.3769,2.3769,2.3769,2.3436,2.2274,2.2006,2.156,2.0281,2.0542,0.0,2.0069,2.1216,2.2389,2.3052,2.3879,2.4409,2.4409,2.4409,2.4062,2.3206,2.3129,2.3043,2.2812,2.1915,2.1147,2.0543,1.9355,1.7998,1.6502,0.0,0.0,0.0,0.0,0.0,0.0,0.0,0.0,0.0,0.0,0.0,0.0,0.0,0.0,0.0,0.0,0.0,0.0,0.0,0.0,0.0,0.0,0.0,0.0,0.0,0.0,0.0,0.0,0.0,1.9121,1.8973,0.0,0.0,0.0,0.0,1.9884,2.0029,2.0753,2.2337,2.2429,2.2942,2.4006,2.3969,2.4024,2.419,2.419,2.419,2.419,2.419,2.419,2.419,2.4209,2.4428,2.479,2.4804,2.4864,2.4986,2.4818,2.471,2.4686,2.4765,2.4839,2.4901,2.5051,2.513,2.5168,2.5226,2.4736,2.4225,2.4947,2.4659,2.4024,2.3928,2.3419,0.0,0.0,2.4004,2.4141,2.5234,2.5547,2.5566,2.5566,2.5566,2.5566,2.5566,2.5566,2.5078,2.3359,2.2974,2.2868,2.2725,0.0,2.2658,2.262,2.3398,2.3995,2.4033,2.4736,2.5245,2.5245,2.5245,2.4909,2.411,2.4033,2.3687,2.2851,2.2445,2.2224,2.2186,2.1016,1.9971,1.9124,1.683,0.0,0.0,0.0,0.0,0.0,0.0,0.0,0.0,0.0,0.0,0.0,0.0,0.0,0.0,0.0,0.0,0.0,0.0,0.0,0.0,0.0,0.0,0.0,0.0,0.0,0.0,0.0,0.0,2.0004,2.0243,0.0,2.0118,2.0673,2.1274,2.1864,2.2735,2.3354,2.362,2.3643,2.3793,2.4187,2.4194,2.4205,2.419,2.419,2.419,2.419,2.419,2.419,2.419,2.4321,2.4545,2.4804,2.4891,2.503,2.5192,2.5149,2.5049,2.4924,2.4986,2.5088,2.5203,2.5274,2.5303,2.5303,2.5303,2.512,2.4928,2.5207,2.512,2.487,2.487,2.4726,2.4615,2.4962,2.5048,2.5137,2.5586,2.5703,2.5703,2.5703,2.5703,2.5703,2.5703,2.5703,2.5527,2.4883,2.4679,2.4444,2.3879,2.414,2.4235,2.3706,2.4332,2.487,2.487,2.512,2.5303,2.5303,2.5303,2.5168,2.4909,2.487,2.4736,2.4428,2.3579,2.2841,2.2325,2.1142,2.0134,1.9323,1.795,1.6578,0.0,0.0,0.0,0.0,0.0,0.0,0.0,0.0,0.0,0.0,0.0,0.0,0.0,0.0,0.0,0.0,0.0,0.0,0.0,0.0,0.0,0.0,0.0,0.0,0.0,1.9659,2.0761,2.1115,2.1617,2.1854,2.1585,2.2477,2.3189,2.3412,2.4309,2.4655,2.4216,2.4187,2.4705,2.58,2.4754,2.4196,2.4202,2.4202,2.4202,2.4202,2.4737,2.5016,2.4997,2.5153,2.5314,2.5493,2.5399,2.5609,2.5998,2.5513,2.5397,2.5501,2.5214,2.5173,2.5303,2.5303,2.5303,2.5303,2.5303,2.5303,2.5303,2.5303,2.5303,2.5303,2.5303,2.537,2.5438,2.5498,2.5558,2.5644,2.5684,2.5703,2.5703,2.5703,2.5703,2.5703,2.5703,2.5703,2.5703,2.5703,2.5598,2.5329,2.4793,2.5043,2.512,2.4582,2.4966,2.5303,2.5303,2.5303,2.5303,2.5303,2.5303,2.5303,2.5303,2.5303,2.5303,2.5303,2.4169,2.3251,2.2735,2.1306,2.0246,1.9711,1.8647,1.7422,1.6026,0.0,0.0,0.0,0.0,0.0,0.0,0.0,0.0,0.0,0.0,0.0,0.0,0.0,0.0,0.0,0.0,0.0,0.0,0.0,0.0,0.0,0.0,0.0,2.0627,2.1002,2.1676,2.2643,2.3164,2.3165,2.2454,2.3268,2.4036,2.4522,2.4551,2.4475,2.4289,2.4302,2.5773,2.8907,2.5996,2.4345,2.4345,2.4345,2.4345,2.4363,2.5923,2.6667,2.6667,2.6631,2.672,2.6898,2.6303,2.6616,2.7401,2.597,2.589,2.6544,2.5649,2.5303,2.5303,2.5303,2.5303,2.5303,2.5303,2.5303,2.5303,2.5303,2.5303,2.5303,2.5303,2.539,2.5486,2.5486,2.559,2.5683,2.5703,2.5703,2.5703,2.5703,2.5703,2.5703,2.5703,2.5703,2.5703,2.5703,2.5598,2.551,2.5495,2.539,2.5303,2.5303,2.5303,0.0,2.5303,2.5303,2.5303,2.5303,2.5303,2.5303,2.5303,2.5303,2.5284,2.5264,2.4162,2.3496,2.3458,2.1584,2.0537,2.0503,1.8977,1.7709,1.6755,0.0,0.0,0.0,0.0,0.0,0.0,0.0,0.0,0.0,0.0,0.0,0.0,0.0,0.0,0.0,0.0,0.0,0.0,0.0,0.0,0.0,2.1245,2.1949,2.1837,2.2852,2.3706,2.3964,2.4126,2.4242,2.437,2.4654,2.5156,2.6043,2.6094,2.6073,2.6007,2.7074,2.8103,2.8959,2.815,2.7687,2.7675,2.7696,2.7696,2.7696,2.8125,2.835,2.8313,2.7135,2.6969,2.761,2.745,2.7528,2.7758,2.7349,2.7332,2.739,2.589,2.5303,2.5303,2.5303,2.5303,2.5303,2.5303,2.5303,2.5303,2.5303,2.5303,2.5303,2.5303,2.5322,2.5341,2.5341,2.5385,2.5459,2.5658,2.5703,2.5703,2.5703,2.5703,2.5703,2.5703,2.5703,2.5703,2.5703,2.5623,2.5564,2.5502,2.5428,2.537,2.5303,2.5303,2.5303,2.5303,2.5303,2.5303,2.5303,2.5303,2.5303,2.5303,2.5303,2.5063,2.4466,2.3976,2.3392,2.2671,2.1954,2.1237,2.0503,2.0063,1.9081,0.0,0.0,0.0,0.0,0.0,0.0,0.0,0.0,0.0,0.0,0.0,0.0,0.0,0.0,0.0,0.0,0.0,0.0,0.0,0.0,0.0,0.0,2.2801,2.3697,2.3697,2.4137,2.456,2.4765,2.4799,2.5086,2.5746,2.6404,2.7284,2.8476,2.8015,2.7369,2.6736,2.7561,2.8326,2.8981,2.8998,2.8989,2.8997,2.9005,2.9008,2.9008,2.9008,2.9008,2.8972,2.8033,2.7874,2.8368,2.8563,2.8688,2.8708,2.8368,2.8305,2.8198,0.0,0.0,0.0,0.0,2.5293,2.5293,2.5303,2.5303,2.5303,2.5293,2.5293,2.5312,2.5302,2.5292,2.5292,2.5302,2.5378,2.549,2.5649,2.5705,2.5703,2.5703,2.5703,2.5703,2.5703,2.5703,2.5703,2.5703,2.5664,0.0,2.5561,2.5484,2.5428,2.539,2.539,2.537,2.5341,2.5341,2.5322,2.5303,2.5303,2.5303,2.5303,2.5303,0.0,0.0,0.0,2.3315,2.2224,2.2058,0.0,0.0,0.0,0.0,0.0,0.0,0.0,0.0,1.8778,1.7932,0.0,0.0,0.0,0.0,0.0,0.0,0.0,0.0,0.0,0.0,0.0,0.0,0.0,0.0,0.0,0.0,2.4323,2.5642,2.571,2.5169,2.4901,2.5309,2.5361,2.5781,2.686,2.8219,2.9608,3.108,2.9982,2.8646,2.7264,2.7376,0.0,0.0,0.0,2.9387,2.8998,2.9002,2.9012,2.9012,2.8994,2.8994,2.8994,2.8994,2.9008,2.9041,2.9548,2.9842,2.9889,2.919,2.9017,2.9006,2.6617,2.577,2.5866,2.5878,2.5763,2.5629,2.5803,0.0,0.0,2.5533,2.5725,2.5802,2.5414,2.5568,2.5866,2.5877,2.579,2.5701,2.5696,2.5702,2.5703,2.5703,2.5703,2.5703,2.5703,2.5703,2.5703,2.5703,2.5703,2.5684,2.5625,2.5566,2.5502,2.5495,2.5505,2.5485,2.5408,2.5409,2.539,2.5322,2.5303,0.0,2.5303,2.5303,2.5264,2.5168,2.4298,2.3322,2.2248,2.2245,2.2179,2.1966,2.2041,2.2373,2.2997,2.3107,2.3341,2.3638,2.072,1.9311,0.0,0.0,0.0,0.0,0.0,0.0,0.0,0.0,0.0,0.0,0.0,0.0,0.0,0.0,0.0,2.4661,2.5321,2.5812,2.6404,2.6354,2.632,2.6404,2.6404,2.696,2.8406,2.883,2.9617,3.1074,3.0952,3.064,3.035,3.1653,3.2556,3.2859,3.2883,3.1636,2.9028,2.8998,2.9009,2.9009,2.9007,0.0,2.8994,2.8994,2.8984,2.9044,2.9902,3.0281,3.0285,3.0148,3.0102,3.0006,2.8582,2.8604,2.9415,2.9407,2.8557,2.7582,2.8934,2.7612,2.5521,2.6946,2.8315,2.8914,2.6145,2.7234,0.0,2.9407,2.7621,2.5702,2.5698,2.5699,2.5703,2.5703,2.5703,2.5703,2.5703,2.5703,2.5703,2.5703,2.5703,2.5703,2.5684,2.562,2.5554,2.5507,2.551,2.551,2.549,2.5429,2.5409,2.539,2.5322,2.5303,2.5303,2.5303,2.5024,2.4379,2.4,2.3698,2.3467,2.3825,2.3712,2.3012,2.3492,2.3492,2.2997,2.3657,2.387,2.3674,2.2797,2.2046,0.0,0.0,0.0,0.0,0.0,0.0,0.0,0.0,0.0,0.0,0.0,2.16,2.3122,0.0,2.4864,2.5981,2.6556,2.7028,2.7382,2.7021,2.6716,2.6689,2.738,2.8433,2.9932,3.0114,3.0418,3.1131,3.1213,3.1216,3.1194,3.2039,3.2509,3.2481,3.3358,3.302,3.1419,3.1391,3.0589,2.9004,2.8998,2.9004,2.9004,2.9004,2.9001,2.9045,2.9982,3.0408,3.04,3.0393,3.0398,3.0352,2.9756,2.9894,3.0406,3.0409,2.9877,2.927,3.0111,2.928,2.7986,2.8874,2.9723,3.007,2.8368,2.9063,3.0406,3.0406,2.9395,2.8305,2.8297,2.7012,2.5703,2.5703,2.5703,2.5703,2.5703,2.5703,2.5703,2.5703,2.5703,2.5703,2.5703,2.5664,2.5643,2.5605,2.5601,2.5581,2.5542,2.5493,2.5445,2.5399,2.5341,2.5303,2.5303,2.5303,2.5139,2.4736,2.4619,2.4506,2.4388,2.4623,2.4534,2.4054,2.4239,2.4154,2.3747,2.4044,2.4113,2.3955,2.3802,2.3153,0.0,0.0,0.0,0.0,0.0,0.0,0.0,2.1066,2.1481,2.3596,2.4036,2.4272,2.5,2.6099,2.6962,2.7114,2.7735,2.8236,2.8339,2.7394,2.6919,2.7511,2.8668,2.9904,3.1067,3.1175,3.1181,3.1181,3.1201,3.121,3.1188,3.1202,3.1298,3.1457,3.2972,3.3798,3.3802,3.3813,3.2495,2.994,2.9929,2.9929,2.9929,2.9929,2.9921,2.9981,3.096,3.1206,3.0849,3.0529,3.0533,3.0763,3.1218,3.1256,3.1006,3.0548,3.0406,3.0406,3.0409,3.0389,3.0409,3.0386,3.0406,3.0406,3.039,3.0398,3.0398,3.0398,3.0645,3.0891,3.0895,2.8828,2.6621,2.6289,2.6211,2.6211,2.6211,2.6211,2.6211,2.6211,2.6211,2.6152,2.5977,2.5957,2.5898,2.5723,2.5703,2.5684,2.5625,2.5558,2.5492,2.5447,2.539,2.5322,2.5322,2.5303,2.5303,2.5303,2.5303,2.5224,2.5057,2.5022,2.4949,2.4842,2.4623,2.4495,2.4495,2.4303,2.4281,2.4447,2.4418,2.3727,1.9374,1.9792,2.0619,2.1953,2.1652,2.1904,0.0,2.4932,2.4425,2.5998,2.6319,2.6556,2.73,2.7553,2.7926,2.8619,2.8426,2.8373,2.882,2.762,2.7694,3.0374,3.0861,3.1035,3.1192,3.121,3.1196,3.1196,3.1173,3.1213,3.1201,3.1206,3.1556,3.234,3.328,3.3797,3.3788,3.3802,3.3626,3.3261,3.3271,3.3266,3.3266,3.3266,3.3263,3.3331,3.4431,3.4044,3.25,3.1002,3.0996,3.2109,3.4141,3.4308,3.3166,3.1141,3.041,3.041,3.039,3.039,3.039,3.041,3.041,3.041,3.041,3.0398,3.0398,3.0398,3.0645,3.0891,3.0895,3.0605,2.9922,2.8379,2.8008,2.8008,2.8008,2.8008,2.8008,2.8008,2.8008,2.7754,2.6992,2.6855,2.6582,2.582,2.5703,2.5703,2.5684,2.5624,2.5601,2.5582,2.5524,2.5447,2.539,2.5322,2.5303,2.5303,2.5303,2.5284,2.5264,2.5099,2.4998,2.4986,2.4648,2.4495,2.4495,2.4303,2.4557,2.5254,2.4892,2.451,2.0905,2.1724,2.2667,2.3654,2.3918,2.448,2.6826,2.6604,2.6314,2.772,2.8027,2.8129,2.8433,2.8856,2.9262,2.9583,2.9816,3.0036,3.0243,2.9748,2.9794,3.1048,3.1206,3.1206,3.1206,3.1196,3.119,3.119,3.119,3.119,3.119,3.1205,3.1377,3.1734,3.3068,3.3785,3.3807,3.3797,3.3805,3.3805,3.3802,3.381,3.381,3.381,3.4165,3.4804,3.5286,3.5085,3.4353,3.3667,3.3647,3.4103,3.4392,3.4218,3.3686,3.273,3.1852,3.116,3.116,3.0833,3.0398,3.0398,3.0398,3.0398,3.0398,3.0398,3.0398,3.0398,3.0645,3.0891,3.0895,3.0898,3.0723,2.998,2.9805,2.9531,2.8516,2.8301,2.8301,2.8301,2.8301,2.8184,2.7812,2.7754,2.7637,2.7266,2.6777,2.6465,2.6465,2.6403,2.6155,2.5596,2.5531,2.5499,2.5457,2.5409,2.537,2.537,2.5322,2.5303,2.5303,2.5214,2.5173,2.5173,2.4911,2.4982,2.5367,2.5169,2.5429,2.6117,2.5979,2.5833,2.1904,2.2923,2.397,2.4971,2.5648,2.6508,2.807,2.8089,2.8139,2.934,2.96,2.96,2.96,3.004,3.0412,3.0412,3.0852,3.119,3.119,3.119,3.119,3.119,3.119,3.119,3.119,3.119,3.1275,3.1478,3.1303,3.1297,3.1607,3.1339,3.1184,3.1185,3.2429,3.3288,3.3806,3.3799,3.3799,3.3799,3.3808,3.3789,3.3789,3.3807,3.4401,3.5473,3.5381,3.5405,3.5502,3.5502,3.5502,3.5425,3.4591,3.427,3.427,3.427,3.3327,3.2025,3.2025,3.1621,3.1013,3.0552,3.0398,3.0398,3.0398,3.0398,3.0398,3.0398,3.0579,3.0782,3.0873,3.0898,3.0898,3.0898,3.0898,3.0547,2.9297,2.9023,2.9023,2.9023,2.9023,2.8945,2.8691,2.8652,2.8652,2.8652,2.8125,2.7637,2.7383,2.7109,2.6579,2.5642,2.5535,2.5522,2.5524,2.5464,2.5425,2.539,2.5572,2.5687,2.5649,2.589,2.6024,2.6024,2.5807,2.5918,2.6324,2.6129,2.6338,2.6921,2.6871,2.6961,2.1719,2.2513,2.3811,2.5759,2.6545,2.7415,2.9572,3.0002,3.0205,3.097,3.1123,3.1123,3.1123,3.114,3.1157,3.1157,3.119,3.119,3.119,3.119,3.119,3.119,3.119,3.119,3.119,3.119,3.1495,3.2188,3.1587,3.1607,3.2614,3.1708,3.1206,3.1201,3.1246,3.209,3.3799,3.381,3.3803,3.3803,3.3797,3.3789,3.3789,3.3789,3.442,3.5491,3.5073,3.515,3.5507,3.5507,3.5507,3.5507,3.5468,3.5449,3.5449,3.5449,3.4353,3.2852,3.2852,3.2852,3.2564,3.0931,3.0412,3.0393,3.0398,3.0398,3.0398,3.0398,3.041,3.0492,3.0825,3.0898,3.0898,3.0898,3.0898,3.0898,3.082,3.082,3.082,3.082,3.082,3.0547,2.9707,2.9551,2.9551,2.9551,2.9531,2.9219,2.8379,2.7519,2.666,2.5781,2.5644,2.5605,2.5605,2.5545,2.548,2.5399,2.6187,2.6629,2.6563,2.7371,2.7813,2.7813,2.7618,2.7409,2.7167,2.6949,2.7174,2.775,2.7374,2.7601,2.3281,2.4161,2.517,2.7211,2.7772,2.8347,3.037,3.0526,3.0318,3.0551,3.0601,3.0601,3.0601,3.0601,3.074,3.1134,3.1213,3.1217,3.1217,3.1213,3.1206,3.1194,3.1213,3.1189,3.1177,3.1179,3.1495,3.2222,3.1604,3.1765,3.3086,3.1914,3.2089,3.4051,3.4129,3.505,3.7043,3.704,3.7051,3.7014,3.484,3.3796,3.3796,3.3817,3.4222,3.4973,3.4824,3.5056,3.5493,3.5493,3.5493,3.5493,3.5493,3.5493,3.5493,3.5493,3.5141,3.4545,3.3949,3.3372,3.2814,3.2244,3.1808,3.1392,3.0631,3.04,3.0393,3.0393,3.0386,3.0479,3.0803,3.0905,3.0898,3.0898,3.0898,3.0898,3.0898,3.0898,3.0898,3.0898,3.0898,3.0801,3.0508,3.0469,3.0469,3.0469,2.9961,2.9492,2.9199,2.8398,2.7754,2.7461,2.7402,2.7383,2.7383,2.732,2.7264,2.7193,2.7431,2.7535,2.7467,2.7736,2.789,2.789,2.7827,2.7847,2.7999,2.7932,2.8146,2.859,2.8191,2.8149,2.4817,2.5669,2.6583,2.8597,2.9038,2.9407,3.0858,3.074,3.0269,3.0244,3.0055,2.9873,2.9829,2.9836,3.0139,3.1067,3.1213,3.1385,3.1924,3.2446,3.2757,3.2763,3.1842,3.1608,3.2679,3.2768,3.254,3.1959,3.1458,3.2077,3.4057,3.3271,3.3656,3.5525,3.5595,3.659,3.8665,3.8682,3.8715,3.867,3.6578,3.5546,3.5538,3.554,3.5454,3.5285,3.548,3.5647,3.5795,3.5888,3.593,3.5911,3.5622,3.568,3.5892,3.5622,3.5493,3.543,3.4853,3.4295,3.3776,3.3468,3.3141,3.2667,3.1623,3.1296,3.1174,3.0573,3.0393,3.0477,3.0814,3.0908,3.1055,3.1641,3.1797,3.1719,3.1426,3.1367,3.1269,3.0957,3.0898,3.0898,3.0898,3.0898,3.0898,3.0898,3.043,2.9941,2.9648,2.9101,2.8652,2.832,2.8301,2.8301,2.8301,2.8262,2.8218,2.8135,2.8341,2.8429,2.8371,2.864,2.8794,2.8794,2.8794,2.8855,2.8963,2.89,2.8971,2.9134,2.8779,2.8615,2.6302,2.711,2.801,2.992,3.0375,3.0526,3.1122,3.074,3.0228,3.0073,2.9543,2.9062,2.8932,2.8938,2.9462,3.092,3.1241,3.1816,3.322,3.4686,3.5616,3.5599,3.3111,3.2547,3.5326,3.5591,3.4449,3.1649,3.1298,3.2486,3.5442,3.5622,3.5622,3.5622,3.5607,3.662,3.8663,3.8704,3.8713,3.8711,3.8711,3.8685,3.8699,3.8699,3.7859,3.6384,3.6878,3.68,3.6384,3.6635,3.6743,3.6699,3.593,3.6084,3.6622,3.5853,3.5545,3.5493,3.5493,3.5493,3.5372,3.4545,3.4257,3.4103,3.3276,3.3026,3.2686,3.1098,3.0662,3.0709,3.0853,3.1025,3.1562,3.3144,3.3535,3.3301,3.248,3.2246,3.1953,3.1133,3.0937,3.0898,3.0898,3.0898,3.0898,3.0898,3.0898,3.0605,2.9766,2.9668,2.9355,2.8516,2.8437,2.8437,2.8437,2.8437,2.8398,2.832,2.8973,2.934,2.9267,3.0006,3.0398,3.0398,3.0398,3.0267,2.9999,2.9796,2.9607,2.9392,2.9134,2.8994,2.8375,2.923,3.0064,3.1588,3.1539,3.1272,3.1864,3.1038,3.0023,2.9513,2.8559,2.7713,2.7481,2.8066,2.896,3.0179,3.21,3.3456,3.3405,3.4692,3.5596,3.5574,3.4952,3.4774,3.5525,3.5605,3.5278,3.4529,3.2442,3.2486,3.5442,3.5622,3.5622,3.5622,3.5607,3.662,3.8663,3.8704,3.8689,3.8701,3.8701,3.8713,3.8695,3.8693,3.8173,3.7233,3.6932,3.6949,3.7203,3.7274,3.7431,3.7642,3.745,3.7084,3.668,3.6469,3.6007,3.5493,3.5493,3.5493,3.5468,3.5238,3.518,3.5141,3.4911,3.4847,3.4745,3.4308,3.4199,3.3693,3.1474,3.2784,3.4805,3.5234,3.5332,3.5059,3.3984,3.2949,3.2129,3.1914,3.1348,3.0898,3.0898,3.0898,3.0898,3.0898,3.0898,3.082,3.0605,3.0566,3.0488,3.0254,3.0234,3.0234,3.0234,3.0234,3.0195,3.0078,3.02,3.0247,3.0171,3.0333,3.0398,3.0398,3.0398,3.0267,2.9999,2.9796,2.9607,2.9392,2.9134,2.8994,3.0412,3.1291,3.1924,3.2723,3.2317,3.17,3.1381,3.051,2.9326,2.7894,2.7115,2.6477,2.5938,2.6858,2.8086,2.9407,3.1811,3.3735,3.4303,3.5098,3.5616,3.5603,3.5616,3.6139,3.7467,3.7577,3.7573,3.7573,3.4801,3.3877,3.5518,3.5602,3.5602,3.5602,3.5611,3.6584,3.867,3.8711,3.8713,3.8707,3.8707,3.8707,3.8707,3.8713,3.8472,3.8081,3.7838,3.7788,3.7848,3.8004,3.8261,3.8527,3.8142,3.793,3.7757,3.6988,3.6411,3.5988,3.5622,3.5738,3.5968,3.5622,3.5493,3.5493,3.5493,3.5488,3.5515,3.5515,3.5495,3.5128,3.3553,3.456,3.5996,3.5996,3.6007,3.5813,3.5106,3.4075,3.3086,3.2344,3.1504,3.0898,3.0898,3.0898,3.0898,3.0898,3.0898,3.0898,3.0898,3.0898,3.0898,3.0898,3.0898,3.0898,3.0898,3.0898,3.0879,3.0781,3.0708,3.0606,3.0537,3.0487,3.0417,3.0398,3.0398,3.0343,3.0163,2.9864,2.9643,2.9532,2.916,2.92,3.2381,3.3165,3.3558,3.3558,3.2983,3.2053,3.0581,2.961,2.8379,2.6202,2.5646,2.5271,2.4483,2.5593,2.7096,2.8602,3.0913,3.325,3.5309,3.5705,3.574,3.5628,3.5614,3.6793,3.9795,4.0113,4.0072,4.0072,3.7677,3.6217,3.6214,3.6214,3.6212,3.6202,3.6465,3.7498,3.931,3.8894,3.8706,3.8695,3.8707,3.8707,3.8707,3.8707,3.8707,3.8719,3.8933,3.882,3.8505,3.8779,3.9123,3.9373,3.8623,3.8719,3.9123,3.7603,3.6969,3.6776,3.6084,3.6295,3.6719,3.5815,3.557,3.5641,3.5532,3.5493,3.5493,3.5493,3.5493,3.5573,3.5851,3.597,3.5996,3.5996,3.6008,3.5963,3.5834,3.5204,3.4238,3.2656,3.1758,3.1191,3.1094,3.1074,3.1035,3.0918,3.0898,3.0898,3.0898,3.0898,3.0898,3.0898,3.0898,3.0898,3.0898,3.0898,3.0898,3.0898,3.0762,3.0664,3.0604,3.0548,3.0467,3.0398,3.0398,3.0398,3.0398,2.9962,2.9731,2.9696,2.927,2.9462,3.3751,3.4242,3.4303,3.4303,3.3744,3.2814,3.1343,2.9475,2.7769,2.6708,2.5213,2.3984,2.3641,2.4979,2.6545,2.7805,2.9939,3.2422,3.5206,3.6297,3.6548,3.571,3.5588,3.6768,3.9808,4.0084,4.0086,4.0086,3.9631,3.9325,3.9327,3.931,3.9325,3.9311,4.1131,4.23,4.2668,4.0015,3.8711,3.8693,3.8713,3.8707,3.8707,3.8707,3.8707,3.8707,3.8732,3.8998,3.9373,3.9437,3.9795,4.0277,4.0123,3.9738,3.9258,3.895,3.8392,3.7757,3.7603,3.7661,3.7526,3.6007,3.5949,3.6372,3.5699,3.5493,3.5493,3.5493,3.5493,3.552,3.5573,3.5781,3.5996,3.5996,3.6008,3.5963,3.5834,3.5185,3.4336,3.3379,3.3066,3.2754,3.209,3.1973,3.1738,3.1016,3.0898,3.0898,3.0898,3.0898,3.0898,3.0898,3.0898,3.0898,3.0898,3.0898,3.0898,3.0898,3.0762,3.0669,3.0607,3.053,3.0467,3.0398,3.0398,3.0398,3.0398,3.0109,2.9861,2.9696,2.9435,2.9647,3.4201,3.4776,3.4979,3.459,3.3643,3.2222,2.9956,2.8298,2.6691,2.4797,2.3967,2.3405,2.2941,2.4152,2.5547,2.6505,2.8569,3.0942,3.3515,3.5736,3.7131,3.7148,3.7641,3.8535,3.9963,4.0119,4.007,4.007,4.007,4.0103,4.0082,4.0082,4.01,4.0111,4.2317,4.3493,4.3517,4.1967,4.0364,3.8711,3.8706,3.8682,3.8707,3.8707,3.8707,3.8707,3.8707,3.9036,3.9599,3.9599,3.9964,4.0489,4.0489,4.0258,3.9873,3.945,3.8738,3.8007,3.8007,3.8007,3.7796,3.6526,3.6392,3.6546,3.5738,3.5493,3.5493,3.5493,3.5493,3.5553,3.5705,3.5869,3.6005,3.6009,3.589,3.5792,3.5836,3.5161,3.4449,3.414,3.3711,3.3281,3.2891,3.248,3.2051,3.1641,3.1191,3.0898,3.0898,3.0898,3.0898,3.0898,3.0898,3.0898,3.0898,3.0898,3.0898,3.0898,3.084,3.0732,3.0611,3.0579,3.0506,3.0398,3.0398,3.0398,3.0398,3.0136,2.9954,2.9864,2.9982,3.0389,3.4066,3.4692,3.4962,3.4201,3.3017,3.1309,2.8467,2.7114,2.571,2.3088,2.2868,2.2987,2.2412,2.3376,2.4543,2.5456,2.7368,2.9567,3.1935,3.4891,3.7254,3.8465,3.9484,4.0067,4.0067,4.0103,4.007,4.007,4.007,4.007,4.007,4.007,4.0103,4.0112,4.2303,4.348,4.3508,4.3505,4.2224,3.9726,3.9383,3.9268,3.9368,3.9093,3.8964,3.8946,3.8781,3.898,3.9486,3.9486,3.9863,4.0406,4.0406,4.0457,4.0412,3.9777,3.9123,3.8546,3.8546,3.8546,3.8354,3.7315,3.6988,3.6796,3.5815,3.5493,3.5493,3.5493,3.5493,3.5566,3.5811,3.5882,3.59,3.5921,3.5746,3.565,3.5824,3.5281,3.4792,3.4939,3.4414,3.3906,3.3711,3.3144,3.2676,3.248,3.1738,3.123,3.1406,3.1113,3.0976,3.1152,3.1016,3.0898,3.0898,3.0898,3.0898,3.0898,3.0898,3.0814,3.0633,3.0607,3.0544,3.0417,3.0602,3.0679,3.0679,3.0636,3.05,3.0285,3.0753,3.1243,3.3305,3.3558,3.344,3.2679,3.1884,3.0683,2.8349,2.6725,2.5253,2.363,2.2818,2.2395,2.2327,2.297,2.3951,2.5372,2.6911,2.8958,3.1867,3.4295,3.6457,3.8384,3.9476,4.0104,4.0104,4.0121,4.007,4.007,4.007,4.007,4.007,4.007,4.0103,4.0112,4.2303,4.3476,4.3479,4.3508,4.3358,4.303,4.1585,4.1111,4.1562,4.0354,3.979,3.9753,3.9019,3.8855,3.9152,3.9152,3.9552,4.0139,4.0139,4.0286,4.0489,4.0412,4.0335,4.0258,4.0258,4.0258,4.0008,3.8392,3.7873,3.7584,3.5988,3.5493,3.5493,3.5493,3.5493,3.5507,3.5553,3.5547,3.5565,3.5616,3.562,3.5624,3.5699,3.5659,3.5636,3.576,3.5762,3.5508,3.4726,3.4512,3.4199,3.3418,3.2598,3.2344,3.3086,3.1836,3.1191,3.1992,3.1367,3.0898,3.0898,3.0898,3.0898,3.0898,3.0898,3.084,3.0702,3.0634,3.0564,3.0487,3.1218,3.1583,3.1583,3.2301,3.2133,3.1196,3.1785,3.1953,3.2527,3.3051,3.322,3.2459,3.141,2.9939,2.7672,2.5998,2.4509,2.3038,2.2513,2.231,2.231,2.2547,2.3224,2.4695,2.5423,2.686,2.9909,3.1833,3.3897,3.648,3.7987,3.9106,3.9986,4.007,4.007,4.007,4.007,4.007,4.007,4.007,4.0095,4.0092,4.2316,4.3499,4.3506,4.3501,4.3508,4.3487,4.2209,4.1534,4.142,4.0873,4.0359,3.9863,3.9551,3.9316,3.9099,3.9099,3.9364,3.9797,3.9797,3.9861,3.9964,3.9964,3.9757,3.9561,4.0077,4.0049,3.9662,3.8988,3.843,3.77,3.6007,3.5493,3.5493,3.5493,3.5493,3.5493,3.5493,3.5545,3.5553,3.5535,3.556,3.5622,3.5641,3.5669,3.5735,3.5873,3.5957,3.5898,3.5547,3.5059,3.457,3.4238,3.3457,3.3047,3.3359,3.2812,3.2539,3.2891,3.1719,3.0898,3.0898,3.0898,3.0898,3.0898,3.0898,3.084,3.0703,3.0647,3.083,3.1263,3.1564,3.1948,3.2429,3.2737,3.243,3.1558,3.25,3.2579,3.1444,3.2188,3.2628,3.2087,3.0852,2.9228,2.7165,2.5541,2.4069,2.2615,2.231,2.231,2.231,2.231,2.2716,0.0,2.4526,2.5795,2.8621,3.0446,3.2459,3.4996,3.6637,3.8058,3.9326,3.9817,4.007,4.007,4.007,4.007,4.007,4.007,4.0082,4.0112,4.1675,4.281,4.3496,4.3487,4.3495,4.349,4.2727,4.2161,4.1809,4.157,4.102,4.023,3.9992,3.954,3.8971,3.8971,3.9171,3.9438,3.9438,3.951,3.9599,3.9599,3.9375,3.9105,3.9734,3.9776,3.9451,3.8933,3.8424,3.7738,3.6295,3.5699,3.5493,3.5493,3.5493,3.5493,3.5493,3.5545,3.5565,3.5526,3.5545,3.5584,3.5584,3.5622,3.5689,3.5822,3.5916,3.5976,3.5996,3.5488,3.5078,3.5078,3.4336,3.3887,3.4141,3.3711,3.3496,3.3769,3.25,3.1543,3.1309,3.1289,3.1172,3.0918,3.0898,3.0859,3.0762,3.0903,3.113,3.1448,3.2102,3.2583,3.2891,3.343,3.3256,3.2455,3.3351,3.3366,2.9922,3.0666,3.1207,3.1207,3.0091,2.8586,2.7046,2.5541,2.4069,2.2615,2.231,2.231,2.231,2.231,2.2547,2.3291,2.4644,2.6387,2.867,3.0925,3.2814,3.432,3.5859,3.7094,3.7855,3.9225,4.007,4.007,4.007,4.007,4.007,4.007,4.0082,4.0112,4.0123,4.1227,4.3496,4.3487,4.3497,4.3497,4.3479,4.3461,4.3442,4.2653,4.1864,4.1056,4.0249,3.9441,3.8707,3.8707,3.8855,3.9125,3.9125,3.9314,3.9599,3.9599,3.9599,3.958,3.9599,3.9819,3.9814,3.808,3.774,3.7834,3.6949,3.6142,3.5493,3.5493,3.5493,3.5493,3.5493,3.5493,3.5493,3.5493,3.5493,3.5493,3.5493,3.5565,3.563,3.5687,3.5812,3.5918,3.5996,3.5996,3.5996,3.5996,3.5234,3.5,3.5859,3.4473,3.373,3.459,3.3906,3.3047,3.2246,3.2187,3.1816,3.0957,3.0898,3.0898,3.0898,3.1538,3.1491,3.0621,3.2949,3.3737,3.2891,3.4641,3.5026,3.418,3.4527,3.4357,2.7706,2.8315,2.8772,2.8247,2.7385,2.642,2.5406,2.4441,2.346,2.2513,2.231,2.231,2.231,2.231,2.3054,2.5287,2.6048,0.0,2.9431,3.1664,3.3406,3.437,3.7178,3.9123,3.9377,3.9817,4.007,4.007,4.007,4.007,4.007,4.007,4.0103,4.0082,4.0112,4.1174,4.3489,4.3514,4.3488,4.3497,4.3497,4.3497,4.3479,4.3222,4.2671,4.1882,4.1075,4.0267,3.9478,3.8927,3.8732,3.8815,3.8815,3.8902,3.8998,3.8998,3.9082,3.9264,3.9264,3.9481,3.9721,3.9394,3.8936,3.8529,3.8481,3.7469,3.6334,3.6334,3.593,3.5493,3.5493,3.5493,3.5493,3.5493,3.5493,3.5493,3.5493,3.5565,3.5611,3.5685,3.5816,3.5918,3.5996,3.5996,3.5996,3.5996,3.5762,3.5684,3.5957,3.5527,3.5273,3.5566,3.5332,3.459,3.3144,3.3027,3.2676,3.1836,3.2305,3.2363,3.1816,3.2439,3.2936,3.325,3.3891,3.4353,3.468,3.5238,3.517,3.4527,3.4036,3.3659,2.6133,2.6826,2.7283,2.681,2.615,2.5423,2.4661,2.3917,2.319,2.2462,2.231,2.231,2.231,2.231,2.3004,2.5101,2.5913,2.708,2.9364,3.1579,3.3575,3.5165,3.7669,3.9377,3.9648,3.9918,4.007,4.007,4.007,4.007,4.007,4.007,4.007,4.007,4.0117,4.1178,4.3494,4.3476,4.3505,4.3497,4.3497,4.3497,4.3497,4.3497,4.3057,4.2268,4.1772,4.0928,0.0,3.935,3.8964,3.8707,3.8707,3.8707,3.8707,3.8707,3.8803,3.8961,3.8961,3.9144,3.9425,3.9418,3.9223,3.9042,3.9246,3.8315,3.7199,3.7199,3.6603,3.5949,3.5949,3.5738,3.5493,3.5493,3.5493,3.5493,3.5493,3.5545,3.5603,3.568,3.5764,3.5867,3.5976,3.5996,3.5996,3.5996,3.5996,3.5996,3.5996,3.5996,3.5996,3.5996,3.5996,3.5566,3.4473,3.4082,3.3535,3.2715,3.3125,3.3184,3.2676,3.3342,3.3826,3.4011,3.4474,3.4814,3.5007,3.5353,3.5223,3.4694,3.4146,3.365,0.0,2.5896,2.6437,2.6387,2.5879,2.5186,2.4492,2.3799,0.0,2.2446,2.231,2.2344,2.2446,2.2412,2.2699,2.363,2.4983,2.6708,2.8907,3.1213,3.3694,3.6654,3.7635,3.8328,3.9005,3.9681,4.007,4.007,4.007,4.007,4.007,4.007,4.007,4.007,4.0103,4.1133,4.3266,4.3342,4.3393,4.3356,4.341,4.3444,4.3444,4.3479,4.3075,4.2378,4.2268,4.1368,3.9974,3.9845,3.9368,3.8707,3.8707,3.8707,3.8707,3.8707,3.8707,3.8707,3.8707,3.8855,3.8995,3.8536,3.8842,3.9392,3.9392,3.8777,3.8084,3.8027,3.743,3.6776,3.6719,3.6161,3.5603,3.5603,3.5532,3.5493,3.5493,3.5493,3.5545,3.568,3.5708,3.5758,3.5955,3.5996,3.5996,3.5996,3.5996,3.5996,3.5996,3.5996,3.5996,3.5996,3.5996,3.5996,3.5996,3.5254,3.4414,3.3555,3.3555,3.3555,3.3496,3.427,3.4276,3.3403,3.4839,3.5161,3.4295,3.5122,3.5223,3.4694,3.4694,3.4134,2.2987,0.0,2.4036,2.3477,2.3207,2.3038,0.0,2.2682,2.2513,2.2344,2.231,2.2649,2.3765,2.3511,2.4137,2.7182,2.845,2.9617,3.1275,3.3947,3.6603,3.9022,3.9462,3.9631,3.98,3.9969,4.007,4.007,4.007,4.007,4.007,4.007,4.007,4.007,4.0102,4.0343,4.0913,4.1761,4.2228,4.2226,4.2675,4.2902,4.2902,4.3321,4.3387,4.3149,4.1919,4.1185,4.0726,3.9496,3.8872,3.8707,3.8707,3.8707,3.8707,3.8707,3.8707,3.8707,3.8707,3.8732,3.8836,3.9183,3.9699,4.0219,4.0219,3.9642,3.8854,3.818,3.7853,3.7546,3.6873,3.6565,3.643,3.643,3.5949,3.5493,3.5493,3.5493,3.5526,3.5622,3.5669,3.5758,3.5896,3.5976,3.5996,3.5996,3.5996,3.5996,3.5996,3.5996,3.5996,3.5996,3.5996,3.5996,3.5996,3.5801,3.5312,3.4453,3.5019,3.5098,3.4414,3.5168,3.5433,3.5122,3.5384,3.5411,3.5199,3.5411,3.5223,3.4694,3.4694,3.3975,2.231,2.2835,2.3291,2.2902,2.2801,2.2801,2.2801,0.0,0.0,0.0,0.0,2.2649,2.3782,2.3934,2.478,2.7486,2.9161,3.1106,3.3947,3.6045,3.799,3.9851,4.007,4.007,4.007,4.007,4.007,4.007,4.007,4.007,4.007,4.007,4.007,4.007,4.007,4.0082,4.0095,4.0701,4.1206,4.1538,4.2311,4.2711,4.2711,4.325,4.3497,4.3424,4.2194,4.1442,4.102,3.9772,3.9038,3.8707,3.8707,3.8792,3.8855,3.875,3.8792,3.8855,3.8732,3.8892,3.9181,3.9481,4.0004,4.0489,4.0489,4.02,3.9738,3.9277,3.8873,3.8488,3.8027,3.7603,3.7199,3.6796,3.6372,3.5949,3.5584,3.5493,3.5526,3.5603,3.5659,3.5737,3.5875,3.5957,3.5996,3.5996,3.5996,3.5996,3.5996,3.5996,3.5996,3.5996,3.5996,3.5996,3.5996,3.5996,3.5801,3.5332,3.5742,3.5781,3.5312,3.5704,3.5881,3.5708,3.556,3.5493,3.5493,3.5493,3.5223,3.4694,3.4694,3.4092,2.2412,2.3004,2.3511,2.3291,2.3308,2.3359,2.3257,0.0,0.0,0.0,0.0,0.0,2.3485,2.4441,2.5624,2.7352,2.9401,3.2222,3.6366,3.7601,3.8565,3.9918,4.007,4.007,4.007,4.007,4.007,4.007,4.007,4.007,4.007,4.007,4.007,4.007,4.0103,4.0095,4.0095,4.0117,4.0481,4.1208,4.2083,4.2562,4.2711,4.325,4.3497,4.3442,4.2653,4.1846,4.1056,4.023,3.9423,3.8707,3.8707,3.8844,3.9008,3.8773,3.8855,3.9072,3.8844,3.9181,3.9668,3.9622,4.0004,4.0489,4.0489,4.0489,4.0489,4.0489,4.0008,3.945,3.9315,3.8738,3.8007,3.7276,3.7007,3.668,3.5872,3.568,3.5699,3.5757,3.5834,3.5974,3.6213,3.623,3.6191,3.6191,3.6094,3.5996,3.5996,3.5996,3.5996,3.5996,3.5996,3.5996,3.5996,3.5996,3.5996,3.5996,3.5996,3.5996,3.5996,3.5962,3.5881,3.5699,3.5584,3.5493,3.5493,3.5493,3.5315,3.4943,3.4903,3.4518,2.2885,2.3765,2.4019,2.2784,2.2936,2.3241,2.2615,0.0,0.0,0.0,0.0,0.0,2.4595,2.6404,2.8523,3.1346,3.2904,3.4742,3.7364,3.8362,3.914,3.9969,4.007,4.007,4.007,4.007,4.007,4.007,4.007,4.007,4.007,4.007,4.007,4.007,4.0107,4.0117,4.0095,4.0078,4.048,4.1209,4.1349,4.1895,4.2711,4.325,4.3497,4.3442,4.2653,4.1846,4.1056,4.023,3.9423,3.8707,3.8707,3.8719,3.8762,3.8738,3.8855,3.9099,3.9044,3.9481,3.9982,3.969,4.0004,4.0489,4.0489,4.0489,4.0489,4.0489,4.0412,4.0162,3.9469,3.92,3.9065,3.8931,3.8334,3.7565,3.6699,3.6526,3.6526,3.6526,3.6675,3.703,3.7806,3.7463,3.7109,3.7109,3.6465,3.5996,3.5996,3.5996,3.5996,3.5996,3.5996,3.5996,3.5996,3.5996,3.5996,3.5996,3.5996,3.5996,3.5996,3.5841,3.5726,3.5699,3.5584,3.5493,3.5493,3.5493,3.5699,3.6043,3.5815,3.5467,2.2023,2.3038,2.3731,2.3054,2.3748,2.4509,2.4171,2.3765,0.0,0.0,0.0,0.0,2.4595,2.7102,3.0044,3.3165,3.449,3.5757,3.7652,3.8531,3.9259,3.9986,4.007,4.007,4.007,4.007,4.007,4.007,4.007,4.007,4.007,4.007,4.007,4.007,4.0099,4.0676,4.1905,4.1942,4.1504,4.0595,4.1006,4.1662,4.2528,4.2903,4.3214,4.3442,4.2653,4.1846,4.1056,4.023,3.9423,3.8707,3.8707,3.8773,3.8952,3.9127,3.9275,3.9364,3.9364,3.969,4.0081,3.9922,4.0157,4.0489,4.0489,4.0489,4.0489,4.0489,4.0489,4.0412,4.0027,3.995,3.9835,3.9392,3.8623,3.7757,3.6892,3.6372,3.618,3.6622,3.6853,3.7283,3.814,3.7747,3.7305,3.7305,3.6562,3.5996,3.5996,3.5996,3.5996,3.5996,3.5996,3.5996,3.5996,3.5996,3.5996,3.5996,3.5996,3.5996,3.5996,3.5802,3.5697,3.5699,3.5584,3.5493,3.5493,3.5493,3.5791,3.6287,3.6024,3.6056,2.1346,2.2395,2.3427,2.3613,0.0,2.5186,2.5524,2.5033,0.0,0.0,0.0,2.4398,2.4067,2.7894,3.1839,3.4117,3.5284,3.6366,3.7719,3.8531,3.9259,3.9986,4.007,4.007,4.007,4.007,4.007,4.007,4.007,4.007,4.007,4.007,4.007,4.007,4.0119,4.0934,4.2665,4.324,4.2335,4.0087,4.0946,4.1611,4.2147,4.251,4.2939,4.3303,4.2803,4.2121,4.1332,4.0506,3.9717,3.8964,3.8781,3.8815,3.9036,3.9457,3.9599,3.9622,3.969,3.9943,4.0177,4.012,4.0267,4.0489,4.0489,4.0489,4.0489,4.0489,4.0489,4.0489,4.0489,4.0489,4.0335,3.9719,3.9065,3.8296,3.7238,3.668,3.6507,3.693,3.7147,3.7617,3.8696,3.7982,3.7344,3.7578,3.6699,3.5996,3.5996,3.5996,3.5996,3.5996,3.5996,3.5996,3.5996,3.5996,3.5996,3.5996,3.5996,3.5996,3.5996,3.5802,3.5697,3.5699,3.5584,3.5493,3.5493,3.5699,3.6108,3.6697,3.6537,3.6844,2.1837,2.2801,2.3562,2.4269,2.3985,0.0,2.5304,2.5033,0.0,2.5013,0.0,2.5688,2.2948,2.9426,3.5027,3.4549,3.574,3.6975,3.7787,3.8531,3.9259,3.9986,4.007,4.007,4.007,4.007,4.007,4.007,4.007,4.007,4.007,4.007,4.007,4.007,4.0103,4.0203,4.0323,4.242,4.2371,4.011,4.1239,4.1588,4.131,4.2255,4.2711,4.2788,4.3231,4.2947,4.2158,4.1368,4.0543,3.9735,3.9001,3.8689,3.8792,3.9383,3.9599,3.9645,3.9962,4.0232,4.0441,4.0177,4.0267,4.0489,4.0489,4.0489,4.0489,4.0489,4.0489,4.0489,4.0489,4.0489,4.0489,4.0431,4.0354,3.9873,3.8257,3.8488,3.8796,3.8046,3.8022,3.8646,4.0341,3.8717,3.75,3.8379,3.707,3.5996,3.5996,3.5996,3.5996,3.5996,3.5996,3.5996,3.5996,3.5996,3.5996,3.5996,3.5996,3.5996,3.5996,3.5802,3.5697,3.5699,3.5584,3.5493,3.5493,3.6257,3.7051,3.7882,3.8058,3.8314,2.0576,2.1786,2.2885,2.363,2.3934,0.0,0.0,2.681,2.7349,2.7511,2.7881,2.8075,2.7849,3.1358,3.4295,3.4455,3.5774,3.6874,3.7161,3.7855,3.8582,3.9326,3.9411,3.958,4.0037,4.007,4.007,4.007,4.007,4.007,4.007,4.007,4.007,4.007,4.0084,4.0083,4.0092,4.2342,4.3081,4.2219,4.2667,4.205,4.053,4.1167,4.1608,4.1917,4.2141,4.1991,4.1534,4.124,4.0634,3.9808,3.9019,3.8803,3.899,3.9205,3.9552,3.9922,4.0061,4.0286,4.0489,4.0372,4.0425,4.0489,4.0489,4.0489,4.0489,4.0489,4.0489,4.0489,4.0489,4.0489,4.0489,4.0489,4.0104,3.9565,3.895,3.8642,3.8392,3.8065,3.8503,3.9022,3.9199,3.8516,3.791,3.7812,3.6777,3.5996,3.5996,3.5996,3.5996,3.5996,3.5996,3.5996,3.5996,3.5996,3.5996,3.5996,3.5996,3.5996,3.5996,3.5802,3.5697,3.5699,3.5584,3.5757,3.6257,3.6546,3.743,3.8815,3.867,3.8858,1.9849,2.1116,2.2496,2.3224,0.0,0.0,2.6708,2.7858,2.8972,3.0146,3.0026,3.0294,3.2244,3.3169,3.3845,3.4421,3.5571,3.6502,3.6738,3.7229,3.7838,3.8565,3.865,3.8937,3.9665,3.9732,3.9834,4.0054,4.007,4.007,4.007,4.007,4.0103,4.0103,4.0103,4.0095,4.0101,4.1661,4.245,4.244,4.2317,4.1428,3.9939,4.0458,4.0623,4.0556,4.0939,4.1016,4.0839,4.0753,4.0249,3.946,3.8927,3.8833,3.8971,3.9072,3.9457,3.9962,4.0042,4.0286,4.0489,4.0489,4.0489,4.0489,4.0489,4.0489,4.0489,4.0489,4.0489,4.0489,4.0489,4.0489,4.0489,4.0489,4.0065,3.9604,3.9354,3.9027,3.87,3.845,3.8926,3.9311,3.9119,3.8685,3.8215,3.7773,3.6973,3.6309,3.6035,3.5996,3.5996,3.5996,3.5996,3.5996,3.5996,3.5996,3.5996,3.5996,3.5996,3.5996,3.5996,3.5802,3.5697,3.5699,3.5834,3.6161,3.6699,3.7257,3.7988,3.8892,3.9123,3.9199,2.0002,2.1116,2.2496,2.3224,0.0,0.0,2.7451,2.7806,2.8892,3.265,3.2256,3.2141,3.5035,3.4831,3.4304,3.4481,3.5131,3.5893,3.6671,3.6772,3.7043,3.7804,3.7889,3.8176,3.892,3.8988,3.9292,4.002,4.0121,4.0121,4.0121,4.0118,4.0114,4.008,4.0031,4.0083,4.0082,4.0101,4.0082,4.0077,3.9746,3.96,3.9635,4.0341,3.9933,3.8764,3.981,4.0294,4.0275,4.0014,3.9423,3.8707,3.8707,3.8707,3.8719,3.8999,3.9314,3.9645,3.9982,4.0267,4.0489,4.0489,4.0489,4.0489,4.0489,4.0489,4.0489,4.0489,4.0489,4.0489,4.0489,4.0489,4.0489,4.0489,4.0489,4.0277,3.9469,3.9931,4.0258,3.945,3.9296,3.9604,4.062,3.9411,3.838,3.8573,3.7871,3.6992,3.6133,3.6016,3.6016,3.6016,3.5996,3.5996,3.6016,3.6016,3.6016,3.6016,3.6016,3.6016,3.5996,3.5806,3.5706,3.5699,3.6353,3.6699,3.6699,3.843,3.8834,3.8027,3.9449,3.9445,2.0002,2.1116,2.2496,2.3224,2.4898,2.6623,0.0,2.9042,0.0,3.4303,3.4609,3.4233,3.4074,3.4658,3.504,3.4556,3.5131,3.569,3.5926,3.596,3.6248,3.7026,3.711,3.7415,3.8159,3.8495,3.9098,4.001,4.0109,4.0109,4.0109,4.0107,3.9146,3.698,3.695,3.793,4.0087,4.0092,4.0113,4.0105,3.8955,3.8833,3.9556,3.8866,3.8276,3.7897,3.8638,3.9136,3.948,3.9776,3.9423,3.8707,3.8707,3.8707,3.8707,3.8773,3.9136,3.9622,3.9712,4.0082,4.0489,4.0489,4.0489,4.0489,4.0489,4.0489,4.0489,4.0489,4.0489,4.0489,4.0489,4.0489,4.0489,4.0489,4.0489,4.0431,4.02,4.0315,4.0258,3.945,3.9758,3.9912,3.9176,3.9138,3.9071,3.8651,3.8379,3.8125,3.7851,3.7285,3.6914,3.6914,3.6367,3.625,3.6855,3.6914,3.6914,3.6914,3.6914,3.6641,3.6035,3.5893,3.5805,3.5694,3.5853,3.618,3.6699,3.7219,3.7642,3.8027,3.9061,3.909,2.0399,2.1583,2.2987,2.4019,2.5727,2.7486,2.8856,3.0222,3.1685,3.3482,3.4184,3.4401,3.431,3.4749,3.5115,3.4962,3.5318,3.5622,3.5622,3.5622,3.5791,3.6265,3.6315,3.662,3.7381,3.7797,3.835,3.9143,3.9764,3.9563,3.8357,3.8333,3.7466,3.5649,3.5621,3.7074,4.0057,3.8933,3.8311,3.8328,3.8037,3.7934,3.7997,3.7733,3.7411,3.7092,3.7863,3.8474,3.8976,3.9292,3.9148,3.8707,3.8707,3.8707,3.8707,3.8707,3.9073,3.9599,3.9599,4.0004,4.0489,4.0489,4.0489,4.0489,4.0489,4.0489,4.0489,4.0489,4.0489,4.0489,4.0489,4.0489,4.0489,4.0489,4.0489,4.0489,4.0489,4.0489,4.0354,3.9873,4.0162,4.0219,3.9407,3.9719,3.9844,3.9139,3.8789,3.8594,3.8594,3.8144,3.7812,3.7812,3.7031,3.6875,3.7734,3.75,3.7441,3.7793,3.748,3.7051,3.6543,3.6113,3.586,3.5779,3.5994,3.6348,3.679,3.7065,3.7315,3.7507,3.8373,3.8437,2.0991,2.2276,2.3748,2.5236,2.6725,2.8414,3.0683,3.119,3.1204,3.1221,3.2085,3.3389,3.5163,3.5009,3.481,3.5504,3.5622,3.5622,3.5622,3.5622,3.5622,3.5622,3.5622,3.5893,3.6603,3.6852,3.7157,3.7652,3.8921,3.8486,3.5735,3.5592,3.5585,3.5585,3.5602,3.6903,3.9635,3.6969,3.5671,3.5769,3.706,3.6971,3.5748,3.6903,3.7057,3.6522,3.7415,3.815,3.8707,3.8707,3.8707,3.8707,3.8707,3.8707,3.8707,3.8707,3.9073,3.9599,3.9599,4.0004,4.0489,4.0489,4.0489,4.0489,4.0489,4.0489,4.0489,4.0489,4.0489,4.0489,4.0489,4.0489,4.0489,4.0489,4.0489,4.0489,4.0489,4.0489,4.0489,4.0489,4.0489,4.0543,4.0677,4.0761,4.0572,3.9939,3.9277,3.8848,3.8848,3.8769,3.8711,3.8711,3.7949,3.7773,3.8633,3.7988,3.7871,3.8672,3.7969,3.7461,3.7305,3.6406,3.5918,3.5898,3.649,3.6787,3.6785,3.7464,3.7373,3.6622,3.7454,3.754,2.117,2.2276,2.3748,2.5236,2.6877,2.8662,3.0751,3.1185,3.1213,3.1187,3.2631,3.3997,3.4421,3.4979,3.5436,3.5588,3.5622,3.5622,3.5622,3.5622,3.5622,3.5622,3.5622,3.569,3.5859,3.591,3.5977,3.6113,3.6378,3.6293,3.5621,3.5616,3.5583,3.5583,3.558,3.5908,3.6582,3.5941,3.5997,3.6776,3.6295,3.6228,3.6523,3.6197,3.6404,3.7038,3.7248,3.7861,3.8707,3.8707,3.8707,3.8707,3.8707,3.8707,3.8707,3.8707,3.9073,3.9599,3.9599,4.0004,4.0489,4.0489,4.0489,4.0489,4.0489,4.0489,4.0489,4.0489,4.0489,4.0489,4.0489,4.0489,4.0489,4.0489,4.0489,4.0489,4.0489,4.0489,4.0489,4.0489,4.0489,4.0543,4.0677,4.0771,4.0818,4.0874,4.0742,4.0644,4.0644,4.0039,3.9629,3.9629,3.8848,3.8672,3.9551,3.9453,3.9414,3.9609,3.9434,3.873,3.7363,3.6445,3.5957,3.5898,3.5947,3.5931,3.5872,3.5988,3.5949,3.5762,3.638,3.6463,2.1119,2.2513,2.4458,2.6674,2.8416,2.9926,3.0954,3.1526,3.1747,3.1547,3.2439,3.3339,3.344,3.4336,3.5081,3.5081,3.5385,3.5622,3.5622,3.5622,3.5622,3.5622,3.5622,3.5622,3.5622,3.5622,3.5622,3.5622,3.5622,3.5622,3.5622,3.5622,3.5622,3.5622,3.5616,3.5616,3.5622,3.5597,3.5879,3.6378,3.5852,3.5836,3.6214,3.6041,3.6457,3.721,3.7433,3.7964,3.8707,3.8707,3.8707,3.8707,3.8707,3.8707,3.8707,3.8707,3.9073,3.9599,3.9599,4.0004,4.0489,4.0489,4.0489,4.0489,4.0489,4.0489,4.0489,4.0489,4.0489,4.0489,4.0489,4.0489,4.0489,4.0489,4.0489,4.0489,4.0489,4.0489,4.0489,4.0489,4.0489,4.0508,4.06,4.0706,4.0897,4.1168,4.1191,4.1191,4.1191,4.0801,4.0527,4.0527,3.9746,3.957,4.0449,4.0137,4.0078,4.0508,4.0137,3.9492,3.8574,3.7305,3.6406,3.5957,3.5843,3.5762,3.5661,3.5584,3.5545,3.5493,3.5662,3.5799,2.0771,2.2699,2.5167,2.7909,2.9799,3.0997,3.115,3.1843,3.2279,3.1789,3.2094,3.2502,3.2804,3.3651,3.4336,3.4447,3.4878,3.5284,3.5402,3.5419,3.547,3.5605,3.5622,3.5622,3.5622,3.5622,3.5622,3.5622,3.5622,3.5622,3.5622,3.5622,3.5622,3.5622,3.5622,3.5622,3.5622,3.5622,3.5622,3.5622,3.5622,3.5622,3.5622,3.6054,3.6563,3.7097,3.7578,3.8083,3.8578,3.8658,3.8707,3.8707,3.8707,3.8707,3.8707,3.8732,3.9127,3.9599,3.9668,4.0043,4.0489,4.0489,4.0489,4.0489,4.0489,4.0489,4.0489,4.0489,4.0489,4.0489,4.0489,4.0489,4.0489,4.0489,4.0489,4.0489,4.0489,4.0489,4.0489,4.0489,4.0489,4.0508,4.0562,4.0688,4.0883,4.1151,4.1191,4.1191,4.1191,4.1191,4.1191,4.1191,4.0547,4.043,4.1133,4.0547,4.043,4.1152,4.0527,4.0059,3.9902,3.8379,3.7109,3.623,3.6016,3.5857,3.5739,3.5637,3.5584,3.5512,3.519,3.5268,1.9951,2.2276,2.4881,2.6573,2.8472,3.0145,3.1014,3.1691,3.2,3.1405,3.2165,3.3031,3.3401,3.3522,3.3702,3.4143,3.3948,3.3931,3.4556,3.4641,3.4878,3.5537,3.5622,3.5622,3.5622,3.5622,3.5622,3.5622,3.5622,3.5622,3.5622,3.5622,3.5622,3.5622,3.5622,3.5622,3.5622,3.5622,3.5622,3.5622,3.5622,3.5622,3.5622,3.565,3.6028,3.6539,3.7058,3.7542,3.8047,3.8496,3.8707,3.8707,3.8707,3.8707,3.8719,3.8961,3.9282,3.9645,3.9922,4.0232,4.0489,4.0489,4.0489,4.0489,4.0489,4.0489,4.0489,4.0489,4.0489,4.0489,4.0489,4.0489,4.0489,4.0489,4.0489,4.0489,4.0489,4.0489,4.0489,4.0489,4.0489,4.0562,4.0735,4.0784,4.0883,4.1151,4.1191,4.1191,4.1191,4.1191,4.1191,4.1191,4.1094,4.1074,4.1191,4.1094,4.1074,4.1191,4.1094,4.0684,3.9922,3.8945,3.8027,3.7148,3.6328,3.5897,3.5868,3.5689,3.5603,3.557,3.5,3.4791,2.0829,2.2868,2.4862,2.6319,2.7791,2.9217,3.0587,3.1777,3.251,3.2237,3.2621,3.2841,3.2348,3.2196,3.2224,3.2469,3.2992,3.3508,3.3846,3.4235,3.4624,3.4945,3.5368,3.5622,3.5622,3.5622,3.5622,3.5622,3.5622,3.5622,3.5622,3.5622,3.5622,3.5622,3.5622,3.5622,3.5622,3.5622,3.5622,3.5622,3.5622,3.5622,3.5622,3.5622,3.5898,3.6416,3.696,3.747,3.7946,3.8465,3.8707,3.8707,3.8707,3.8707,3.875,3.8999,3.9314,3.9645,3.9982,4.0286,4.0489,4.0489,4.0489,4.0489,4.0489,4.0489,4.0489,4.0489,4.0489,4.0489,4.0489,4.0489,4.0489,4.0489,4.0489,4.0489,4.0489,4.0489,4.0489,4.0489,4.0489,4.0562,4.0716,4.0784,4.0863,4.1053,4.1152,4.1191,4.1191,4.1191,4.1191,4.1191,4.1191,4.1191,4.1191,4.1191,4.1191,4.1191,4.1191,4.1035,4.0644,3.9785,3.8926,3.8047,3.666,3.5937,3.5898,3.581,3.5715,3.5589,3.5015,3.4756,2.116,2.2665,2.41,2.5861,2.708,2.8249,2.9903,3.1458,3.2677,3.2943,3.311,3.2913,3.2036,3.1512,3.1189,3.1207,3.2124,3.2916,3.3085,3.3761,3.4286,3.4472,3.5165,3.5622,3.5622,3.561,3.5576,3.5605,3.561,3.5576,3.5622,3.5622,3.5622,3.5622,3.5622,3.5622,3.5622,3.5622,3.5622,3.5622,3.5622,3.5622,3.5622,3.5622,3.581,3.6207,3.6794,3.7343,3.7755,3.8433,3.8627,3.8496,3.8658,3.8707,3.875,3.909,3.9408,3.9668,4.0062,4.0339,4.0489,4.0489,4.0489,4.0489,4.0489,4.0489,4.0489,4.0489,4.0489,4.0489,4.0489,4.0489,4.0489,4.0489,4.0489,4.0489,4.0489,4.0489,4.0489,4.0489,4.0489,4.0562,4.0696,4.0764,4.0867,4.1033,4.1133,4.1191,4.1191,4.1191,4.1191,4.1191,4.1191,4.1191,4.1191,4.1191,4.1191,4.1191,4.0996,4.0976,4.1191,3.9941,3.9043,3.8613,3.6894,3.5976,3.5937,3.5918,3.581,3.5604,3.5136,3.4831,1.9697,2.0737,2.201,2.4611,2.6044,2.7182,2.8743,3.0349,3.1769,3.278,3.3405,3.3725,3.3671,3.2296,3.1205,3.1179,3.1258,3.1546,3.2239,3.2983,3.3728,3.4404,3.5165,3.5622,3.5622,3.5626,3.5583,3.5588,3.5608,3.56,3.5605,3.5622,3.5622,3.5622,3.5622,3.5622,3.5622,3.5622,3.5622,3.5622,3.5622,3.5622,3.5622,3.5622,3.5622,3.5677,3.6404,3.6905,3.7323,3.8285,3.8382,3.798,3.8496,3.8707,3.8762,3.9352,3.9599,3.969,4.0266,4.0489,4.0489,4.0489,4.0489,4.0489,4.0489,4.0489,4.0489,4.0489,4.0489,4.0489,4.0489,4.0489,4.0489,4.0489,4.0489,4.0489,4.0489,4.0489,4.0489,4.0489,4.0489,4.0562,4.0754,4.0789,4.0878,4.1146,4.1191,4.1191,4.1191,4.1191,4.1191,4.1191,4.1191,4.1191,4.1191,4.1191,4.1191,4.1191,4.043,4.0332,4.1172,3.8789,3.7793,3.8574,3.6894,3.5996,3.5996,3.5937,3.5823,3.5689,3.5345,3.5018,1.9029,2.0568,2.2124,2.3112,2.5031,2.6976,2.8097,2.9536,3.1183,3.3113,3.3655,3.3813,3.3793,3.2378,3.1203,3.1205,3.1176,3.1275,3.1546,3.2222,3.278,3.3051,3.4023,3.4728,3.4677,3.5246,3.5614,3.56,3.5602,3.559,3.5616,3.5598,3.5581,3.5605,3.5622,3.5622,3.5622,3.5622,3.5622,3.5622,3.5622,3.5622,3.5605,3.5581,3.5862,3.6289,3.6074,3.6576,3.7534,3.7911,3.8194,3.8415,3.8627,3.8707,3.8762,3.9377,3.9599,3.969,4.0283,4.0489,4.0489,4.0489,4.0489,4.0489,4.0489,4.0489,4.0489,4.0489,4.0489,4.0489,4.0489,4.0489,4.0489,4.0489,4.0489,4.0489,4.0489,4.0489,4.0489,4.0489,4.0489,4.0562,4.0716,4.0778,4.0858,4.1034,4.1144,4.1191,4.1191,4.1191,4.1191,4.1191,4.1191,4.1191,4.1191,4.1191,4.1191,4.1191,4.0918,4.0625,4.0371,3.9473,3.8594,3.7773,3.7148,3.6562,3.5996,3.5976,3.5862,3.5684,3.5407,3.5136,1.8697,2.001,2.1414,2.2429,2.3968,2.561,2.7075,2.8388,2.9815,3.162,3.2957,3.3813,3.3808,3.2859,3.1898,3.1287,3.1199,3.1193,3.1213,3.1624,3.1921,3.1921,3.3134,3.4148,3.4622,3.5209,3.591,3.6571,3.6,3.5907,3.6624,3.5977,3.5365,3.4891,3.5348,3.548,3.525,3.5504,3.5622,3.5622,3.5622,3.5622,3.5605,3.5608,3.6039,3.6833,3.6712,3.6986,3.7541,3.791,3.8176,3.8378,3.8609,3.8707,3.8762,3.9377,3.9599,3.969,4.0283,4.0489,4.0489,4.0489,4.0489,4.0489,4.0489,4.0489,4.0489,4.0489,4.0489,4.0489,4.0489,4.0489,4.0489,4.0489,4.0489,4.0489,4.0489,4.0489,4.0489,4.0489,4.0543,4.06,4.0716,4.0817,4.0916,4.1052,4.1139,4.1191,4.1191,4.1191,4.1191,4.1191,4.1191,4.1191,4.1191,4.1191,4.1191,4.1191,4.0644,4.0195,3.9902,3.9062,3.8184,3.7324,3.7012,3.6582,3.5996,3.6009,3.5896,3.5703,3.5523,3.5296,0.0,0.0,0.0,2.2564,2.2818,2.3,2.5564,2.6865,2.7717,2.8312,3.1212,3.3667,3.3667,3.3668,3.3105,3.1411,3.1181,3.1207,3.1201,3.119,3.1211,3.1187,3.2468,3.3896,3.5318,3.5509,3.6366,3.8384,3.669,3.642,3.8456,3.6649,3.4865,3.3399,3.4736,3.5154,3.4455,3.5182,3.5571,3.5588,3.5571,3.5571,3.5588,3.5588,3.6173,3.7206,3.8275,3.815,3.7318,3.8287,3.8328,3.7783,3.846,3.8707,3.8762,3.9377,3.9599,3.969,4.0283,4.0489,4.0489,4.0489,4.0489,4.0489,4.0489,4.0489,4.0489,4.0489,4.0489,4.0489,4.0489,4.0489,4.0489,4.0489,4.0489,4.0489,4.0489,4.0489,4.0489,4.0508,4.062,4.0716,4.0793,4.0908,4.104,4.1185,4.1191,4.1191,4.1191,4.1172,4.1172,4.1191,4.1172,4.1172,4.1191,4.1191,4.1191,4.1191,3.959,3.9004,3.9824,3.7402,3.6426,3.7246,3.6426,3.5996,3.5996,3.6007,3.5898,3.5703,3.5697,3.5484,1.8048,0.0,0.0,0.0,0.0,0.0,2.4681,2.5719,2.6907,2.8499,2.9641,3.0332,3.032,3.0332,3.0168,2.9674,3.0518,3.1201,3.119,3.1198,3.1182,3.1219,3.156,3.1952,3.2398,3.3562,3.453,3.5121,3.4622,3.4528,3.512,3.4614,3.3515,3.1844,3.2176,3.2841,3.3711,3.3914,3.4286,3.4793,3.4269,3.4303,3.481,3.5351,3.5774,3.6136,3.7934,3.8524,3.8305,3.8576,3.8573,3.846,3.8627,3.8707,3.8762,3.9377,3.9599,3.969,4.0283,4.0489,4.0489,4.0489,4.0489,4.0489,4.0489,4.0489,4.0489,4.0489,4.0489,4.0489,4.0489,4.0489,4.0489,4.0489,4.0489,4.0489,4.0489,4.0489,4.0543,4.0639,4.0677,4.0754,4.0908,4.0966,4.104,4.1185,4.1191,4.1191,4.1191,4.0644,4.0508,4.1133,4.0644,4.0508,4.1152,4.1191,4.1191,4.1191,4.0156,3.9375,3.8984,3.7656,3.6758,3.6367,3.6113,3.5985,3.5921,3.5925,3.5853,3.5703,3.5601,3.5388,1.833,1.9452,2.0737,2.0914,0.0,0.0,2.3942,2.4331,2.4789,2.5955,2.7702,2.899,2.8989,2.8998,2.8991,2.9003,2.9719,3.0749,3.2089,3.1668,3.1459,3.2197,3.2278,3.2275,3.2294,3.3208,3.3798,3.3798,3.3803,3.3789,3.3813,3.3794,3.2978,3.1244,3.1213,3.1832,3.3225,3.355,3.3926,3.4336,3.3909,3.3819,3.4049,3.448,3.5044,3.5632,3.6328,3.7434,3.8695,3.8684,3.8697,3.8707,3.8707,3.8707,3.8762,3.9377,3.9599,3.969,4.0283,4.0277,4.0046,4.0392,4.0258,4.0046,4.0392,4.0489,4.0489,4.0489,4.0489,4.0508,4.0581,4.0543,4.0489,4.0489,4.0489,4.0489,4.0489,4.0543,4.062,4.0677,4.0731,4.0804,4.0958,4.104,4.1103,4.1189,4.1191,4.1191,4.1191,4.0762,4.0508,4.0644,4.0527,4.0508,4.0644,4.0996,4.1191,4.1191,4.0039,3.9121,3.8613,3.7402,3.6515,3.6,3.5981,3.5907,3.5776,3.5853,3.5823,3.566,3.556,3.5354,1.9303,1.9662,0.0,2.187,2.1752,0.0,2.3298,2.2929,2.2338,2.2486,2.5706,2.8463,2.8482,2.8473,2.8592,2.8929,2.9002,3.0119,3.335,3.2467,3.2054,3.3616,3.3821,3.3785,3.3785,3.3789,3.3807,3.3807,3.3807,3.3807,3.3807,3.3815,3.3039,3.1381,3.1373,3.1884,3.2939,3.3595,3.3977,3.4064,3.3917,3.3699,3.3337,3.3203,3.3854,3.5083,3.4376,3.5623,3.8163,3.8412,3.8596,3.8689,3.8524,3.8591,3.8803,3.9196,3.9396,3.9602,4.0185,3.9835,3.9296,4.02,3.9892,3.9315,4.0219,4.0446,4.0389,4.0392,4.0404,4.0414,4.0427,4.0412,4.0373,4.0373,4.0431,4.0489,4.0508,4.062,4.0716,4.0735,4.0769,4.0869,4.1003,4.1117,4.1191,4.1191,4.1191,4.1191,4.1191,4.1113,4.0801,4.0117,4.0644,4.0781,4.0098,4.0742,4.1152,4.1055,3.9512,3.8554,3.8451,3.6868,3.5992,3.5982,3.5878,3.5734,3.5561,3.5762,3.5776,3.5603,3.5545,3.5369,2.0581,2.0994,2.1786,2.1481,2.1743,0.0,2.2512,2.2435,2.2583,2.3629,2.4526,2.5136,2.5145,2.5142,2.5993,2.8587,2.8993,3.0131,3.3367,3.3496,3.3423,3.3767,3.3796,3.3799,3.3799,3.3817,3.3807,3.3807,3.3807,3.3807,3.3807,3.3789,3.3322,3.2289,3.2502,3.265,3.2613,3.2737,3.3107,3.3671,3.2875,3.2599,3.281,3.2009,3.1769,3.2213,3.4712,3.5421,3.4882,3.667,3.7923,3.8579,3.7259,3.7753,3.9053,3.7972,3.8184,3.9014,3.941,3.8969,3.8507,4.0008,3.9469,3.8527,4.0027,4.01,3.9638,3.9742,3.9779,3.9626,3.8936,3.9189,3.9608,3.9608,4.0085,4.0543,4.0639,4.0677,4.0754,4.0908,4.0949,4.1006,4.1144,4.1187,4.1191,4.1191,4.1191,4.1191,4.1191,4.0586,4.0351,4.0898,4.0469,4.0371,4.0898,4.1094,4.0898,4.0195,3.918,3.8291,3.7586,3.6508,3.5917,3.5925,3.5529,3.5316,3.5278,3.5522,3.5622,3.5526,3.5526,3.546,2.1452,2.1815,2.2446,2.19,2.2017,0.0,0.0,2.2314,2.2652,2.3947,2.4203,2.4202,2.4192,2.419,2.4728,2.6342,2.6618,2.772,3.095,3.1414,3.2012,3.3597,3.3797,3.3787,3.3787,3.3797,3.3807,3.3807,3.3807,3.3807,3.3807,3.3793,3.3478,3.2763,3.292,3.2965,3.2858,3.284,3.3019,3.3291,3.2788,3.2354,3.194,3.1426,3.1367,3.1775,3.3791,3.4329,3.3894,3.4997,3.6127,3.7014,3.6234,3.6749,3.7914,3.7318,3.7542,3.8193,3.8527,3.8084,3.7565,3.8834,3.8392,3.768,3.9427,4.0017,4.0041,3.9726,3.9635,3.9501,3.9093,3.9238,3.9598,4.0015,4.0373,4.0677,4.0735,4.0793,4.087,4.0966,4.1043,4.1125,4.1183,4.1191,4.1191,4.1191,4.1191,4.1191,4.1191,4.082,4.0547,4.0547,4.0547,4.0371,3.9941,4.0703,4.0644,3.9336,3.8848,3.8213,3.7327,3.6386,3.5853,3.5757,3.5384,3.5189,3.5148,3.5145,3.5193,3.5304,3.5432,3.5432,2.2254,2.2414,2.2798,2.24,2.2293,2.2316,0.0,0.0,0.0,2.3934,2.4704,2.4925,2.4313,2.4198,2.4196,2.42,2.4197,2.5107,2.7696,2.8086,2.9278,3.2478,3.2889,3.2886,3.2886,3.2871,3.312,3.3752,3.3797,3.3778,3.3788,3.3796,3.3615,3.3176,3.3145,3.3198,3.3302,3.3302,3.3248,3.3128,3.313,3.2526,3.1392,3.1253,3.1514,3.214,3.2747,3.3293,3.3806,3.3789,3.4338,3.5154,3.519,3.5818,3.6758,3.6663,3.6937,3.7405,3.7698,3.7219,3.6661,3.7719,3.7584,3.7257,3.8594,3.9611,4.018,3.9449,3.919,3.9121,3.902,3.9055,3.933,4.0142,4.0468,4.0631,4.0789,4.0908,4.1004,4.1024,4.1137,4.1199,4.1206,4.1191,4.1191,4.1191,4.1191,4.1191,4.1191,4.1191,4.0937,4.0234,4.0781,4.0566,3.8984,4.0137,4.0215,3.8457,3.8352,3.7948,3.7076,3.6271,3.5757,3.5584,3.5274,3.5077,3.5016,3.4754,3.4754,3.5016,3.5304,3.5304,2.3426,2.3116,2.2806,2.2387,2.2296,2.2287,2.2302,0.0,2.2652,2.3925,0.0,2.759,2.4742,0.0,0.0,2.4206,2.42,2.4346,2.4693,2.4756,2.594,2.9163,2.9558,2.9544,2.9544,2.9545,3.0716,3.3587,3.3799,3.3806,3.3788,3.3798,3.3771,3.3716,3.3698,3.3716,3.3734,3.3734,3.3734,3.3689,3.371,3.3115,3.1982,3.1459,3.1517,3.2135,3.2745,3.3296,3.3798,3.3798,3.3899,3.3982,3.3991,3.5254,3.6877,3.5505,3.574,3.681,3.6974,3.6454,3.6007,3.77,3.8214,3.8041,3.7574,3.8017,3.8524,3.7784,3.7574,3.7381,3.6621,3.6894,3.7594,3.8469,3.9223,3.9956,4.081,4.0985,4.1024,4.1155,4.1182,4.1206,4.1191,4.1191,4.1191,4.1191,4.1191,4.1191,4.1191,4.1191,4.1152,4.1055,4.1133,4.0801,3.9824,3.9922,3.9297,3.7559,3.7452,3.7032,3.6098,3.5795,3.5603,3.5526,3.5018,3.4753,3.4734,3.4423,3.4423,3.4754,3.5016,3.5122,2.3958,2.3772,2.345,2.2547,2.2863,2.3204,2.248,2.2295,2.2453,2.3,0.0,0.0,0.0,0.0,0.0,0.0,2.42,2.4201,2.4202,2.4192,2.5045,2.7343,2.762,2.7966,2.8919,2.8998,2.9966,3.2247,3.1973,3.2121,3.3054,3.3109,3.333,3.3788,3.3807,3.3807,3.3807,3.3807,3.3807,3.3807,3.3463,3.292,3.2066,3.1459,3.1473,3.1935,3.2488,3.2979,3.3465,3.3707,3.3807,3.3807,3.3789,3.4581,3.5618,3.4958,3.5243,3.6026,3.6108,3.5911,3.5726,3.6538,3.7177,3.7593,3.7299,3.7831,3.835,3.7535,3.7305,3.7226,3.6855,3.6973,3.7441,3.8301,3.9153,3.9884,4.0279,4.0753,4.1124,4.1182,4.1208,4.1191,4.1191,4.1191,4.1191,4.1191,4.1191,4.1191,4.1191,4.1191,4.1191,4.1191,4.1191,4.0859,3.9961,3.9897,3.9143,3.7339,3.6696,3.6179,3.5751,3.5641,3.5584,3.5493,3.4963,3.4694,3.4694,3.4213,3.4037,3.4184,3.4794,3.5105,2.421,2.4201,2.4188,2.4138,2.3911,2.344,2.25,2.2924,2.3267,2.2471,2.3312,0.0,0.0,0.0,2.4203,2.4188,0.0,2.4068,2.4168,2.4042,2.4429,2.5779,2.6197,2.6958,2.8424,2.8223,2.8855,3.0925,3.0118,3.029,3.2044,3.2433,3.2818,3.3305,3.3625,3.3807,3.3807,3.3807,3.3734,3.3625,3.3221,3.2661,3.2019,3.1456,3.1411,3.1825,3.2161,3.2648,3.3214,3.3613,3.3799,3.3807,3.3913,3.4274,3.4694,3.4694,3.5053,3.5526,3.5584,3.5612,3.5635,3.5736,3.6253,3.6842,3.6861,3.7342,3.7754,3.7129,3.6934,3.6934,3.6934,3.7129,3.7519,3.8398,3.9277,3.9961,4.0195,4.0742,4.1191,4.1191,4.1191,4.1191,4.1191,4.1191,4.1191,4.1191,4.1191,4.1191,4.1191,4.1191,4.1113,4.0879,4.1055,4.0642,3.9302,3.9364,3.8728,3.6901,3.6084,3.5649,3.5597,3.5584,3.5565,3.5493,3.4963,3.4694,3.4694,3.4087,3.3842,3.3928,3.4655,3.4981,2.4205,2.419,2.4936,2.8027,2.5538,2.2362,2.2299,2.4521,2.5756,2.2887,2.3298,2.4201,2.4202,2.4194,0.0,0.0,2.3815,0.0,0.0,2.3649,2.3486,2.4194,2.5207,2.6252,2.7358,2.6279,2.6833,3.0008,2.876,2.8766,3.0821,3.1991,3.2456,3.2151,3.3223,3.3807,3.3807,3.3807,3.3606,3.3214,3.3062,3.2562,3.1808,3.1389,3.1411,3.1789,3.1825,3.2366,3.3232,3.3635,3.3785,3.3834,3.4228,3.4514,3.4694,3.4694,3.5053,3.5526,3.5584,3.5637,3.5723,3.5851,3.5918,3.5956,3.6015,3.6055,3.6074,3.6055,3.6035,3.6035,3.6035,3.668,3.7519,3.8398,3.9277,4.0137,4.0976,4.1172,4.1191,4.1191,4.1191,4.1191,4.1191,4.1191,4.1191,4.1191,4.1191,4.1191,4.1191,4.1191,4.0879,4.0039,4.0703,4.0161,3.7604,3.8053,3.7679,3.5853,3.5655,3.5597,3.5603,3.5545,3.5493,3.5493,3.4963,3.4694,3.4694,3.4087,3.3935,3.4218,3.4551,3.4714,2.6811,2.5829,2.4454,2.5543,2.4671,2.3567,2.3579,2.5971,2.7331,2.4213,2.3889,2.4195,2.4203,2.4194,0.0,0.0,0.0,2.3501,0.0,2.3346,2.3277,2.3513,2.4714,2.5674,2.6043,2.5473,2.6053,2.8448,2.741,2.7665,2.9909,3.0414,3.1075,3.205,3.2454,3.304,3.3788,3.3522,3.3332,3.3184,3.2521,3.2073,3.1789,3.1372,3.1252,3.1411,3.1696,3.1986,3.2332,3.3091,3.3411,3.3447,3.4037,3.4439,3.4694,3.4694,3.4926,3.5223,3.5117,3.524,3.543,3.5485,3.569,3.5898,3.5937,3.5957,3.5996,3.5996,3.5996,3.6133,3.6719,3.707,3.7519,3.8398,3.9277,3.998,4.0273,4.0781,4.1191,4.1191,4.1191,4.1191,4.1191,4.1191,4.1191,4.1191,4.1191,4.1191,4.1191,4.0703,4.0234,3.9922,4.0156,3.9747,3.8267,3.7737,3.6953,3.5718,3.5584,3.5545,3.5545,3.5526,3.5493,3.5493,3.5157,3.5135,3.5484,3.4749,3.461,3.5056,3.5,3.4963,2.703,2.6615,2.592,2.5907,2.5914,2.5602,2.4454,2.6255,2.7731,2.6217,2.5153,2.4599,2.4974,2.4584,2.4166,0.0,0.0,0.0,0.0,2.3063,2.3165,2.3045,2.3952,2.4663,2.4782,2.4617,2.5161,2.6811,2.6404,2.685,2.8637,2.9295,3.0089,3.1183,3.1619,3.2329,3.3366,3.3103,3.2954,3.2952,3.2332,3.1897,3.1565,3.1312,3.119,3.123,3.147,3.166,3.1861,3.2631,3.3118,3.3403,3.411,3.4572,3.4813,3.4536,3.444,3.4427,3.4308,3.4528,3.4857,3.4981,3.5301,3.5689,3.5856,3.5937,3.5976,3.5996,3.5996,3.6133,3.6699,3.707,3.7441,3.8008,3.8809,3.9434,3.9434,4.0117,4.0742,4.0742,4.0996,4.1191,4.1191,4.1191,4.1191,4.1191,4.1191,4.1191,4.1191,4.0449,3.9902,3.9902,3.9624,3.9059,3.8109,3.7096,3.6232,3.5603,3.5526,3.5493,3.5493,3.5493,3.5493,3.5493,3.5239,3.5265,3.5608,3.4999,3.4936,3.5359,3.5476,3.5405]},{"header":{"parameterUnit":"m.s-1","parameterCategory":1,"la1":30.6,"la2":29.2853,"lo1":-89.7004,"lo2":-87.6739,"dy":0.0162,"dx":0.0183,"nx":112,"ny":82,"refTime":"2024-08-15T06:00:00:Z","depth":0,"parameterNumber":3,"parameterNumberName":"V-component_of_WINDS"},"data":[0.0,0.0,0.0,0.0,0.0,0.0,0.0,0.0,0.0,0.0,0.0,0.0,0.0,0.0,0.0,0.0,0.0,0.0,0.0,0.0,0.0,0.0,0.0,0.0,0.0,0.0,0.0,0.0,0.0,0.0,0.0,0.0,0.0,0.0,0.0,0.0,0.0,0.0,0.0,0.0,0.0,0.0,0.0,0.0,0.0,0.0,0.0,0.0,0.0,0.0,0.0,0.0,0.0,0.0,0.0,0.0,0.0,0.0,0.0,0.0,0.0,0.0,0.0,0.0,0.0,0.0,0.0,0.0,0.0,0.0,0.0,0.0,0.0,0.0,0.0,0.0,0.0,0.0,0.0,0.0,0.0,0.0,0.0,0.0,0.0,0.0,0.0,0.0,0.0,0.0,0.3473,0.4591,0.4097,0.414,0.5221,0.5797,0.6793,0.8385,0.0,0.0,0.0,0.0,0.0,0.0,0.0,0.0,0.0,0.0,0.0,0.0,0.0,0.0,0.0,0.0,0.0,0.0,0.0,0.0,0.0,0.0,0.0,0.0,0.0,0.0,0.0,0.0,0.0,0.0,0.0,0.0,0.0,0.0,0.0,0.0,0.0,0.0,0.0,0.0,0.0,0.0,0.0,0.0,0.0,0.0,0.0,0.0,0.0,0.0,0.0,0.0,0.0,0.0,0.0,0.0,0.0,0.0,0.0,0.0,0.0,0.0,0.0,0.0,0.0,0.0,0.0,0.0,0.0,0.0,0.0,0.0,0.0,0.0,0.0,0.0,0.0,0.0,0.0,0.0,0.0,0.0,0.0,0.0,0.0,0.0,0.0,0.0,0.0,0.0,0.0,0.0,0.0,0.0,0.0,0.0,0.0,0.0,0.0,0.0,0.0,0.0,0.0,0.0,0.3135,0.3716,0.4077,0.4565,0.526,0.5825,0.698,0.8781,0.0,0.0,0.0,0.0,0.0,0.0,0.0,0.0,0.0,0.0,0.0,0.0,0.0,0.0,0.0,0.0,0.0,0.0,0.0,0.0,0.0,0.0,0.0,0.0,0.0,0.0,0.0,0.0,0.0,0.0,0.0,0.0,0.0,0.0,0.0,0.0,0.0,0.0,0.0,0.0,0.0,0.0,0.0,0.0,0.0,0.0,0.0,0.0,0.0,0.0,0.0,0.0,0.0,0.0,0.0,0.0,0.0,0.0,0.0,0.0,0.0,0.0,0.0,0.0,0.0,0.0,0.0,0.0,0.0,0.0,0.0,0.0,0.0,0.0,0.0,0.0,0.0,0.0,0.0,0.0,0.0,0.0,0.0,0.0,0.0,0.0,0.0,0.0,0.0,0.0,0.0,0.0,0.0,0.0,0.0,0.0,0.0,0.0,0.0,0.0,0.0,0.0,0.0,0.3437,0.3618,0.3595,0.4092,0.4652,0.526,0.5873,0.674,0.8053,0.7824,0.0,0.0,0.0,0.0,0.0,0.0,0.0,0.0,0.0,0.0,0.0,0.0,0.0,0.0,0.0,0.0,0.0,0.0,0.0,0.0,0.0,0.0,0.0,0.0,0.0,0.0,0.0,0.0,0.0,0.0,0.0,0.0,0.0,0.0,0.0,0.0,0.0,0.0,0.0,0.0,0.0,0.0,0.0,0.0,0.0,0.0,0.0,0.0,0.0,0.0,0.0,0.0,0.0,0.0,0.0,0.0,0.0,0.0,0.0,0.0,0.0,0.0,0.0,0.0,0.0,0.0,0.0,0.0,0.0,0.0,0.0,0.0,0.0,0.0,0.0,0.0,0.0,0.0,0.0,0.0,0.0,0.0,0.0,0.0,0.0,0.0,0.0,0.0,0.0,0.0,0.0,0.0,0.0,0.0,0.0,0.0,0.0,0.0,0.0,0.0,0.0,0.0,0.3727,0.3956,0.3612,0.4224,0.4783,0.526,0.5987,0.6727,0.7484,0.7275,0.0,0.0,0.0,0.0,0.0,0.0,0.0,0.0,0.0,0.0,0.0,0.0,0.0,0.0,0.0,0.0,0.0,0.0,0.0,0.0,0.0,0.0,0.0,0.0,0.0,0.0,0.0,0.0,0.0,0.0,0.0,0.0,0.0,0.0,0.0,0.0,0.0,0.0,0.0,0.0,0.0,0.0,0.0,0.0,0.0,0.0,0.0,0.0,0.0,0.0,0.0,0.0,0.0,0.0,0.0,0.0,0.0,0.0,0.0,0.0,0.0,0.0,0.0,0.0,0.0,0.0,0.0,0.0,0.0,0.0,0.0,0.0,0.0,0.0,0.0,0.0,0.0,0.0,0.0,0.0,0.0,0.0,0.0,0.0,0.0,0.0,0.0,0.0,0.0,0.0,0.0,0.0,0.0,0.0,0.0,0.0,0.0,0.0,0.0,0.0,0.0,0.0,0.343,0.3612,0.3622,0.4574,0.526,0.5303,0.6422,0.7334,0.7816,0.7491,0.0,0.0,0.0,0.0,0.0,0.0,0.0,0.0,0.0,0.0,0.0,0.0,0.0,0.0,0.0,0.0,0.0,0.0,0.0,0.0,0.0,0.0,0.0,0.0,0.0,0.0,0.0,0.0,0.0,0.0,0.0,0.0,0.0,0.0,0.0,0.0,0.0,0.0,0.0,0.0,0.0,0.0,0.0,0.0,0.0,0.0,0.0,0.0,0.0,0.0,0.0,0.0,0.0,0.0,0.0,0.0,0.0,0.0,0.0,0.0,0.0,0.0,0.0,0.0,0.0,0.0,0.0,0.0,0.0,0.0,0.0,0.0,0.0,0.0,0.0,0.0,0.0,0.0,0.0,0.0,0.0,0.0,0.0,0.0,0.0,0.0,0.0,0.0,0.0,0.0,0.0,0.0,0.0,0.0,0.0,0.0,0.0,0.0,0.0,0.0,0.0,0.0,0.3307,0.3516,0.3568,0.4268,0.4913,0.5265,0.6073,0.6878,0.7539,0.0,0.0,0.0,0.0,0.0,0.0,0.0,0.0,0.0,0.0,0.0,0.0,0.0,0.0,0.0,0.0,0.0,0.0,0.0,0.0,0.0,0.0,0.0,0.0,0.0,0.0,0.0,0.0,0.0,0.0,0.0,0.0,0.0,0.0,0.0,0.0,0.0,0.0,0.0,0.0,0.0,0.0,0.0,0.0,0.0,0.0,0.0,0.0,0.0,0.0,0.0,0.0,0.0,0.0,0.0,0.0,0.0,0.0,0.0,0.0,0.0,0.0,0.0,0.0,0.0,0.0,0.0,0.0,0.0,0.0,0.0,0.0,0.0,0.0,0.0,0.0,0.0,0.0,0.0,0.0,0.0,0.0,0.0,0.0,0.0,0.0,0.0,0.0,0.0,0.0,0.0,0.0,0.0,0.0,0.0,0.0,0.0,0.0,0.0,0.0,0.0,0.0,0.3069,0.3297,0.3506,0.3568,0.4092,0.4652,0.526,0.5879,0.658,0.7356,0.0,0.0,0.0,0.0,0.0,0.0,0.0,0.0,0.0,0.0,0.0,0.0,0.0,0.0,0.0,0.0,0.0,0.0,0.0,0.0,0.0,0.0,0.0,0.0,0.0,0.0,0.0,0.0,0.0,0.0,0.0,0.0,0.0,0.0,0.0,0.0,0.0,0.0,0.0,0.0,0.0,0.0,0.0,0.0,0.0,0.0,0.0,0.0,0.0,0.0,0.0,0.0,0.0,0.0,0.0,0.0,0.0,0.0,0.0,0.0,0.0,0.0,0.0,0.0,0.0,0.0,0.0,0.0,0.0,0.0,0.0,0.0,0.0,0.0,0.0,0.0,0.0,0.0,0.0,0.0,0.0,0.0,0.0,0.0,0.0,0.0,0.0,0.0,0.0,0.0,0.0,0.0,0.0,0.0,0.0,0.0,0.0,0.0,0.0,0.0,0.0,0.0,0.3083,0.3388,0.3581,0.3581,0.4092,0.4652,0.526,0.5914,0.6594,0.0,0.0,0.0,0.0,0.0,0.0,0.0,0.0,0.0,0.0,0.0,0.0,0.0,0.0,0.0,0.0,0.0,0.0,0.0,0.0,0.0,0.0,0.0,0.0,0.0,0.0,0.0,0.0,0.0,0.0,0.0,0.0,0.0,0.0,0.0,0.0,0.0,0.0,0.0,0.0,0.0,0.0,0.0,0.0,0.0,0.0,0.0,0.0,0.0,0.0,0.0,0.0,0.0,0.0,0.0,0.0,0.0,0.0,0.0,0.0,0.0,0.0,0.0,0.0,0.0,0.0,0.0,0.0,0.0,0.0,0.0,0.0,0.0,0.0,0.0,0.0,0.0,0.0,0.0,0.0,0.0,0.0,0.0,0.0,0.0,0.0,0.0,0.0,0.0,0.0,0.0,0.0,0.0,0.0,0.0,0.0,0.0,0.0,0.0,0.0,0.0,0.0,0.0,0.3083,0.3388,0.3581,0.3581,0.3751,0.4052,0.4609,0.5237,0.5809,0.6306,0.0,0.0,0.0,0.0,0.0,0.0,0.0,0.0,0.0,0.0,0.0,0.0,0.0,0.0,0.0,0.0,0.0,0.0,0.0,0.0,0.0,0.0,0.0,0.0,0.0,0.0,0.0,0.0,0.0,0.0,0.0,0.0,0.0,0.0,0.0,0.0,0.0,0.0,0.0,0.0,0.0,0.0,0.0,0.0,0.0,0.0,0.0,0.0,0.0,0.0,0.0,0.0,0.0,0.0,0.0,0.0,0.0,0.0,0.0,0.0,0.0,0.0,0.0,0.0,0.0,0.0,0.0,0.0,0.0,0.0,0.0,0.0,0.0,0.0,0.0,0.0,0.0,0.0,0.0,0.0,0.0,0.0,0.0,0.0,0.0,0.0,0.0,0.0,0.0,0.0,0.0,0.0,0.0,0.0,0.0,0.0,0.0,0.0,0.0,0.0,0.0,0.0,0.3083,0.3388,0.3581,0.3581,0.3581,0.384,0.4347,0.4739,0.523,0.5863,0.0,0.0,0.0,0.0,0.0,0.0,0.0,0.0,0.0,0.0,0.0,0.0,0.0,0.0,0.0,0.0,0.0,0.0,0.0,0.0,0.0,0.0,0.0,0.0,0.0,0.0,0.0,0.0,0.0,0.0,0.0,0.0,0.0,0.0,0.0,0.0,0.0,0.0,0.0,0.0,0.0,0.0,0.0,0.0,0.0,0.0,0.0,0.0,0.0,0.0,0.0,0.0,0.0,0.0,0.0,0.0,0.0,0.0,0.0,0.0,0.0,0.0,0.0,0.0,0.0,0.0,0.0,0.0,0.0,0.0,0.0,0.0,0.0,0.0,0.0,0.0,0.0,0.0,0.0,0.0,0.0,0.0,0.0,0.0,0.0,0.0,0.0,0.0,0.0,0.0,0.0,0.0,0.0,0.0,0.0,0.0,0.0,0.0,0.0,0.0,0.0,0.0,0.31,0.3398,0.3585,0.3598,0.3588,0.3796,0.4303,0.4391,0.4777,0.567,0.0,0.0,0.0,0.0,0.0,0.0,0.0,0.0,0.0,0.0,0.0,0.0,0.0,0.0,0.0,0.0,0.0,0.0,0.0,0.0,0.0,0.0,0.0,0.0,0.0,0.0,0.0,0.0,0.0,0.0,0.0,0.0,0.0,0.0,0.0,0.0,0.0,0.0,0.0,0.0,0.0,0.0,0.0,0.0,0.0,0.0,0.0,0.0,0.0,0.0,0.0,0.0,0.0,0.0,0.0,0.0,0.0,0.0,0.0,0.0,-0.4031,-0.3823,0.0,0.0,0.0,0.0,0.0,0.0,0.0,0.0,0.0,0.0,0.0,0.0,0.0,0.0,0.0,0.0,0.0,0.0,0.0,0.0,0.0,0.0,0.0,0.0,0.0,0.0,0.0,0.0,0.0,0.0,0.0,0.0,0.0,0.0,0.0,0.0,0.0,0.0,0.0,0.0,0.3206,0.3466,0.3622,0.3734,0.3646,0.3667,0.3751,0.4176,0.4423,0.4392,0.4915,0.0,0.0,0.0,0.0,0.0,0.0,0.0,0.0,0.0,0.0,0.0,0.0,0.0,0.0,0.0,0.0,0.0,0.0,0.0,0.0,0.0,0.0,0.0,0.0,0.0,0.0,0.0,0.0,0.0,0.0,0.0,0.0,0.0,0.0,0.0,0.0,0.0,0.0,0.0,0.0,0.0,0.0,0.0,0.0,0.0,0.0,0.0,0.0,0.0,0.0,0.0,0.0,0.0,0.0,0.0,0.0,0.0,0.0,0.0,-0.546,-0.4925,0.0,0.0,0.0,0.0,0.0,0.0,0.0,0.0,0.0,0.0,0.0,0.0,0.0,0.0,0.0,0.0,0.0,0.0,0.0,0.0,0.0,0.0,0.0,0.0,0.0,0.0,0.0,0.0,0.0,0.0,0.0,0.0,0.0,0.0,0.0,0.0,0.0,0.0,0.0,0.0,0.3259,0.3544,0.371,0.3785,0.3727,0.3653,0.3585,0.3836,0.4019,0.4008,0.4542,0.0,0.0,0.0,0.0,0.0,0.0,0.0,0.0,0.0,0.0,0.0,0.0,0.0,0.0,0.0,0.0,0.0,0.0,0.0,0.0,0.0,0.0,0.0,0.0,0.0,0.0,0.0,0.0,0.0,0.0,0.0,0.0,0.0,0.0,0.0,0.0,0.0,0.0,0.0,0.0,0.0,0.0,0.0,0.0,0.0,0.0,0.0,0.0,0.0,0.0,0.0,0.0,0.0,-0.7024,-0.706,-0.7225,-0.7056,-0.7178,-0.7429,-0.6733,-0.6136,-0.5585,-0.5448,0.0,0.0,0.0,0.0,0.0,0.0,0.0,0.0,0.0,0.0,0.0,0.0,0.0,0.0,0.0,0.0,0.0,0.0,0.0,0.0,0.0,0.0,0.0,0.0,0.0381,0.1012,0.2027,0.0,0.0,0.0,0.0,0.0,0.0,0.0,0.0,0.0,0.0,0.0,0.3346,0.3663,0.3839,0.387,0.3846,0.3775,0.3629,0.3615,0.3727,0.3932,0.4275,0.4603,0.0,0.0,0.0,0.0,0.0,0.0,0.0,0.0,0.0,0.0,0.0,0.0,0.0,0.0,0.0,0.0,0.0,0.0,0.0,0.0,0.0,0.0,0.0,0.0,0.0,0.0,0.0,0.0,0.0,0.0,0.0,0.0,-0.6377,-0.7346,0.0,0.0,0.0,0.0,0.0,0.0,0.0,0.0,0.0,0.0,0.0,0.0,0.0,-0.6902,-0.6954,-0.747,-0.7644,-0.7453,-0.8177,-0.8417,-0.8218,-0.8396,-0.8096,-0.7322,-0.7461,0.0,-0.7503,-0.6858,0.0,0.0,0.0,0.0,0.0,0.0,0.0,0.0,0.0,0.0,0.0,0.0,0.0,0.0,0.0,0.0,0.0,0.0,0.0,0.0,0.0,0.0,0.0,0.0,0.0049,0.0148,0.0339,0.1755,0.3072,0.3184,0.2924,0.2656,0.0,0.0,0.0,0.0,0.0,0.0,0.3693,0.3883,0.4039,0.4123,0.402,0.3927,0.3778,0.3765,0.3749,0.3646,0.4398,0.4868,0.4882,0.5347,0.0,0.0,0.0,0.0,0.0,0.0,0.0,0.0,0.0,0.0,0.0,0.0,0.0,0.0,0.0,0.0,0.0,0.0,0.0,0.0,0.0,0.0,0.0,0.0,0.0,0.0,0.0,0.0,0.0,-0.608,-0.7084,-0.7872,-0.7985,-0.7819,0.0,0.0,0.0,0.0,0.0,0.0,0.0,0.0,0.0,-0.7487,-0.7674,-0.785,-0.8023,-0.8261,-0.8336,-0.8218,-0.8626,-0.8745,-0.8633,-0.8328,-0.7967,-0.749,-0.7203,-0.7128,-0.7127,-0.6721,-0.6471,-0.6266,0.0,0.0,0.0,0.0,-0.3778,-0.3839,-0.3927,-0.3921,-0.3904,-0.3758,0.0,0.0,0.0,0.0,0.0,0.0,0.0,0.0,0.0,0.0,0.0,0.0,0.0,0.0,0.0,0.0707,0.1581,0.2312,0.2941,0.331,0.3058,0.3134,0.0,0.0,0.0,0.3676,0.389,0.4053,0.4123,0.4187,0.4137,0.4036,0.3931,0.3921,0.3894,0.3832,0.4718,0.5168,0.5008,0.5761,0.6129,0.0,0.0,0.0,0.0,0.0,0.0,0.0,0.0,0.0,0.0,0.0,0.0,0.0,0.0,0.0,0.0,0.0,0.0,0.0,0.0,0.0,0.0,0.0,0.0,0.0,0.0,0.0,0.0,-0.7098,-0.8096,-0.8593,-0.916,-0.9301,0.0,0.0,0.0,0.0,0.0,0.0,-0.7372,-0.7582,-0.7871,-0.8119,-0.8366,-0.8616,-0.8798,-0.8804,-0.8804,-0.8804,-0.8804,-0.8804,-0.8758,-0.8228,-0.78,-0.7365,-0.6864,-0.648,-0.6298,-0.6403,-0.6345,-0.6082,-0.5322,-0.4767,-0.4368,-0.4101,-0.4036,-0.4148,-0.4263,-0.4231,-0.4194,-0.4161,-0.406,-0.3996,-0.4018,0.0,0.0,0.0,0.0,0.0,0.0,0.0,0.0,0.0,0.0,0.0,0.0,0.0,0.0256,0.1167,0.2507,0.3463,0.353,0.3622,0.0,0.3494,0.3741,0.3948,0.4013,0.4157,0.4304,0.4304,0.4304,0.4243,0.404,0.4026,0.4063,0.4022,0.5009,0.5518,0.5361,0.6289,0.6684,0.6334,0.0,0.0,0.0,0.0,0.0,0.0,0.0,0.0,0.0,0.0,0.0,0.0,0.0,0.0,0.0,0.0,0.0,0.0,0.0,0.0,0.0,0.0,0.0,0.0,0.0,0.0,0.0,0.0,0.0,-0.9795,-1.0409,0.0,0.0,0.0,0.0,-0.8491,-0.845,-0.8385,-0.8352,-0.833,-0.8464,-0.8738,-0.8783,-0.8803,-0.8804,-0.8804,-0.8804,-0.8804,-0.8804,-0.8804,-0.8804,-0.8752,-0.7996,-0.6642,-0.6588,-0.6199,-0.5597,-0.6303,-0.6563,-0.6499,-0.5774,-0.545,-0.535,-0.47,-0.4488,-0.4494,-0.4505,-0.4362,-0.4217,-0.4399,-0.4348,-0.4236,-0.4435,-0.4182,0.0,0.0,0.0,0.0,0.0,0.0,0.0,0.0,0.0,0.0,0.0,0.0,0.0,0.0102,0.1254,0.2707,0.3956,0.0,0.3995,0.3988,0.4073,0.4177,0.4184,0.4362,0.4508,0.4508,0.4508,0.4392,0.4197,0.4184,0.4123,0.4029,0.5233,0.5955,0.5945,0.693,0.7318,0.6961,0.6126,0.0,0.0,0.0,0.0,0.0,0.0,0.0,0.0,0.0,0.0,0.0,0.0,0.0,0.0,0.0,0.0,0.0,0.0,0.0,0.0,0.0,0.0,0.0,0.0,0.0,0.0,0.0,0.0,-1.0469,-1.1221,0.0,-1.1324,-1.1166,-1.1075,-1.108,-1.0905,-1.0828,-1.0764,-1.028,-0.9977,-0.9895,-0.9348,-0.899,-0.8804,-0.8804,-0.8804,-0.8804,-0.8804,-0.8804,-0.8804,-0.8315,-0.7563,-0.6588,-0.6091,-0.5492,-0.4897,-0.5117,-0.5496,-0.5869,-0.5597,-0.5218,-0.4842,-0.457,-0.4519,-0.4519,-0.4519,-0.4429,-0.4395,-0.4501,-0.4429,-0.4385,-0.4497,-0.4415,-0.3899,-0.1965,-0.0711,0.0,0.0,0.0,0.0,0.0,0.0,0.0,0.0,0.0,0.0,0.0,0.1185,0.2677,0.4157,0.4365,0.4273,0.4127,0.429,0.4385,0.4385,0.4429,0.4519,0.4519,0.4519,0.4494,0.4392,0.4385,0.4362,0.4307,0.5444,0.6067,0.5878,0.6921,0.7328,0.6985,0.6533,0.6075,0.0,0.0,0.0,0.0,0.0,0.0,0.0,0.0,0.0,0.0,0.0,0.0,0.0,0.0,0.0,0.0,0.0,0.0,0.0,0.0,0.0,0.0,0.0,0.0,0.0,-1.0453,-1.1331,-1.1168,-1.2044,-1.2617,-1.2651,-1.2588,-1.2591,-1.2712,-1.252,-1.2225,-1.1746,-1.1214,-1.0678,-1.0228,-0.9688,-0.9288,-0.9109,-0.9109,-0.9109,-0.9109,-0.9126,-0.9105,-0.9098,-0.8599,-0.7982,-0.725,-0.6392,-0.5677,-0.5053,-0.4671,-0.4764,-0.5246,-0.5187,-0.4893,-0.4519,-0.4519,-0.4519,-0.4519,-0.4519,-0.4519,-0.4519,-0.4519,-0.4519,-0.4519,-0.4519,-0.4473,-0.4314,-0.3244,-0.1563,0.0,0.0,0.0,0.0,0.0,0.0,0.0,0.0,0.0,0.0,0.0,0.1174,0.2662,0.426,0.4529,0.4429,0.4334,0.4402,0.4519,0.4519,0.4519,0.4519,0.4519,0.4519,0.4519,0.4519,0.4519,0.4519,0.4519,0.558,0.6121,0.5933,0.6923,0.7419,0.7174,0.6787,0.6384,0.5992,0.0,0.0,0.0,0.0,0.0,0.0,0.0,0.0,0.0,0.0,0.0,0.0,0.0,0.0,0.0,0.0,0.0,0.0,0.0,0.0,0.0,0.0,0.0,-1.0795,-1.1582,-1.2139,-1.1913,-1.284,-1.3509,-1.3559,-1.3912,-1.3877,-1.3245,-1.3192,-1.2538,-1.1133,-1.1011,-1.061,-0.9813,-0.972,-0.9713,-0.9713,-0.9713,-0.9713,-0.972,-0.9692,-0.9706,-0.9706,-0.9693,-0.9266,-0.8481,-0.7542,-0.676,-0.6075,-0.4989,-0.4565,-0.468,-0.458,-0.4519,-0.4519,-0.4519,-0.4519,-0.4519,-0.4519,-0.4519,-0.4519,-0.4519,-0.4519,-0.4519,-0.4519,-0.4477,-0.4494,-0.4494,-0.2408,-0.0112,-0.0,0.0,0.0,0.0,0.0,0.0,0.0,0.0,0.0,0.0,0.1174,0.2625,0.4209,0.4477,0.4519,0.4519,0.4519,0.0,0.4519,0.4519,0.4519,0.4519,0.4519,0.4519,0.4519,0.4519,0.4515,0.4512,0.5523,0.6186,0.6176,0.7013,0.7475,0.7513,0.6907,0.6621,0.66,0.0,0.0,0.0,0.0,0.0,0.0,0.0,0.0,0.0,0.0,0.0,0.0,0.0,0.0,0.0,0.0,0.0,0.0,0.0,0.0,0.0,-1.2266,-1.2608,-1.2292,-1.2995,-1.3549,-1.3489,-1.3719,-1.4067,-1.4427,-1.4522,-1.467,-1.4734,-1.4763,-1.4601,-1.4194,-1.3059,-1.2219,-1.1848,-1.0595,-0.9873,-0.9732,-0.9672,-0.9672,-0.9672,-0.9684,-0.9692,-0.968,-0.9676,-0.8958,-0.7657,-0.7355,-0.6482,-0.5207,-0.4946,-0.4819,-0.483,-0.4565,-0.4519,-0.4519,-0.4519,-0.4519,-0.4519,-0.4519,-0.4519,-0.4519,-0.4519,-0.4519,-0.4519,-0.4519,-0.4522,-0.4525,-0.4525,-0.3907,-0.2732,-0.056,0.0,0.0,0.0,0.0,0.0,0.0,0.0,0.0,0.0,0.0335,0.1452,0.4039,0.4484,0.4473,0.4519,0.4519,0.4519,0.4519,0.4519,0.4519,0.4519,0.4519,0.4519,0.4519,0.4519,0.4419,0.4314,0.5096,0.5724,0.6022,0.6817,0.7313,0.7513,0.7352,0.7134,0.0,0.0,0.0,0.0,0.0,0.0,0.0,0.0,0.0,0.0,0.0,0.0,0.0,0.0,0.0,0.0,0.0,0.0,0.0,0.0,0.0,0.0,-1.3164,-1.3682,-1.3682,-1.3936,-1.418,-1.437,-1.439,-1.4557,-1.5015,-1.5244,-1.5436,-1.5704,-1.585,-1.5642,-1.4896,-1.3967,-1.3059,-1.2153,-1.1059,-1.0408,-1.0268,-1.0129,-1.0059,-1.0059,-1.0059,-1.0059,-1.0046,-1.0065,-0.9394,-0.8135,-0.7653,-0.6755,-0.5645,-0.513,-0.4927,-0.4972,0.0,0.0,0.0,0.0,-0.4574,-0.4574,-0.4519,-0.4519,-0.4519,-0.4574,-0.4574,-0.4577,-0.4632,-0.4688,-0.4688,-0.4632,-0.4076,-0.3299,-0.2188,-0.0954,0.0,0.0,0.0,0.0,0.0,0.0,0.0,0.0,0.0,0.0,0.2293,0.3638,0.4484,0.4477,0.4477,0.4473,0.4525,0.4525,0.4522,0.4519,0.4519,0.4519,0.4519,0.4519,0.0,0.0,0.0,0.5544,0.632,0.6744,0.0,0.0,0.0,0.0,0.0,0.0,0.0,0.0,1.0678,1.1869,0.0,0.0,0.0,0.0,0.0,0.0,0.0,0.0,0.0,0.0,0.0,0.0,0.0,0.0,0.0,0.0,-1.4043,-1.4805,-1.4844,-1.4531,-1.4449,-1.4834,-1.4939,-1.511,-1.543,-1.5884,-1.6159,-1.6179,-1.6534,-1.6042,-1.4497,-1.4327,0.0,0.0,0.0,-1.1134,-1.1059,-1.0771,-1.0631,-1.0631,-1.0624,-1.0624,-1.0624,-1.0624,-1.0059,-0.9087,-0.8125,-0.7302,-0.649,-0.541,-0.5051,-0.5114,-0.4933,-0.4893,-0.4911,-0.4738,-0.4717,-0.4692,-0.4608,0.0,0.0,-0.4675,-0.471,-0.4724,-0.4882,-0.4912,-0.4911,-0.4854,-0.3567,-0.2475,-0.3669,-0.2023,0.0,0.0,0.0,0.0,0.0,0.0,0.0,0.0,0.0,0.0,0.0,0.2237,0.4039,0.4209,0.4268,0.4265,0.4252,0.4366,0.4477,0.4522,0.4519,0.0,0.4519,0.4519,0.4512,0.4494,0.4888,0.5599,0.659,0.6801,0.7206,0.7832,0.7968,0.8143,0.8427,0.841,0.8901,0.9791,1.0444,1.1661,0.0,0.0,0.0,0.0,0.0,0.0,0.0,0.0,0.0,0.0,0.0,0.0,0.0,0.0,0.0,-1.4238,-1.4619,-1.4902,-1.5244,-1.5524,-1.5581,-1.5321,-1.5631,-1.588,-1.599,-1.6311,-1.6586,-1.6609,-1.6631,-1.655,-1.6223,-1.561,-1.4751,-1.3611,-1.287,-1.2144,-1.1361,-1.1059,-1.0918,-1.0918,-1.0701,0.0,-1.0624,-1.0624,-0.9768,-0.826,-0.8012,-0.7061,-0.5613,-0.5384,-0.5308,-0.5291,-0.504,-0.4915,-0.4922,-0.4855,-0.4843,-0.4863,-0.4842,-0.4807,-0.4845,-0.4873,-0.4865,-0.4839,-0.4905,-0.4925,0.0,-0.4855,-0.3575,-0.2023,-0.1122,-0.0449,0.0,0.0,0.0,0.0,0.0,0.0,0.0,0.0,0.0,0.0,0.0,0.0503,0.1283,0.2456,0.2625,0.2625,0.2623,0.3744,0.448,0.4477,0.4522,0.4519,0.4519,0.4519,0.4412,0.4244,0.4883,0.5362,0.558,0.6832,0.7477,0.7422,0.8204,0.855,0.8427,0.8611,0.9103,0.9806,1.0449,1.1538,0.0,0.0,0.0,0.0,0.0,0.0,0.0,0.0,0.0,0.0,0.0,-1.2471,-1.335,0.0,-1.4355,-1.5,-1.5487,-1.5841,-1.6049,-1.6236,-1.6212,-1.58,-1.6128,-1.6416,-1.6421,-1.6778,-1.7035,-1.7079,-1.7213,-1.7126,-1.6674,-1.58,-1.4901,-1.3955,-1.2889,-1.2182,-1.1669,-1.1348,-1.1209,-1.1206,-1.1059,-1.0989,-1.0989,-1.0989,-1.0199,-0.8811,-0.8385,-0.7371,-0.6047,-0.5564,-0.5428,-0.5352,-0.5247,-0.5137,-0.5156,-0.502,-0.5,-0.4964,-0.4904,-0.49,-0.4935,-0.4961,-0.4974,-0.5032,-0.513,-0.5125,-0.5156,-0.5156,-0.387,-0.2041,-0.0432,0.0,0.0,0.0,0.0,0.0,0.0,0.0,0.0,0.0,0.0,0.0,0.0,0.0,0.0224,0.1006,0.1118,0.1117,0.1115,0.2399,0.3633,0.4421,0.4525,0.4519,0.4519,0.4519,0.4433,0.4362,0.4674,0.5042,0.5407,0.6196,0.6689,0.6954,0.7817,0.8199,0.8061,0.8574,0.8956,0.9316,1.0597,1.1734,0.0,0.0,0.0,0.0,0.0,0.0,0.0,-1.2224,-1.2402,-1.3623,-1.3877,-1.4014,-1.4434,-1.5068,-1.5566,-1.5654,-1.6256,-1.6715,-1.6693,-1.6787,-1.6739,-1.6367,-1.6635,-1.6833,-1.6868,-1.7281,-1.7552,-1.7552,-1.7833,-1.7658,-1.6934,-1.6156,-1.5181,-1.4005,-1.3071,-1.2385,-1.197,-1.1643,-1.1507,-1.1493,-1.1414,-1.1414,-1.1414,-1.1414,-1.0817,-0.9741,-0.8659,-0.7564,-0.6487,-0.5796,-0.5452,-0.5494,-0.5504,-0.5511,-0.5467,-0.5249,-0.5156,-0.5156,-0.502,-0.5017,-0.502,-0.5153,-0.5156,-0.5156,-0.5359,-0.5428,-0.5428,-0.5428,-0.4102,-0.2296,-0.0472,0.0,0.0,0.0,0.0,0.0,0.0,0.0,0.0,0.0,0.0,0.0,0.0,0.0,0.0,0.0,0.0,0.0,0.0,0.1563,0.313,0.4373,0.4477,0.4522,0.4522,0.4519,0.4519,0.4519,0.4519,0.4732,0.5269,0.5433,0.576,0.6367,0.7235,0.7723,0.7723,0.8427,0.8838,0.8898,1.0554,1.1766,-1.4533,-1.3923,-1.3326,-1.3851,-1.3074,-1.2646,0.0,-1.4394,-1.4102,-1.501,-1.5195,-1.5332,-1.5762,-1.5988,-1.6123,-1.6523,-1.6661,-1.6713,-1.6723,-1.7092,-1.7305,-1.7272,-1.7283,-1.7292,-1.729,-1.7658,-1.792,-1.792,-1.7998,-1.793,-1.7833,-1.7745,-1.6867,-1.5081,-1.4904,-1.3999,-1.2298,-1.197,-1.1825,-1.186,-1.1537,-1.1373,-1.1373,-1.1373,-1.0888,-0.9952,-0.8187,-0.6849,-0.5877,-0.5816,-0.5745,-0.5734,-0.579,-0.5741,-0.5699,-0.5491,-0.5362,-0.5362,-0.5359,-0.5359,-0.5359,-0.5362,-0.5362,-0.5362,-0.5362,-0.5428,-0.5428,-0.5428,-0.4102,-0.2296,-0.0472,0.0,0.0,0.0,0.0,0.0,0.0,0.0,0.0,0.0,0.0,0.0,0.0,0.0,0.0,0.0,0.0,0.0,0.0,0.2467,0.4284,0.4511,0.4501,0.4487,0.4477,0.4522,0.4519,0.4519,0.4519,0.4515,0.4625,0.5164,0.5542,0.5597,0.7009,0.7723,0.7723,0.8427,0.8938,0.9192,1.0184,1.0977,-1.626,-1.5353,-1.451,-1.5142,-1.5018,-1.5001,-1.5645,-1.5906,-1.6046,-1.6166,-1.6182,-1.624,-1.6416,-1.666,-1.6894,-1.708,-1.7301,-1.7429,-1.7461,-1.7611,-1.7725,-1.7746,-1.7745,-1.7745,-1.7745,-1.792,-1.8008,-1.8008,-1.8008,-1.8008,-1.8008,-1.6943,-1.5987,-1.5221,-1.4122,-1.3138,-1.2305,-1.2218,-1.2137,-1.2137,-1.197,-1.189,-1.189,-1.189,-1.1019,-0.9489,-0.8471,-0.7218,-0.5826,-0.5785,-0.5782,-0.5783,-0.5832,-0.5803,-0.5788,-0.5698,-0.5616,-0.5494,-0.5494,-0.5437,-0.5428,-0.5428,-0.5428,-0.5428,-0.5428,-0.5428,-0.5428,-0.5428,-0.4102,-0.2296,-0.0472,0.0,0.0,0.0,0.0,0.0,0.0,0.0,0.0,0.0,0.0,0.0,0.0,0.0,0.0,0.0,0.0,0.0,0.0,0.1095,0.2231,0.3086,0.3135,0.3527,0.4432,0.448,0.4473,0.4473,0.4522,0.4519,0.4519,0.4787,0.4893,0.4893,0.5923,0.6752,0.7334,0.8117,0.8818,0.9506,1.1027,1.1841,-1.758,-1.6731,-1.6016,-1.645,-1.6736,-1.6806,-1.6535,-1.6961,-1.7328,-1.7111,-1.709,-1.709,-1.709,-1.7344,-1.7559,-1.7559,-1.7812,-1.8008,-1.8008,-1.8008,-1.8008,-1.8008,-1.8008,-1.8008,-1.8008,-1.8008,-1.8057,-1.8174,-1.8164,-1.8252,-1.834,-1.7104,-1.6233,-1.5975,-1.4269,-1.3281,-1.2977,-1.2721,-1.2553,-1.2553,-1.2472,-1.2466,-1.2466,-1.2305,-1.1178,-0.9174,-0.8904,-0.7687,-0.5941,-0.5941,-0.5941,-0.5928,-0.5944,-0.5966,-0.5966,-0.5966,-0.5801,-0.5647,-0.5647,-0.5576,-0.5538,-0.5456,-0.5428,-0.5428,-0.5428,-0.5428,-0.5428,-0.5428,-0.4434,-0.2896,-0.0606,0.0,0.0,0.0,0.0,0.0,0.0,0.0,0.0,0.0,0.0,0.0,0.0,0.0,0.0,0.0,0.0,0.0,0.0,0.0,0.0406,0.1456,0.1618,0.2065,0.319,0.3635,0.4027,0.4477,0.4567,0.4587,0.458,0.4565,0.4589,0.4589,0.5309,0.6163,0.7177,0.7926,0.8813,0.9865,1.1475,1.2287,-1.8144,-1.8069,-1.8024,-1.8205,-1.7821,-1.7381,-1.7333,-1.7409,-1.7527,-1.7881,-1.7969,-1.7969,-1.7969,-1.7978,-1.7988,-1.7988,-1.8008,-1.8008,-1.8008,-1.8008,-1.8008,-1.8008,-1.8008,-1.8008,-1.8008,-1.8008,-1.8184,-1.8584,-1.8606,-1.8804,-1.9211,-1.9241,-1.8751,-1.7833,-1.6701,-1.5651,-1.4696,-1.366,-1.3145,-1.3145,-1.2889,-1.2802,-1.2802,-1.2466,-1.1184,-0.9261,-0.9316,-0.8115,-0.6261,-0.6261,-0.6261,-0.6261,-0.6254,-0.6251,-0.6251,-0.6251,-0.6057,-0.5793,-0.5793,-0.5793,-0.5742,-0.5663,-0.5568,-0.5564,-0.5428,-0.5428,-0.5428,-0.5428,-0.5362,-0.4489,-0.0942,0.0,0.0,0.0,0.0,0.0,0.0,0.0,0.0,0.0,0.0,0.0,0.0,0.0,0.0,0.0,0.0,0.0,0.0,0.0,0.0,0.0056,0.0056,0.0112,0.0112,0.1451,0.2903,0.4421,0.4676,0.4755,0.4684,0.4826,0.4904,0.4904,0.5619,0.6391,0.7279,0.8047,0.8961,1.01,1.0921,1.1503,-1.9535,-1.9478,-1.914,-1.9231,-1.9177,-1.8851,-1.7979,-1.8251,-1.867,-1.8813,-1.8844,-1.8844,-1.8844,-1.8844,-1.8654,-1.8066,-1.8203,-1.8388,-1.8388,-1.8662,-1.8751,-1.8466,-1.8662,-1.8741,-1.8456,-1.8183,-1.8184,-1.8603,-1.8616,-1.8805,-1.9295,-1.8705,-1.8247,-1.7915,-1.6187,-1.5149,-1.4779,-1.3756,-1.3211,-1.3198,-1.3113,-1.3058,-1.3058,-1.2728,-1.1534,-0.9535,-0.9413,-0.8174,-0.6338,-0.6338,-0.6338,-0.6338,-0.6338,-0.6338,-0.6338,-0.6338,-0.6196,-0.6091,-0.5986,-0.5884,-0.5786,-0.5758,-0.5752,-0.5747,-0.5677,-0.5634,-0.5564,-0.5564,-0.5495,-0.4827,-0.2424,-0.0877,0.0,0.0,0.0,0.0,0.0,0.0,0.0,0.0,0.0,0.0,0.0,0.0,0.0,0.0,0.0,0.0,0.0,0.0,0.0,0.0,0.0,0.0,0.0,0.0477,0.1488,0.3218,0.4222,0.4793,0.4843,0.4891,0.4918,0.4918,0.5157,0.6046,0.7568,0.7812,0.8807,1.0477,1.1247,1.166,-2.0096,-1.9965,-1.9402,-1.9563,-1.9679,-1.9372,-1.8267,-1.8654,-1.9191,-1.8715,-1.8871,-1.894,-1.8459,-1.8373,-1.8289,-1.8027,-1.8203,-1.8487,-1.8805,-1.9112,-1.9199,-1.8916,-1.9133,-1.918,-1.8867,-1.8634,-1.8598,-1.9014,-1.9089,-1.9274,-1.9762,-1.9209,-1.8848,-1.8889,-1.6788,-1.572,-1.572,-1.4271,-1.3425,-1.3315,-1.3313,-1.329,-1.3199,-1.3024,-1.2035,-1.0368,-0.9756,-0.8558,-0.6958,-0.657,-0.6335,-0.6332,-0.6281,-0.6291,-0.6329,-0.6281,-0.6338,-0.6247,-0.6146,-0.6047,-0.5956,-0.5901,-0.5844,-0.5834,-0.579,-0.573,-0.5637,-0.5666,-0.5564,-0.4964,-0.3171,-0.1349,0.0,0.0,0.0,0.0,0.0,0.0,0.0,0.0,0.0,0.0,0.0,0.0,0.0,0.0,0.0,0.0,0.0,0.0,0.0,0.0,0.0,0.0,0.0,0.0,0.0493,0.1659,0.3794,0.5013,0.5003,0.505,0.5077,0.5077,0.5077,0.5805,0.7356,0.7676,0.8581,1.0174,1.0975,1.1344,-1.991,-1.9606,-1.9072,-1.9337,-1.9351,-1.9075,-1.8241,-1.8654,-1.8889,-1.7714,-1.8104,-1.8248,-1.6957,-1.6792,-1.7096,-1.7852,-1.8037,-1.8369,-1.918,-1.9326,-1.9338,-1.9329,-1.9407,-1.9363,-1.938,-1.9425,-1.9589,-1.9969,-1.9939,-2.0103,-2.0566,-2.0566,-2.0566,-2.0566,-1.8437,-1.7271,-1.7315,-1.5148,-1.3899,-1.3613,-1.3613,-1.351,-1.3231,-1.3231,-1.2667,-1.1647,-1.0487,-0.9346,-0.8149,-0.7038,-0.6561,-0.6471,-0.6335,-0.6363,-0.6458,-0.6322,-0.6268,-0.6338,-0.6338,-0.6338,-0.6237,-0.6091,-0.604,-0.6013,-0.5867,-0.5823,-0.5837,-0.5834,-0.5614,-0.5001,-0.3175,-0.1355,0.0,0.0,0.0,0.0,0.0,0.0,0.0,0.0,0.0,0.0,0.0,0.0,0.0,0.0,0.0,0.0,0.0,0.0,0.0,0.0,0.0,0.0,0.0,0.0,0.0,0.0,0.3301,0.524,0.5095,0.5291,0.5428,0.5428,0.5428,0.5815,0.6719,0.7567,0.842,0.9338,1.0174,1.0624,-2.0053,-2.0467,-2.0566,-2.0318,-1.9996,-1.9541,-1.8676,-1.8192,-1.7951,-1.8263,-1.8635,-1.8605,-1.7423,-1.8139,-1.8628,-1.7688,-1.8346,-1.9122,-1.9677,-2.0029,-2.0139,-1.982,-2.0281,-2.0586,-2.0304,-2.0868,-2.1302,-2.1367,-2.0469,-2.0103,-2.0566,-2.0566,-2.0566,-2.0566,-1.8437,-1.7271,-1.7315,-1.5148,-1.4082,-1.399,-1.399,-1.3899,-1.3893,-1.3607,-1.2958,-1.2008,-1.1468,-1.016,-0.8333,-0.8008,-0.7445,-0.6637,-0.6603,-0.6539,-0.6468,-0.643,-0.6349,-0.6338,-0.6338,-0.6338,-0.6254,-0.6213,-0.6203,-0.6196,-0.6156,-0.6066,-0.597,-0.5972,-0.58,-0.5261,-0.3239,-0.136,0.0,0.0,0.0,0.0,0.0,0.0,0.0,0.0,0.0,0.0,0.0,0.0,0.0,0.0,0.0,0.0,0.0,0.0,0.0,0.0,0.0,0.0,0.0,0.0,0.0,0.0,0.2112,0.3982,0.5252,0.5348,0.5428,0.5428,0.5428,0.5815,0.6719,0.7567,0.842,0.9338,1.0174,1.0624,-2.0225,-2.0418,-2.0338,-2.0053,-1.9707,-1.9142,-1.8301,-1.7972,-1.7708,-1.7093,-1.7525,-1.7608,-1.6208,-1.6946,-1.7636,-1.715,-1.8182,-1.9184,-1.9805,-2.0264,-2.0459,-2.0246,-2.0771,-2.1076,-2.0876,-2.1477,-2.1912,-2.1912,-2.1222,-2.0862,-2.1131,-2.1181,-2.1181,-2.1181,-1.8935,-1.7254,-1.6117,-1.486,-1.4186,-1.4088,-1.4088,-1.4088,-1.4088,-1.3899,-1.3529,-1.2927,-1.2294,-1.0925,-0.9261,-0.8774,-0.7871,-0.6793,-0.6725,-0.6688,-0.6658,-0.6522,-0.642,-0.6346,-0.6281,-0.6302,-0.6342,-0.6281,-0.6338,-0.6338,-0.6338,-0.6257,-0.6103,-0.6103,-0.6099,-0.5564,-0.3453,-0.1433,0.0,0.0,-0.1415,-0.274,-0.2763,-0.1339,0.0,0.0,0.0,0.0,0.0,0.0,0.0,0.0,0.0,0.0,0.0,0.0,0.0,0.0,0.0,0.0,0.0,0.0,0.0,0.0,0.0938,0.2678,0.5316,0.5376,0.5432,0.5428,0.5428,0.5624,0.6137,0.7377,0.8221,0.8748,1.004,1.0628,-2.0234,-1.9928,-1.9375,-1.9375,-1.9043,-1.8506,-1.7656,-1.788,-1.7647,-1.5357,-1.5716,-1.6022,-1.435,-1.4851,-1.5802,-1.6514,-1.7668,-1.8812,-1.9774,-2.0304,-2.0635,-2.0673,-2.1083,-2.135,-2.1383,-2.178,-2.2098,-2.2098,-2.2083,-2.1977,-2.1868,-2.1868,-2.1758,-2.1431,-1.9491,-1.7188,-1.46,-1.4542,-1.4375,-1.4179,-1.4088,-1.4088,-1.4088,-1.4088,-1.4088,-1.3997,-1.3027,-1.1776,-1.0317,-0.94,-0.8138,-0.6943,-0.681,-0.6827,-0.6898,-0.663,-0.6519,-0.6485,-0.6363,-0.64,-0.6474,-0.6315,-0.6352,-0.6285,-0.6345,-0.6338,-0.6338,-0.6338,-0.6338,-0.5873,-0.4006,-0.1806,0.0,0.0,-0.3229,-0.626,-0.6318,-0.3003,0.0,0.0,0.0,0.0,0.0,0.0,0.0,0.0,0.0,0.0,0.0,0.0,0.0,0.0,0.0,0.0,0.0,0.0,0.0,0.0,0.0,0.154,0.4916,0.5249,0.5372,0.5428,0.5428,0.5428,0.5428,0.7055,0.7897,0.8027,0.9652,1.0651,-1.9782,-1.987,-1.9805,-1.9805,-1.9482,-1.8945,-1.8096,-1.7189,-1.6276,-1.5498,-1.5375,-1.506,-1.3856,-1.5083,-1.6267,-1.6215,-1.7285,-1.8531,-1.9717,-2.0327,-2.0678,-2.1035,-2.1808,-2.2311,-2.2293,-2.2678,-2.2911,-2.2911,-2.2881,-2.259,-2.1912,-2.1902,-2.1019,-1.9067,-1.8636,-1.7305,-1.49,-1.4663,-1.4473,-1.4467,-1.4186,-1.4088,-1.4088,-1.4088,-1.4088,-1.4088,-1.3906,-1.2577,-1.055,-1.0383,-0.9005,-0.7102,-0.7075,-0.7007,-0.6922,-0.6868,-0.677,-0.6658,-0.663,-0.6641,-0.6617,-0.6349,-0.6339,-0.6413,-0.6295,-0.6338,-0.6338,-0.6338,-0.6338,-0.6183,-0.5873,-0.2895,0.0,0.0,-0.3229,-0.626,-0.6318,-0.3001,0.0,0.0,0.0,0.0,0.0,0.0,0.0,0.0,0.0,0.0,0.0,0.0,0.0,0.0,0.0,0.0,0.0,0.0,0.0,0.0,0.0,0.0937,0.3082,0.4631,0.5372,0.5428,0.5428,0.5428,0.5428,0.64,0.7307,0.8027,0.9069,1.0064,-1.9746,-2.0078,-2.0195,-1.9971,-1.9424,-1.8603,-1.7295,-1.6338,-1.541,-1.4316,-1.4188,-1.4063,-1.3312,-1.4297,-1.5275,-1.538,-1.6494,-1.7774,-1.9058,-1.9809,-2.0476,-2.1124,-2.1952,-2.2473,-2.2495,-2.2814,-2.3135,-2.3135,-2.3135,-2.2921,-2.2562,-2.2562,-2.1434,-1.9025,-1.8952,-1.7793,-1.5197,-1.5068,-1.4791,-1.4473,-1.4375,-1.4271,-1.4088,-1.4088,-1.4088,-1.4088,-1.4088,-1.2778,-1.0611,-1.0611,-0.9226,-0.7139,-0.7139,-0.7099,-0.7031,-0.6956,-0.6831,-0.6702,-0.6702,-0.6702,-0.6664,-0.6441,-0.6417,-0.6444,-0.6302,-0.6338,-0.6338,-0.6338,-0.6338,-0.6109,-0.5416,-0.3454,-0.1887,-0.2992,-0.401,-0.4951,-0.6077,-0.3851,-0.1278,-0.0223,0.0,0.0,0.0,0.0,0.0,0.0,0.0,0.0,0.0,0.0,0.0,0.0,0.0,0.0,0.0,0.0,0.0,0.0,0.0,0.0805,0.2611,0.4434,0.5379,0.5428,0.5428,0.5428,0.5428,0.6268,0.6915,0.7377,0.881,0.9874,-1.9668,-2.0029,-2.0185,-1.9746,-1.9062,-1.8076,-1.6436,-1.5654,-1.4844,-1.333,-1.3203,-1.3271,-1.2939,-1.3496,-1.417,-1.4697,-1.5801,-1.707,-1.8437,-1.944,-2.0333,-2.1212,-2.2112,-2.2669,-2.2669,-2.2921,-2.3135,-2.3135,-2.3135,-2.3135,-2.3135,-2.3135,-2.2001,-1.9564,-1.9502,-1.8233,-1.5514,-1.5406,-1.516,-1.4656,-1.4627,-1.4487,-1.4329,-1.4229,-1.4182,-1.4175,-1.4115,-1.2948,-1.095,-1.095,-0.957,-0.7489,-0.7489,-0.7316,-0.7126,-0.7014,-0.6898,-0.6797,-0.6797,-0.6797,-0.6763,-0.658,-0.6522,-0.6488,-0.6315,-0.6338,-0.6338,-0.6338,-0.6338,-0.6032,-0.4953,-0.4247,-0.409,-0.5288,-0.4706,-0.4219,-0.5914,-0.4645,-0.2509,-0.0381,0.0,0.0,0.0,0.0,0.0,0.0,0.0,0.0,0.0,0.0,0.0,0.0,0.0,0.0,0.0,0.0,0.0,0.0,0.0,0.0605,0.2075,0.4233,0.5386,0.5432,0.5396,0.541,0.541,0.6163,0.6622,0.6783,0.8601,0.9701,-1.9228,-1.9375,-1.9307,-1.8867,-1.8408,-1.7715,-1.6367,-1.543,-1.458,-1.3643,-1.3174,-1.293,-1.2891,-1.3262,-1.3828,-1.4648,-1.5537,-1.6719,-1.8398,-1.9701,-2.0837,-2.1717,-2.2562,-2.3038,-2.3038,-2.3047,-2.3135,-2.3135,-2.3135,-2.3135,-2.3135,-2.3135,-2.2001,-1.9564,-1.9502,-1.8343,-1.5825,-1.5514,-1.5354,-1.5343,-1.5033,-1.4963,-1.4922,-1.4588,-1.4482,-1.4469,-1.4202,-1.3379,-1.2157,-1.2157,-1.0783,-0.8715,-0.8715,-0.8105,-0.7139,-0.7126,-0.7112,-0.7099,-0.7099,-0.7099,-0.7054,-0.677,-0.6678,-0.6627,-0.6346,-0.6338,-0.6338,-0.6338,-0.6338,-0.6261,-0.6109,-0.6028,-0.5553,-0.3822,-0.4768,-0.6041,-0.6295,-0.4616,-0.2492,-0.039,0.0,0.0,0.0,0.0,0.0,0.0,0.0,0.0,0.0,0.0,0.0,0.0,0.0,0.0,0.0,0.0,0.0,0.0,0.0,0.0067,0.0268,0.3558,0.5389,0.5376,0.5504,0.5569,0.5569,0.5768,0.6246,0.6916,0.8146,0.9238,-1.8779,-1.9082,-1.918,-1.874,-1.8135,-1.7285,-1.5977,-1.501,-1.415,-1.3301,-1.2998,-1.2881,-1.2881,-1.3018,-1.3408,-1.4258,-1.4678,-1.5508,-1.7181,-1.8379,-1.957,-2.0956,-2.1821,-2.2578,-2.3086,-2.3135,-2.3135,-2.3135,-2.3135,-2.3135,-2.3135,-2.3135,-2.2339,-2.0649,-1.9845,-1.8689,-1.6918,-1.6048,-1.5514,-1.5399,-1.5259,-1.5117,-1.4973,-1.4877,-1.4689,-1.4509,-1.4396,-1.3538,-1.2328,-1.2328,-1.1381,-0.9923,-0.9923,-0.9662,-0.9226,-0.9226,-0.8723,-0.8049,-0.8154,-0.7694,-0.6993,-0.6875,-0.6776,-0.6647,-0.6349,-0.6338,-0.6338,-0.6338,-0.6338,-0.6338,-0.6338,-0.6268,-0.6109,-0.5231,-0.5712,-0.6281,-0.6285,-0.5649,-0.3992,-0.0626,0.0,0.0,0.0,0.0,0.0,0.0,0.0,0.0,0.0,0.0,0.0,0.0,0.0,0.0,0.0,0.0,0.0,0.0,0.0,0.0,0.0,0.2412,0.4333,0.5583,0.5566,0.5633,0.5718,0.5772,0.5937,0.6134,0.8028,0.9035,-1.8154,-1.8584,-1.8838,-1.8525,-1.7812,-1.6875,-1.5684,-1.4746,-1.3896,-1.3057,-1.2881,-1.2881,-1.2881,-1.2881,-1.3115,0.0,-1.416,-1.4893,-1.6441,-1.7578,-1.874,-2.0205,-2.1152,-2.1973,-2.2705,-2.2988,-2.3135,-2.3135,-2.3135,-2.3135,-2.3135,-2.3135,-2.2562,-2.1328,-2.0102,-1.8949,-1.7684,-1.6476,-1.5724,-1.5507,-1.5551,-1.5449,-1.5217,-1.513,-1.493,-1.4643,-1.4556,-1.3905,-1.2851,-1.2851,-1.2163,-1.1123,-1.1123,-1.0864,-1.0611,-1.0611,-1.0,-0.9298,-0.9356,-0.8545,-0.749,-0.7392,-0.7035,-0.6654,-0.64,-0.6295,-0.6338,-0.6338,-0.6338,-0.6338,-0.6338,-0.6268,-0.6271,-0.6264,-0.6268,-0.6274,-0.6274,-0.6281,-0.5254,-0.1642,-0.0392,0.0,0.0,0.0,0.0,0.0,0.0,0.0,0.0,0.0,0.0,0.0,0.0,0.0,0.0,0.0,0.0,0.0,0.0,0.0,0.0,0.1822,0.3685,0.5545,0.5661,0.5745,0.58,0.5895,0.5864,0.5796,0.8084,0.941,-1.7275,-1.7705,-1.8018,-1.8018,-1.7373,-1.6504,-1.5615,-1.4746,-1.3896,-1.3057,-1.2881,-1.2881,-1.2881,-1.2881,-1.3018,-1.3447,-1.4228,-1.5234,-1.6553,-1.7765,-1.8945,-1.9814,-2.0703,-2.1416,-2.1855,-2.2646,-2.3135,-2.3135,-2.3135,-2.3135,-2.3135,-2.3135,-2.2562,-2.1328,-2.0114,-1.8897,-1.7684,-1.6476,-1.5832,-1.5832,-1.5825,-1.5818,-1.5812,-1.5524,-1.5237,-1.4943,-1.4649,-1.4355,-1.4088,-1.4088,-1.3379,-1.2242,-1.2242,-1.1552,-1.0611,-1.0611,-1.0611,-1.0605,-1.0611,-0.9836,-0.8827,-0.8529,-0.7593,-0.6671,-0.6515,-0.6373,-0.6338,-0.6338,-0.6338,-0.6338,-0.6338,-0.6338,-0.6338,-0.6338,-0.6338,-0.6338,-0.6338,-0.6271,-0.5643,-0.3515,-0.1407,0.0,0.0,0.0,0.0,0.0,0.0,0.0,0.0,0.0,0.0,0.0,0.0,0.0,0.0,0.0,0.0,0.0,0.0,0.0,0.0,0.1998,0.3797,0.5399,0.581,0.5949,0.58,0.6108,0.6176,0.6027,0.8289,1.034,-1.5996,-1.6348,-1.6611,-1.6309,-1.5811,-1.5254,-1.4668,-1.4111,-1.3545,-1.2998,-1.2881,-1.2881,-1.2881,-1.2881,-1.3311,-1.46,-1.5039,0.0,-1.6992,-1.8281,-1.9287,-1.9844,-2.1465,-2.2588,-2.2734,-2.2988,-2.3135,-2.3135,-2.3135,-2.3135,-2.3135,-2.3135,-2.2921,-2.2562,-2.1328,-2.0193,-1.8909,-1.7691,-1.6693,-1.5832,-1.5832,-1.5832,-1.5825,-1.5732,-1.5531,-1.5244,-1.495,-1.4656,-1.4369,-1.4168,-1.3906,-1.3555,-1.3555,-1.33,-1.2954,-1.2954,-1.251,-1.1724,-1.1724,-1.1042,-0.9904,-0.9004,-0.8454,-0.7926,-0.7045,-0.6607,-0.6407,-0.6407,-0.6335,-0.6338,-0.6338,-0.6338,-0.6338,-0.6338,-0.6338,-0.6338,-0.6338,-0.6271,-0.6119,-0.5413,-0.2426,0.0,0.0,0.0,0.0,0.0,0.0,0.0,0.0,0.0,0.0,0.0,0.0,0.0,0.0,0.0,0.0,0.0,0.0,0.0,0.0,0.1984,0.4044,0.6013,0.5976,0.6057,0.6115,0.6213,0.6996,0.8289,0.8882,1.0613,-1.5088,-1.5488,-1.5752,-1.5478,-1.5098,-1.4678,-1.4238,-1.3809,-1.3389,-1.2969,-1.2881,-1.2881,-1.2881,-1.2881,-1.3281,-1.4492,-1.4961,-1.5635,-1.6953,-1.8232,-1.9385,-2.0303,-2.1748,-2.2734,-2.2891,-2.3047,-2.3135,-2.3135,-2.3135,-2.3135,-2.3135,-2.3135,-2.3135,-2.3135,-2.1895,-2.0755,-1.9478,-1.8343,-1.7028,-1.5832,-1.5832,-1.5832,-1.5832,-1.5832,-1.5671,-1.5384,-1.5204,-1.4897,0.0,-1.4322,-1.4182,-1.4088,-1.4088,-1.4088,-1.4088,-1.4088,-1.3646,-1.2942,-1.2942,-1.2248,-1.1026,-0.9828,-0.8785,-0.7854,-0.7097,-0.6756,-0.6559,-0.6559,-0.6454,-0.6339,-0.6339,-0.6302,-0.6338,-0.6338,-0.6338,-0.6338,-0.6338,-0.6268,-0.6278,-0.6291,-0.3522,-0.0939,-0.0157,0.0,0.0,0.0,0.0,0.0,0.0,0.0,0.0,0.0,0.0,0.0,0.0,0.0,0.0,0.0,0.0,0.0,0.0,0.2771,0.4905,0.6303,0.6156,0.6139,0.6173,0.6234,0.7326,0.9296,0.9229,1.0771,0.0,-1.4951,-1.5264,-1.5234,-1.4941,-1.4541,-1.4141,-1.374,0.0,-1.2959,-1.2881,-1.29,-1.2959,-1.2939,-1.3105,-1.3643,-1.4424,-1.542,-1.6689,-1.793,-1.9453,-2.1162,-2.1728,-2.2129,-2.2519,-2.291,-2.3135,-2.3135,-2.3135,-2.3135,-2.3135,-2.3135,-2.3135,-2.3135,-2.2001,-2.0845,-1.9604,-1.8509,-1.7312,-1.6103,-1.6015,-1.592,-1.592,-1.5825,-1.5678,-1.5424,-1.5384,-1.5057,-1.4549,-1.4502,-1.4329,-1.4088,-1.4088,-1.4088,-1.4088,-1.4088,-1.4088,-1.4088,-1.4088,-1.3379,-1.2202,-1.0868,-0.8789,-0.6946,-0.6946,-0.6837,-0.6715,-0.6705,-0.66,-0.6485,-0.6474,-0.6376,-0.6278,-0.6278,-0.6345,-0.6338,-0.6338,-0.6338,-0.6268,-0.6291,-0.4543,-0.2422,-0.0392,0.0,0.0,0.0,0.0,0.0,0.0,0.0,0.0,0.0,0.0,0.0,0.0,0.0,0.0,0.0,0.0,0.0,0.0,0.3905,0.6044,0.604,0.6222,0.62,0.6047,0.6193,0.7326,0.9296,0.9296,1.0926,-1.3271,0.0,-1.3877,-1.3555,-1.3398,-1.3301,0.0,-1.3096,-1.2998,-1.29,-1.2881,-1.3076,-1.3721,-1.3574,-1.3936,-1.5693,-1.6426,-1.71,-1.8057,-1.96,-2.1133,-2.2529,-2.2783,-2.2881,-2.2978,-2.3076,-2.3135,-2.3135,-2.3135,-2.3135,-2.3135,-2.3135,-2.3135,-2.3135,-2.2804,-2.2133,-2.0846,-2.0594,-1.9803,-1.858,-1.7677,-1.7225,-1.7225,-1.6197,-1.5792,-1.5705,-1.5257,-1.499,-1.4823,-1.4376,-1.4148,-1.4088,-1.4088,-1.4088,-1.4088,-1.4088,-1.4088,-1.4088,-1.4088,-1.3906,-1.3372,-1.1235,-0.8983,-0.7092,-0.7092,-0.699,-0.6851,-0.6732,-0.6675,-0.662,-0.6502,-0.6447,-0.6424,-0.6424,-0.6339,-0.6338,-0.6338,-0.6338,-0.6264,-0.6281,-0.4538,-0.2422,-0.0392,0.0,0.0,0.0,0.0,0.0,0.0,0.0,0.0,0.0,0.0,0.0,0.0,0.0,0.0,0.0,0.0,0.0,0.0,0.2459,0.388,0.3846,0.5446,0.6244,0.6207,0.6244,0.7326,0.9296,0.9296,1.1286,-1.2881,-1.3184,-1.3447,-1.3223,-1.3164,-1.3164,-1.3164,0.0,0.0,0.0,0.0,-1.3076,-1.373,-1.3818,-1.4307,-1.5869,-1.6836,-1.7959,-1.96,-2.081,-2.1934,-2.3008,-2.3135,-2.3135,-2.3135,-2.3135,-2.3135,-2.3135,-2.3135,-2.3135,-2.3135,-2.3135,-2.3135,-2.3135,-2.3135,-2.2562,-2.1319,-2.13,-2.0657,-1.948,-1.8288,-1.7692,-1.7692,-1.6386,-1.5832,-1.5805,-1.5357,-1.5084,-1.493,-1.4476,-1.4208,-1.4088,-1.4088,-1.3737,-1.3379,-1.3913,-1.3737,-1.3379,-1.3906,-1.3392,-1.226,-1.1042,-0.9052,-0.7139,-0.7139,-0.7088,-0.7007,-0.6926,-0.6854,-0.6787,-0.6705,-0.663,-0.6559,-0.6488,-0.6413,-0.6339,-0.6274,-0.6338,-0.6264,-0.6278,-0.5329,-0.3599,-0.0548,0.0,0.0,0.0,0.0,0.0,0.0,0.0,0.0,0.0,0.0,0.0,0.0,0.0,0.0,0.0,0.0,0.0,0.0,0.2027,0.3534,0.4543,0.5712,0.6338,0.6338,0.6338,0.7326,0.9296,0.9296,1.149,-1.2939,-1.3281,-1.3574,-1.3447,-1.3457,-1.3486,-1.3428,0.0,0.0,0.0,0.0,0.0,-1.3696,-1.4111,-1.4719,-1.5633,-1.6889,-1.8603,-2.0996,-2.1709,-2.2266,-2.3047,-2.3135,-2.3135,-2.3135,-2.3135,-2.3135,-2.3135,-2.3135,-2.3135,-2.3135,-2.3135,-2.3135,-2.3135,-2.2921,-2.2339,-2.1319,-2.1443,-2.0961,-1.9766,-1.8517,-1.7848,-1.7692,-1.6386,-1.5832,-1.5812,-1.5524,-1.5231,-1.4943,-1.4643,-1.4349,-1.4088,-1.4088,-1.347,-1.2674,-1.373,-1.3379,-1.2413,-1.347,-1.226,-1.0351,-1.0524,-0.9052,-0.7139,-0.7139,-0.7139,-0.7139,-0.7139,-0.7054,-0.6956,-0.6932,-0.6831,-0.6702,-0.6573,-0.6525,-0.6468,-0.6325,-0.6291,-0.6295,-0.6305,-0.6318,-0.5056,-0.1106,-0.0237,0.0,0.0,0.0,0.0,0.0,0.0,0.0,0.0,0.0,0.0,0.0,0.0,0.0,0.0,0.0,0.0,0.0,0.1963,0.4088,0.6295,0.6274,0.6338,0.6338,0.6338,0.7265,0.9118,0.9271,1.1633,-1.3213,-1.3721,-1.3867,-1.3154,-1.3242,-1.3418,-1.3057,0.0,0.0,0.0,0.0,0.0,-1.4925,-1.5476,-1.622,-1.7375,-1.8711,-2.0059,-2.1572,-2.2148,-2.2598,-2.3076,-2.3135,-2.3135,-2.3135,-2.3135,-2.3135,-2.3135,-2.3135,-2.3135,-2.3135,-2.3135,-2.3135,-2.3135,-2.2117,-2.1443,-2.1319,-2.233,-2.2208,-2.0997,-1.9833,-1.8653,-1.7692,-1.6386,-1.5832,-1.5812,-1.5524,-1.5231,-1.4943,-1.4643,-1.4349,-1.4088,-1.4088,-1.3997,-1.3822,-1.4004,-1.3379,-1.2328,-1.2498,-1.1042,-0.9323,-1.0265,-0.9052,-0.7139,-0.7139,-0.7139,-0.7139,-0.7139,-0.7126,-0.7082,-0.6959,-0.6912,-0.6888,-0.6865,-0.6759,-0.6624,-0.6471,-0.6441,-0.6441,-0.6441,-0.6384,-0.5534,-0.3058,-0.1145,0.0,0.0,0.0,0.0,0.0,0.0,0.0,0.0,0.0,0.0,0.0,0.0,0.0,0.0,0.0,0.0,0.0,0.2035,0.407,0.6295,0.6274,0.6338,0.6338,0.6338,0.6939,0.8238,0.9179,1.1438,-1.2715,-1.3301,-1.3701,-1.3311,-1.3711,-1.415,-1.3955,-1.3721,0.0,0.0,0.0,0.0,-1.5593,-1.6365,-1.7259,-1.8764,-1.9713,-2.0644,-2.1738,-2.2246,-2.2666,-2.3086,-2.3135,-2.3135,-2.3135,-2.3135,-2.3135,-2.3135,-2.3135,-2.3135,-2.3135,-2.3135,-2.3135,-2.3135,-2.2572,-2.1971,-2.1352,-2.1834,-2.1491,-2.035,-2.0445,-1.9538,-1.7725,-1.7117,-1.648,-1.5812,-1.5524,-1.5231,-1.4943,-1.4643,-1.4349,-1.4088,-1.4088,-1.373,-1.3033,-1.2431,-1.1821,-1.1381,-1.1381,-1.0265,-0.8978,-0.9492,-0.8536,-0.7139,-0.7139,-0.7139,-0.7139,-0.7139,-0.7139,-0.7126,-0.7058,-0.7044,-0.7024,-0.6946,-0.681,-0.6658,-0.6505,-0.6413,-0.638,-0.6458,-0.6498,-0.5822,-0.3505,-0.1401,0.0,0.0,0.0,0.0,0.0,0.0,0.0,0.0,0.0,0.0,0.0,0.0,0.0,0.0,0.0,0.0,0.0,0.2033,0.4146,0.6295,0.6274,0.6338,0.6338,0.6338,0.6876,0.8045,0.9149,1.1196,-1.2324,-1.293,-1.3525,-1.3633,0.0,-1.4541,-1.4736,-1.4453,0.0,0.0,0.0,-1.5319,-1.6081,-1.7093,-1.829,-1.9697,-2.0371,-2.0996,-2.1777,-2.2246,-2.2666,-2.3086,-2.3135,-2.3135,-2.3135,-2.3135,-2.3135,-2.3135,-2.3135,-2.3135,-2.3135,-2.3135,-2.3135,-2.3135,-2.2814,-2.211,-2.0924,-2.0857,-2.0306,-1.9121,-2.0303,-1.9736,-1.7674,-1.7717,-1.7131,-1.619,-1.5685,-1.5331,-1.5044,-1.4743,-1.4456,-1.4182,-1.4115,-1.3555,-1.2589,-1.1128,-1.0611,-1.0524,-1.0265,-0.9405,-0.854,-0.8803,-0.8101,-0.7139,-0.7139,-0.7139,-0.7139,-0.7139,-0.7139,-0.7139,-0.7139,-0.7139,-0.7112,-0.7004,-0.6888,-0.6753,-0.6566,-0.6468,-0.6437,-0.6512,-0.6634,-0.5958,-0.3641,-0.1409,0.0,0.0,0.0,0.0,0.0,0.0,0.0,0.0,0.0,0.0,0.0,0.0,0.0,0.0,0.0,0.0,0.0,0.2033,0.4146,0.6295,0.6274,0.6338,0.6338,0.6295,0.6774,0.7717,0.9194,1.1089,-1.2607,-1.3164,-1.3603,-1.3941,-1.3848,0.0,-1.4609,-1.4453,0.0,-1.5178,0.0,-1.613,-1.6596,-1.8032,-1.9316,-1.9847,-2.0635,-2.1348,-2.1816,-2.2246,-2.2666,-2.3086,-2.3135,-2.3135,-2.3135,-2.3135,-2.3135,-2.3135,-2.3135,-2.3135,-2.3135,-2.3135,-2.3135,-2.3135,-2.2001,-2.0817,-1.9667,-1.9668,-1.8976,-1.7858,-1.9011,-1.8953,-1.7748,-1.7719,-1.7692,-1.7505,-1.6271,-1.5631,-1.5344,-1.5057,-1.4756,-1.4462,-1.4195,-1.4082,-1.3737,-1.1386,-1.0611,-1.0438,-0.941,-0.8277,-0.7404,-0.854,-0.8101,-0.7139,-0.7139,-0.7139,-0.7139,-0.7139,-0.7139,-0.7139,-0.7139,-0.7139,-0.7139,-0.7129,-0.7115,-0.7031,-0.6746,-0.6787,-0.6841,-0.6709,-0.6619,-0.5948,-0.3884,-0.1606,0.0,0.0,0.0,0.0,0.0,0.0,0.0,0.0,0.0,0.0,0.0,0.0,0.0,0.0,0.0,0.0,0.0,0.2033,0.4146,0.6295,0.6274,0.6338,0.6338,0.6393,0.6616,0.685,0.9225,1.1077,-1.1939,-1.2578,-1.3213,-1.3643,-1.3818,0.0,0.0,-1.5478,-1.595,-1.6859,-1.7337,-1.78,-1.8259,-1.9028,-1.9701,-1.9893,-2.0654,-2.1289,-2.1455,-2.1855,-2.2275,-2.2705,-2.2754,-2.2852,-2.3115,-2.3135,-2.3135,-2.3135,-2.3135,-2.3135,-2.3135,-2.3135,-2.3135,-2.3135,-2.2678,-2.1876,-2.0649,-2.0651,-1.9633,-1.7704,-1.8885,-1.8832,-1.7728,-1.8221,-1.8092,-1.7363,-1.6813,-1.6014,-1.5117,-1.501,-1.479,-1.4489,-1.4202,-1.3646,-1.2857,-1.1986,-1.0783,-0.9492,-0.9065,-0.8105,-0.7139,-0.7665,-0.7492,-0.7139,-0.7139,-0.7139,-0.7139,-0.7139,-0.7139,-0.7139,-0.7139,-0.7139,-0.7139,-0.7139,-0.7071,-0.6976,-0.6868,-0.6814,-0.677,-0.6712,-0.6703,-0.6443,-0.5684,-0.244,0.0,0.0,0.0,0.0,0.0,0.0,0.0,0.0,0.0,0.0,0.0,0.0,0.0,0.0,0.0,0.0,0.0,0.2033,0.4146,0.6295,0.6274,0.6305,0.6393,0.6444,0.66,0.6844,0.8573,1.0049,-1.1518,-1.2253,-1.2988,-1.3408,0.0,0.0,-1.542,-1.6084,-1.6811,-1.7935,-1.84,-1.8746,-1.9183,-1.9538,-1.9738,-1.9873,-2.0537,-2.1074,-2.1211,-2.1494,-2.1846,-2.2266,-2.2314,-2.248,-2.29,-2.2939,-2.2998,-2.3125,-2.3135,-2.3135,-2.3135,-2.3018,-2.2921,-2.2921,-2.2921,-2.2339,-2.1098,-2.1228,-2.0247,-1.8234,-1.8952,-1.888,-1.8096,-1.8652,-1.862,-1.8057,-1.7272,-1.6364,-1.5473,-1.5034,-1.4649,-1.4362,-1.4168,-1.3561,-1.2851,-1.2413,-1.1128,-0.941,-0.9061,-0.8105,-0.7139,-0.7139,-0.7139,-0.7139,-0.7139,-0.7139,-0.7139,-0.7139,-0.7139,-0.7139,-0.7139,-0.7139,-0.7139,-0.7139,-0.7065,-0.6983,-0.6939,-0.6881,-0.6824,-0.678,-0.6776,-0.6843,-0.681,-0.3555,-0.075,-0.0082,0.0,0.0,0.0,0.0,0.0,0.0,0.0,0.0,0.0,0.0,0.0,0.0,0.0,0.0,0.0,0.2033,0.4146,0.6295,0.6318,0.6376,0.6471,0.6569,0.6698,0.6858,0.8138,0.9411,-1.1606,-1.2253,-1.2988,-1.3408,0.0,0.0,-1.5929,-1.6135,-1.6597,-1.8285,-1.8623,-1.8744,-1.9221,-1.9307,-1.9408,-1.9808,-2.0283,-2.0723,-2.1172,-2.123,-2.1387,-2.1826,-2.1875,-2.2041,-2.2471,-2.251,-2.2685,-2.3105,-2.3047,-2.3047,-2.3047,-2.2698,-2.2465,-2.2446,-2.2533,-2.1876,-2.0754,-2.1098,-2.0754,-1.9547,-1.9065,-1.8782,-1.8799,-1.8811,-1.9261,-1.9858,-1.762,-1.6587,-1.6477,-1.506,-1.4349,-1.4088,-1.4088,-1.4088,-1.3997,-1.2766,-1.1552,-1.0438,-0.9323,-0.8101,-0.7139,-0.7139,-0.7139,-0.7139,-0.7139,-0.7139,-0.7139,-0.7139,-0.7139,-0.7139,-0.7139,-0.7139,-0.7139,-0.7139,-0.7139,-0.7102,-0.6959,-0.7041,-0.7099,-0.6956,-0.6929,-0.6983,-0.7071,-0.4839,-0.2431,-0.0337,0.0,0.0,0.0,0.0,0.0,0.0,0.0,0.0,0.0,0.0,0.0,0.0,0.0,0.0,0.0,0.1955,0.4068,0.6295,0.641,0.6471,0.6471,0.6776,0.6848,0.6705,0.8205,0.947,-1.1606,-1.2253,-1.2988,-1.3408,-1.4375,-1.5371,0.0,-1.6768,0.0,-1.9211,-1.9781,-1.9964,-1.9772,-2.001,-2.0129,-1.9951,-2.0283,-2.0605,-2.0742,-2.0762,-2.0928,-2.1377,-2.1426,-2.1602,-2.2031,-2.2113,-2.2121,-2.2292,-2.2233,-2.2233,-2.2233,-2.2117,-2.2035,-2.211,-2.2312,-2.2231,-2.154,-2.2224,-2.178,-2.0324,-2.0171,-2.0108,-2.0155,-1.9484,-1.9397,-1.9623,-1.812,-1.7017,-1.6152,-1.4971,-1.4349,-1.4088,-1.4088,-1.4088,-1.4088,-1.373,-1.2339,-1.0524,-1.0178,-0.8794,-0.7139,-0.7139,-0.7139,-0.7139,-0.7139,-0.7139,-0.7139,-0.7139,-0.7139,-0.7139,-0.7139,-0.7139,-0.7139,-0.7139,-0.7139,-0.7129,-0.7088,-0.7109,-0.7099,-0.6956,-0.701,-0.7037,-0.682,-0.4979,-0.2646,-0.0337,0.0,0.0,0.0,0.0,0.0,0.0,0.0,0.0,0.0,0.0,0.0,0.0,0.0,0.0,0.0,0.0627,0.2582,0.6213,0.6322,0.638,0.6471,0.6563,0.6637,0.6705,0.724,0.8577,-1.1777,-1.2461,-1.3271,-1.3867,-1.4853,-1.5869,-1.666,-1.7537,-1.8478,-1.9234,-1.9736,-2.0062,-1.9909,-2.0164,-2.0273,-2.0185,-2.0391,-2.0566,-2.0566,-2.0566,-2.0664,-2.0937,-2.0967,-2.1143,-2.1582,-2.1603,-2.1697,-2.1921,-2.1929,-2.193,-2.1923,-2.1688,-2.1631,-2.1632,-2.1829,-2.1838,-2.1636,-2.2252,-2.2119,-2.1136,-2.0976,-2.0919,-2.0846,-1.9852,-1.9371,-1.9309,-1.7656,-1.6331,-1.5255,-1.4593,-1.4249,-1.4088,-1.4088,-1.4088,-1.4088,-1.4088,-1.2601,-1.0611,-1.0611,-0.9052,-0.7139,-0.7139,-0.7139,-0.7139,-0.7139,-0.7139,-0.7139,-0.7139,-0.7139,-0.7139,-0.7139,-0.7139,-0.7139,-0.7139,-0.7139,-0.7139,-0.7139,-0.7139,-0.7115,-0.7031,-0.7082,-0.7092,-0.686,-0.5053,-0.2786,-0.0342,0.0,0.0,0.0,0.0,0.0,0.0,0.0,0.0,0.0,0.0,0.0,0.0,0.0,0.0,0.0,0.0,0.1174,0.3761,0.546,0.6327,0.6404,0.6536,0.658,0.6614,0.6766,0.8082,-1.2119,-1.2861,-1.3711,-1.457,-1.5508,-1.6488,-1.7715,-1.8281,-1.8564,-1.8574,-1.8994,-1.9472,-1.9793,-1.9908,-2.0098,-2.0498,-2.0566,-2.0566,-2.0566,-2.0566,-2.0566,-2.0566,-2.0566,-2.0723,-2.1133,-2.117,-2.1345,-2.1738,-2.1797,-2.1774,-2.1791,-2.1386,-2.1171,-2.1171,-2.1181,-2.1199,-2.1185,-2.1668,-2.1859,-2.1812,-2.1396,-2.1238,-2.1163,-2.0037,-1.9291,-1.8709,-1.6756,-1.522,-1.4088,-1.4088,-1.4088,-1.4088,-1.4088,-1.4088,-1.4088,-1.4088,-1.2601,-1.0611,-1.0611,-0.9052,-0.7139,-0.7139,-0.7139,-0.7139,-0.7139,-0.7139,-0.7139,-0.7139,-0.7139,-0.7139,-0.7139,-0.7139,-0.7139,-0.7139,-0.7139,-0.7139,-0.7139,-0.7139,-0.7139,-0.7139,-0.7139,-0.7058,-0.7081,-0.5366,-0.3015,-0.0436,0.0,0.0,0.0,0.0,0.0,0.0,0.0,0.0,0.0,0.0,0.0,0.0,0.0,0.0,0.0,0.0,0.0,0.0,0.3916,0.6074,0.6321,0.6522,0.659,0.6458,0.6688,0.7979,-1.2161,-1.2861,-1.3711,-1.457,-1.5674,-1.6799,-1.7754,-1.8095,-1.8203,-1.8554,-1.9221,-1.9826,-1.9873,-2.0195,-2.0459,-2.0547,-2.0566,-2.0566,-2.0566,-2.0566,-2.0566,-2.0566,-2.0566,-2.0605,-2.0703,-2.0732,-2.0771,-2.085,-2.0897,-2.0849,-2.0878,-2.0771,-2.0751,-2.0751,-2.1063,-2.1046,-2.0697,-2.1489,-2.1736,-2.134,-2.1273,-2.1234,-2.1193,-2.0584,-1.9356,-1.7666,-1.7172,-1.5876,-1.4088,-1.4088,-1.4088,-1.4088,-1.4088,-1.4088,-1.4088,-1.4088,-1.2601,-1.0611,-1.0611,-0.9052,-0.7139,-0.7139,-0.7139,-0.7139,-0.7139,-0.7139,-0.7139,-0.7139,-0.7139,-0.7139,-0.7139,-0.7139,-0.7139,-0.7139,-0.7139,-0.7139,-0.7139,-0.7139,-0.7139,-0.7139,-0.7139,-0.7058,-0.7081,-0.664,-0.4921,-0.0624,0.0,0.0,0.0,0.0,0.0,0.0,0.0,0.0,0.0,0.0,0.0,0.0,0.0,0.0,0.0,0.0,0.0,0.0,0.2514,0.4651,0.6325,0.6346,0.6339,0.6386,0.7319,0.8502,-1.2132,-1.2998,-1.4121,-1.54,-1.6406,-1.7191,-1.7871,-1.7655,-1.7417,-1.7577,-1.854,-1.9248,-1.9307,-1.9824,-2.0254,-2.0254,-2.043,-2.0566,-2.0566,-2.0566,-2.0566,-2.0566,-2.0566,-2.0566,-2.0566,-2.0566,-2.0566,-2.0566,-2.0566,-2.0566,-2.0566,-2.0566,-2.0566,-2.0566,-2.0771,-2.0771,-2.0566,-2.1073,-2.1134,-2.0897,-2.0909,-2.0899,-2.0908,-2.0184,-1.8877,-1.7253,-1.6764,-1.5628,-1.4088,-1.4088,-1.4088,-1.4088,-1.4088,-1.4088,-1.4088,-1.4088,-1.2601,-1.0611,-1.0611,-0.9052,-0.7139,-0.7139,-0.7139,-0.7139,-0.7139,-0.7139,-0.7139,-0.7139,-0.7139,-0.7139,-0.7139,-0.7139,-0.7139,-0.7139,-0.7139,-0.7139,-0.7139,-0.7139,-0.7139,-0.7139,-0.7139,-0.7143,-0.7068,-0.6174,-0.4208,-0.0539,0.0,0.0,0.0,0.0,0.0,0.0,0.0,0.0,0.0,0.0,0.0,0.0,0.0,0.0,0.0,0.0,0.0,0.0,0.1095,0.3129,0.6288,0.6274,0.6268,0.6338,0.7418,0.8512,-1.1992,-1.3105,-1.4457,-1.6113,-1.686,-1.7359,-1.7804,-1.72,-1.6625,-1.6636,-1.7516,-1.8389,-1.8371,-1.9136,-1.9824,-1.9788,-2.0137,-2.0371,-2.0439,-2.0449,-2.0478,-2.0557,-2.0566,-2.0566,-2.0566,-2.0566,-2.0566,-2.0566,-2.0566,-2.0566,-2.0566,-2.0566,-2.0566,-2.0566,-2.0566,-2.0566,-2.0566,-2.0566,-2.0566,-2.0566,-2.0566,-2.0566,-2.0566,-1.9678,-1.863,-1.7496,-1.6437,-1.5387,-1.4328,-1.4166,-1.4088,-1.4088,-1.4088,-1.4088,-1.4088,-1.3906,-1.2431,-1.0611,-1.0351,-0.8877,-0.7139,-0.7139,-0.7139,-0.7139,-0.7139,-0.7139,-0.7139,-0.7139,-0.7139,-0.7139,-0.7139,-0.7139,-0.7139,-0.7139,-0.7139,-0.7139,-0.7139,-0.7139,-0.7139,-0.7139,-0.7139,-0.7143,-0.7061,-0.5176,-0.2769,-0.0359,0.0,0.0,0.0,0.0,0.0,0.0,0.0,0.0,0.0,0.0,0.0,0.0,0.0,0.0,0.0,0.0,0.0,0.0,0.0,0.1722,0.5182,0.5964,0.6274,0.6342,0.748,0.863,-1.1577,-1.2861,-1.4365,-1.5342,-1.6191,-1.6882,-1.7369,-1.7028,-1.6569,-1.6611,-1.7012,-1.7379,-1.7388,-1.8486,-1.936,-1.9416,-1.9403,-1.959,-1.9951,-2.0,-2.0137,-2.0518,-2.0566,-2.0566,-2.0566,-2.0566,-2.0566,-2.0566,-2.0566,-2.0566,-2.0566,-2.0566,-2.0566,-2.0566,-2.0566,-2.0566,-2.0566,-2.0566,-2.0566,-2.0566,-2.0566,-2.0566,-2.0566,-2.0479,-1.9766,-1.8718,-1.7577,-1.6519,-1.5372,-1.4489,-1.4088,-1.4088,-1.4088,-1.4088,-1.3997,-1.2942,-1.1729,-1.0438,-0.9492,-0.8277,-0.7139,-0.7139,-0.7139,-0.7139,-0.7139,-0.7139,-0.7139,-0.7139,-0.7139,-0.7139,-0.7139,-0.7139,-0.7139,-0.7139,-0.7139,-0.7139,-0.7139,-0.7139,-0.7139,-0.7139,-0.7139,-0.7061,-0.7091,-0.5188,-0.2769,-0.0359,0.0,0.0,0.0,0.0,0.0,0.0,0.0,0.0,0.0,0.0,0.0,0.0,0.0,0.0,0.0,0.0,0.0,0.0,0.0,0.0313,0.0861,0.454,0.6278,0.6352,0.8241,0.916,-1.2086,-1.3203,-1.4282,-1.5195,-1.6045,-1.6699,-1.6607,-1.6191,-1.5681,-1.5118,-1.5125,-1.5576,-1.666,-1.7572,-1.8325,-1.884,-1.9144,-1.9346,-1.9541,-1.9766,-1.999,-2.0176,-2.042,-2.0566,-2.0566,-2.0566,-2.0566,-2.0566,-2.0566,-2.0566,-2.0566,-2.0566,-2.0566,-2.0566,-2.0566,-2.0566,-2.0566,-2.0566,-2.0566,-2.0566,-2.0566,-2.0566,-2.0566,-2.0566,-2.0001,-1.8957,-1.7827,-1.6683,-1.5621,-1.4573,-1.4088,-1.4088,-1.4088,-1.4088,-1.3913,-1.2766,-1.1552,-1.0438,-0.9323,-0.8105,-0.7139,-0.7139,-0.7139,-0.7139,-0.7139,-0.7139,-0.7139,-0.7139,-0.7139,-0.7139,-0.7139,-0.7139,-0.7139,-0.7139,-0.7139,-0.7139,-0.7139,-0.7139,-0.7139,-0.7139,-0.7139,-0.7061,-0.7088,-0.5188,-0.2768,-0.0358,0.0,0.0,0.0,0.0,0.0,0.0,0.0,0.0,0.0,0.0,0.0,0.0,0.0,0.0,0.0,0.0,0.0,0.0,0.0,0.0,0.0,0.1877,0.399,0.6355,0.8003,0.8908,-1.2217,-1.3086,-1.3844,-1.4856,-1.5713,-1.6227,-1.5733,-1.5343,-1.472,-1.3814,-1.3461,-1.3886,-1.5539,-1.6491,-1.7377,-1.8291,-1.8734,-1.9004,-1.9102,-1.9492,-1.9795,-1.9902,-2.0303,-2.0566,-2.0566,-2.0353,-2.0333,-2.0557,-2.0353,-2.0333,-2.0566,-2.0566,-2.0566,-2.0566,-2.0566,-2.0566,-2.0566,-2.0566,-2.0566,-2.0566,-2.0566,-2.0566,-2.0566,-2.0566,-2.0157,-1.9353,-1.7946,-1.6822,-1.6026,-1.4657,-1.425,-1.4489,-1.4166,-1.4088,-1.3913,-1.2419,-1.13,-1.0351,-0.8973,-0.7841,-0.7139,-0.7139,-0.7139,-0.7139,-0.7139,-0.7139,-0.7139,-0.7139,-0.7139,-0.7139,-0.7139,-0.7139,-0.7139,-0.7139,-0.7139,-0.7139,-0.7139,-0.7139,-0.7139,-0.7139,-0.7139,-0.7061,-0.7084,-0.5638,-0.3486,-0.0448,0.0,0.0,0.0,0.0,0.0,0.0,0.0,0.0,0.0,0.0,0.0,0.0,0.0,0.0,0.0,0.0,0.0,0.0,0.0,0.0,0.0,0.0,0.1877,0.5559,0.7069,0.8362,-1.143,-1.1973,-1.258,-1.3853,-1.481,-1.5379,-1.5042,-1.472,-1.4311,-1.3494,-1.2823,-1.2693,-1.369,-1.5404,-1.6943,-1.791,-1.8047,-1.8213,-1.8613,-1.9043,-1.9473,-1.9863,-2.0303,-2.0566,-2.0566,-1.9646,-1.9521,-2.0547,-1.9637,-1.9531,-2.0557,-2.0566,-2.0566,-2.0566,-2.0566,-2.0566,-2.0566,-2.0566,-2.0566,-2.0566,-2.0566,-2.0566,-2.0566,-2.0566,-2.0566,-2.0391,-1.825,-1.7307,-1.7009,-1.4985,-1.4734,-1.5538,-1.4489,-1.4088,-1.3822,-1.1563,-1.0611,-1.0265,-0.8009,-0.7139,-0.7139,-0.7139,-0.7139,-0.7139,-0.7139,-0.7139,-0.7139,-0.7139,-0.7139,-0.7139,-0.7139,-0.7139,-0.7139,-0.7139,-0.7139,-0.7139,-0.7139,-0.7139,-0.7139,-0.7139,-0.7139,-0.7061,-0.7094,-0.7009,-0.5382,-0.0718,0.0,0.0,0.0,0.0,0.0,0.0,0.0,0.0,0.0,0.0,0.0,0.0,0.0,0.0,0.0,0.0,0.0,0.0,0.0,0.0,0.0,0.0,0.1094,0.3279,0.544,0.7443,-1.0986,-1.1875,-1.2773,-1.321,-1.4379,-1.5107,-1.3856,-1.393,-1.3802,-1.238,-1.1918,-1.2057,-1.3226,-1.467,-1.5984,-1.6943,-1.7639,-1.8057,-1.8213,-1.8603,-1.8926,-1.9082,-1.9742,-1.9849,-1.9222,-1.9037,-1.9136,-1.9531,-1.8533,-1.8725,-2.0459,-1.9936,-1.9927,-2.0557,-2.0566,-2.0566,-2.0566,-2.0566,-2.0566,-2.0566,-2.0566,-2.0566,-2.0557,-1.9927,-1.9169,-1.8391,-1.6917,-1.6669,-1.7204,-1.5703,-1.4949,-1.465,-1.425,-1.4088,-1.3822,-1.1477,-1.0611,-1.0265,-0.7921,-0.7139,-0.7139,-0.7139,-0.7139,-0.7139,-0.7139,-0.7139,-0.7139,-0.7139,-0.7139,-0.7139,-0.7139,-0.7139,-0.7139,-0.7139,-0.7139,-0.7139,-0.7139,-0.7139,-0.7139,-0.7139,-0.7139,-0.7061,-0.7088,-0.5822,-0.4746,-0.4585,-0.1976,0.0,0.0,0.0,0.0,0.0,0.0,0.0,0.0,0.0,0.0,0.0,0.0,0.0,0.0,0.0,0.0,0.0,0.0,0.0,0.0,0.0,0.1096,0.3122,0.5292,0.7069,-1.074,-1.1553,-1.2363,-1.2949,-1.3838,-1.4269,-1.3279,-1.3389,-1.3275,-1.1744,-1.1429,-1.1643,-1.2472,-1.3611,-1.4874,-1.6374,-1.7116,-1.7648,-1.793,-1.835,-1.8616,-1.8616,-1.8938,-1.8928,-1.8215,-1.7843,-1.7709,-1.8134,-1.7075,-1.7223,-1.9065,-1.853,-1.8606,-1.964,-2.0101,-2.0382,-2.0352,-2.0498,-2.0566,-2.0566,-2.0566,-2.0566,-2.0557,-1.9839,-1.8961,-1.7865,-1.7119,-1.6758,-1.6714,-1.5606,-1.4942,-1.4636,-1.4243,-1.4088,-1.3822,-1.1477,-1.0611,-1.0265,-0.7921,-0.7139,-0.7139,-0.7139,-0.7139,-0.7139,-0.7139,-0.7139,-0.7139,-0.7139,-0.7139,-0.7139,-0.7139,-0.7139,-0.7139,-0.7139,-0.7139,-0.7139,-0.7139,-0.7139,-0.7139,-0.7139,-0.7058,-0.7068,-0.7088,-0.5827,-0.4752,-0.4768,-0.2066,0.0,0.0,0.0,0.0,0.0,0.0,0.0,0.0,0.0,0.0,0.0,0.0,0.0,0.0,0.0,0.0,0.0,0.0,0.0,0.0,0.0707,0.1724,0.3124,0.5309,0.6861,0.0,0.0,0.0,-1.3027,-1.3174,-1.3013,-1.345,-1.3175,-1.2559,-1.1727,-1.1438,-1.1346,-1.1346,-1.2171,-1.3628,-1.6091,-1.6492,-1.6856,-1.7833,-1.8281,-1.8476,-1.8554,-1.809,-1.7833,-1.7802,-1.5996,-1.5249,-1.6293,-1.5385,-1.5272,-1.6324,-1.6413,-1.6911,-1.7852,-1.9156,-1.9889,-1.9893,-2.0312,-2.0537,-2.0547,-2.0537,-2.0537,-2.0547,-2.0547,-1.9948,-1.8958,-1.8875,-1.7688,-1.5553,-1.4601,-1.4713,-1.5554,-1.4475,-1.4088,-1.3822,-1.1477,-1.0611,-1.0265,-0.7921,-0.7139,-0.7139,-0.7139,-0.7139,-0.7139,-0.7139,-0.7139,-0.7139,-0.7139,-0.7139,-0.7139,-0.7139,-0.7139,-0.7139,-0.7139,-0.7139,-0.7139,-0.7139,-0.7139,-0.7139,-0.7143,-0.7071,-0.7088,-0.7101,-0.7121,-0.5494,-0.0719,0.0,0.0,0.0,0.0,0.0,0.0,0.0,0.0,0.0,0.0,0.0,0.0,0.0,0.0,0.0,0.0,0.0,0.0,0.0,0.0079,0.0157,0.2202,0.3141,0.3124,0.5335,0.6817,-1.042,0.0,0.0,0.0,0.0,0.0,-1.278,-1.2405,-1.198,-1.137,-1.0788,-1.0593,-1.1035,-1.1341,-1.2036,-1.368,-1.4638,-1.5641,-1.6847,-1.6501,-1.6406,-1.7039,-1.6693,-1.6105,-1.528,-1.4943,-1.4924,-1.518,-1.4253,-1.4479,-1.6283,-1.707,-1.7633,-1.7925,-1.8953,-1.9441,-1.9463,-1.958,-1.9795,-2.0088,-1.9785,-1.9805,-2.0098,-1.9294,-1.8326,-1.7333,-1.679,-1.5859,-1.4608,-1.5098,-1.5,-1.4475,-1.425,-1.4088,-1.3822,-1.1477,-1.0611,-1.0265,-0.7921,-0.7139,-0.7139,-0.7139,-0.7139,-0.7139,-0.7139,-0.7139,-0.7139,-0.7139,-0.7139,-0.7139,-0.7139,-0.7139,-0.7139,-0.7139,-0.7139,-0.7139,-0.7139,-0.7139,-0.7058,-0.7074,-0.7081,-0.7094,-0.7121,-0.7131,-0.5494,-0.0719,0.0,0.0,0.0,0.0,0.0,0.0,0.0,0.0,0.0,0.0,0.0,0.0,0.0,0.0,0.0,0.0,0.0,0.0,0.0,0.1492,0.457,0.5129,0.4641,0.3124,0.5321,0.6799,-1.0477,-1.123,-1.1973,-1.2135,0.0,0.0,-1.2464,-1.1999,-1.1494,-1.0884,-1.0288,-1.0053,-1.0408,-1.0555,-1.0911,-1.1792,-1.2615,-1.3771,-1.5564,-1.5446,-1.5429,-1.5965,-1.5396,-1.4709,-1.4042,-1.384,-1.3741,-1.3741,-1.3145,-1.3395,-1.4615,-1.6028,-1.6803,-1.6788,-1.8203,-1.8844,-1.8417,-1.8597,-1.8805,-1.9033,-1.8796,-1.9036,-1.9658,-1.9014,-1.7952,-1.671,-1.6174,-1.522,-1.4179,-1.4656,-1.4565,-1.4088,-1.4088,-1.4088,-1.3822,-1.1477,-1.0611,-1.0265,-0.7921,-0.7102,-0.7061,-0.7122,-0.7099,-0.7061,-0.7122,-0.7139,-0.7139,-0.7139,-0.7139,-0.7143,-0.7064,-0.7058,-0.7139,-0.7139,-0.7139,-0.7139,-0.7139,-0.7058,-0.7071,-0.7081,-0.6269,-0.5916,-0.6946,-0.5494,-0.3235,-0.0449,0.0,0.0,0.0,0.0,0.0,0.0,0.0,0.0,0.0,0.0,0.0,0.0,0.0,0.0,0.0,0.0,0.0797,0.2596,0.2595,0.3853,0.6308,0.6322,0.5674,0.4457,0.5712,0.6872,-1.07,-1.1295,0.0,-1.2627,-1.2559,0.0,-1.2388,-1.1872,-1.1137,-1.0426,-0.9932,-0.9662,-0.9668,-0.9874,-1.0125,-1.0458,-1.0771,-1.1788,-1.4156,-1.4711,-1.4862,-1.4967,-1.4096,-1.3564,-1.3564,-1.2802,-1.2305,-1.2305,-1.2305,-1.2305,-1.2305,-1.4007,-1.5057,-1.5052,-1.7123,-1.7856,-1.6965,-1.7396,-1.7593,-1.7638,-1.775,-1.8202,-1.9054,-1.917,-1.8286,-1.6546,-1.6305,-1.5397,-1.3985,-1.3697,-1.3762,-1.4082,-1.4021,-1.3951,-1.3646,-1.1332,-1.0464,-1.0058,-0.7811,-0.7024,-0.6929,-0.7088,-0.7034,-0.6932,-0.7092,-0.7041,-0.7031,-0.7122,-0.6943,-0.6763,-0.7037,-0.7126,-0.7119,-0.7119,-0.7129,-0.7139,-0.7143,-0.7071,-0.7088,-0.7091,-0.5458,-0.4476,-0.6037,-0.2785,0.0,0.0,0.0,0.0,0.0,0.0,0.0,0.0,0.0,0.0,0.0,0.0,0.0,0.0,0.0,0.0252,0.0671,0.0724,0.2438,0.6264,0.6407,0.6542,0.6511,0.6386,0.6308,0.6278,0.6268,0.6795,-1.0714,-1.1637,-1.2578,-1.2402,-1.2807,0.0,-1.2159,-1.1679,-1.1259,-1.0458,-0.9785,-0.9398,-0.9652,-0.9714,-0.9783,-0.9843,-1.0338,-1.1265,-1.2976,-1.2858,-1.283,-1.3557,-1.3058,-1.2553,-1.2553,-1.2392,-1.2305,-1.2305,-1.2305,-1.2305,-1.2305,-1.3395,-1.3973,-1.3956,-1.5242,-1.5749,-1.5556,-1.5703,-1.588,-1.6241,-1.666,-1.7151,-1.7629,-1.8387,-1.77,-1.5799,-1.6094,-1.5127,-1.339,-1.3347,-1.3616,-1.4041,-1.3838,-1.3276,-1.2407,-1.0709,-0.9609,-0.8828,-0.7393,-0.6871,-0.679,-0.7054,-0.6959,-0.6793,-0.7058,-0.6981,-0.69,-0.7097,-0.5768,-0.469,-0.6603,-0.7086,-0.7073,-0.7073,-0.7068,-0.7058,-0.7074,-0.7081,-0.7094,-0.7121,-0.6761,-0.5307,-0.1976,-0.0629,0.0,0.0,0.0,0.0,0.0,0.0,0.0,0.0,0.0,0.0,0.0,0.0,0.0,0.0,0.0,0.1504,0.4948,0.505,0.5448,0.6254,0.739,0.791,0.7902,0.6824,0.6281,0.6264,0.6264,0.6412,-1.0813,-1.1599,-1.2442,-1.2771,-1.3034,0.0,0.0,-1.1616,-1.0987,-1.0413,-0.9595,-0.9109,-0.9408,-0.9468,-0.943,-0.9458,-0.9952,-1.0572,-1.1188,-1.1512,-1.181,-1.2311,-1.2218,-1.2131,-1.2131,-1.2218,-1.2305,-1.2305,-1.2305,-1.2305,-1.2305,-1.3226,-1.3696,-1.3739,-1.4657,-1.4936,-1.4458,-1.445,-1.4529,-1.4735,-1.5551,-1.6219,-1.6894,-1.7871,-1.7298,-1.5584,-1.5667,-1.4749,-1.3181,-1.3085,-1.3239,-1.3655,-1.3457,-1.2833,-1.1863,-1.0437,-0.936,-0.838,-0.7228,-0.6715,-0.6624,-0.6848,-0.677,-0.6644,-0.6863,-0.6159,-0.5449,-0.6737,-0.5394,-0.363,-0.3592,-0.4471,-0.5653,-0.6786,-0.7119,-0.7081,-0.7091,-0.7101,-0.7115,-0.7131,-0.7145,-0.5597,-0.0809,0.0,0.0,0.0,0.0,0.0,0.0,0.0,0.0,0.0,0.0,0.0,0.0,0.0,0.0,0.0,0.0,0.1919,0.6163,0.6334,0.6322,0.6305,0.7602,0.8205,0.8034,0.7872,0.7561,0.7022,0.6567,0.6567,-1.0734,-1.1421,-1.2122,-1.2803,-1.3066,-1.2949,0.0,0.0,0.0,-1.0345,-0.9545,-0.901,-0.909,-0.9228,-0.9288,-0.9169,-0.9715,-1.0017,-0.9672,-1.0431,-1.1092,-1.1262,-1.1566,-1.1807,-1.1807,-1.1964,-1.2136,-1.2285,-1.2218,-1.2211,-1.2298,-1.3058,-1.3411,-1.3404,-1.424,-1.4263,-1.3455,-1.3455,-1.3433,-1.3469,-1.4664,-1.5601,-1.6342,-1.7503,-1.7111,-1.5503,-1.527,-1.439,-1.2977,-1.2802,-1.2839,-1.3056,-1.307,-1.242,-1.1238,-1.0168,-0.9039,-0.7865,-0.6987,-0.6563,-0.6464,-0.6651,-0.6627,-0.6569,-0.6632,-0.5567,-0.4489,-0.5456,-0.4379,-0.2478,-0.0511,-0.1449,-0.3354,-0.5285,-0.6048,-0.6526,-0.7009,-0.7121,-0.7138,-0.7141,-0.6332,-0.4512,-0.0629,0.0,0.0,0.0,0.0,0.0,0.0,0.0,0.0,0.0,0.0,0.0,0.0,0.0,0.0,0.0,0.0753,0.2737,0.6121,0.6314,0.6305,0.6274,0.7739,0.834,0.8084,0.9069,0.9069,0.8084,0.7022,0.7022,-0.9944,-1.115,-1.219,-1.1345,-1.255,-1.3458,-1.1425,0.0,-1.1855,-1.0217,0.0,-0.95,-0.8944,0.0,0.0,-0.893,-0.9655,-1.0022,-0.9355,-0.9627,-1.0087,-1.0615,-1.1125,-1.1489,-1.1489,-1.1268,-1.1484,-1.2225,-1.1803,-1.1723,-1.2298,-1.2385,-1.2459,-1.2439,-1.2599,-1.2606,-1.2445,-1.2445,-1.2445,-1.2512,-1.4309,-1.5266,-1.5426,-1.717,-1.7023,-1.5242,-1.5182,-1.4133,-1.2385,-1.2385,-1.2338,-1.2452,-1.2709,-1.171,-1.0054,-0.9514,-0.8251,-0.6739,-0.6603,-0.651,-0.6349,-0.6647,-0.6652,-0.6622,-0.6456,-0.6533,-0.5843,-0.1898,-0.0574,-0.0326,-0.008,-0.0241,-0.0492,-0.0755,-0.2399,-0.4552,-0.6646,-0.7135,-0.7141,-0.7072,-0.3694,-0.0629,-0.009,0.0,0.0,0.0,0.0,0.0,0.0,0.0,0.0,0.0,0.0,0.0,0.0,0.0,0.0,0.0,0.3524,0.5782,0.6284,0.6312,0.6278,0.6264,0.8165,0.915,0.9145,1.0115,1.0115,0.9069,0.8084,0.7706,-0.968,-1.0522,-1.1311,-1.1675,-1.2414,-1.2928,-1.2461,-1.2231,-1.1813,-1.0847,0.0,0.0,0.0,0.0,0.0,0.0,-0.9655,-0.9963,-0.9109,-0.9408,-0.9802,-1.002,-1.0395,-1.0805,-1.1101,-1.1059,-1.1204,-1.1737,-1.1401,-1.1453,-1.2031,-1.2051,-1.2131,-1.2298,-1.2305,-1.2305,-1.2305,-1.2305,-1.2305,-1.2305,-1.429,-1.5176,-1.5295,-1.717,-1.7267,-1.6009,-1.5409,-1.4425,-1.3098,-1.2519,-1.2305,-1.2305,-1.2466,-1.132,-0.9544,-0.9367,-0.8056,-0.6352,-0.6448,-0.6332,-0.6139,-0.4973,-0.5473,-0.646,-0.6325,-0.4729,-0.2598,-0.0573,0.0,0.0,0.0,0.0,0.0,0.0,-0.0769,-0.1741,-0.2728,-0.2939,-0.2966,-0.297,-0.1349,0.0,0.0,0.0,0.0,0.0,0.0,0.0,0.0,0.0,0.0,0.0,0.0,0.0,0.0,0.2265,0.3683,0.3678,0.4181,0.5004,0.6224,0.6285,0.6274,0.6338,0.8313,0.9296,0.9296,1.087,1.1471,1.1025,0.8836,0.7783,-0.9415,-0.9963,-1.0643,-1.132,-1.1791,-1.2202,-1.2665,-1.2382,-1.1855,-1.1265,-1.0685,0.0,0.0,0.0,-0.9595,-0.8923,0.0,-1.0031,-0.8976,-0.947,-0.987,-0.9574,-0.9795,-1.0214,-1.0698,-1.0623,-1.0717,-1.1256,-1.0962,-1.1174,-1.206,-1.1965,-1.2107,-1.2535,-1.2405,-1.2305,-1.2305,-1.2305,-1.2445,-1.2739,-1.4359,-1.5317,-1.5617,-1.7257,-1.7501,-1.6567,-1.586,-1.4879,-1.3673,-1.2987,-1.2553,-1.2305,-1.2009,-1.0807,-0.9296,-0.9296,-0.8012,-0.6264,-0.6274,-0.5879,-0.5087,-0.2969,-0.3331,-0.4605,-0.4608,-0.2448,0.0,0.0,0.0,0.0,0.0,0.0,0.0,0.0,0.0,0.0,0.0,0.0,0.0,0.0,0.0,0.0,0.0,0.0,0.0,0.0,0.0,0.0,0.0,0.0,0.0,0.0,0.0,0.0443,0.163,0.4572,0.6307,0.6341,0.4831,0.4693,0.6197,0.6274,0.6271,0.6338,0.8313,0.9296,0.9296,1.1323,1.215,1.1848,0.9367,0.8237,-0.899,-0.9835,-1.0585,-0.9242,-1.0253,-1.1394,-1.0997,-1.1696,-1.2147,-1.1039,-1.1175,-1.0902,-0.9109,-0.9348,0.0,0.0,-0.9925,0.0,0.0,-0.9917,-1.0395,-0.9348,-0.9487,-0.9815,-1.0093,-0.963,-0.9766,-1.0922,-1.0468,-1.0899,-1.2609,-1.22,-1.2296,-1.3072,-1.2587,-1.2305,-1.2305,-1.2305,-1.2732,-1.3673,-1.472,-1.5706,-1.6558,-1.7579,-1.7501,-1.6636,-1.6567,-1.5438,-1.368,-1.3675,-1.3138,-1.2231,-1.1204,-1.0223,-0.9296,-0.9296,-0.8012,-0.6264,-0.6274,-0.4929,-0.289,-0.0782,-0.0157,-0.0235,-0.0236,-0.0079,0.0,0.0,0.0,0.0,0.0,0.0,0.0,0.0,0.0,0.0,0.0,0.0,0.0,0.0,0.0,0.0,0.0,0.0,0.0,0.0,0.0,0.0,0.0,0.0,0.0,0.0,0.0,0.1666,0.5788,0.6197,0.6305,0.6322,0.6207,0.6197,0.6278,0.6268,0.6338,0.6338,0.8313,0.9296,0.9296,1.1323,1.1768,1.0789,0.9744,0.9221,-0.9363,-0.9721,-1.0067,-0.9869,-1.0409,-1.0927,-1.0808,-1.1293,-1.1391,-1.034,-1.0449,-1.0332,-0.9049,-0.9348,0.0,0.0,0.0,-1.0648,0.0,-1.0517,-1.0669,-1.0285,-0.9735,-0.9408,-0.9479,-0.9778,-1.0066,-1.0354,-1.0453,-1.1037,-1.2312,-1.2211,-1.2398,-1.3112,-1.2948,-1.2683,-1.2298,-1.2952,-1.3382,-1.3745,-1.5338,-1.6254,-1.6636,-1.7569,-1.7862,-1.7501,-1.6853,-1.621,-1.5508,-1.4217,-1.3499,-1.3091,-1.1471,-1.0201,-0.9296,-0.9296,-0.8466,-0.7326,-0.7544,-0.6531,-0.5137,-0.4436,-0.2261,0.0,0.0,0.0,0.0,0.0,0.0,0.0,0.0,0.0,0.0,0.0,0.0,0.0,0.0,0.0,0.0,0.0,0.0,0.0,0.0,0.0,0.0,0.0,0.0,0.0,0.0,0.0,0.0,0.0,0.0,0.1735,0.5975,0.6315,0.6267,0.6298,0.6274,0.6268,0.6268,0.6264,0.6338,0.6338,0.7633,0.876,0.9591,1.0046,1.0581,1.1053,0.9133,0.8313,-0.9505,-0.9621,-0.9756,-1.001,-1.0208,-1.0409,-1.057,-1.0875,-1.0923,-1.0129,-1.0163,-1.0126,-0.9275,-0.9314,-0.958,0.0,0.0,0.0,0.0,-1.1124,-1.0864,-1.1116,-1.0353,-0.9653,-0.9451,-0.9821,-1.0038,-0.9825,-1.0401,-1.1122,-1.1862,-1.2059,-1.2387,-1.2757,-1.2615,-1.241,-1.2144,-1.279,-1.3482,-1.4243,-1.5508,-1.6428,-1.7139,-1.7716,-1.8008,-1.794,-1.7354,-1.6922,-1.6498,-1.4871,-1.3803,-1.299,-1.1001,-0.9669,-0.8841,-0.9578,-0.9632,-0.9386,-0.9595,-0.8849,-0.7728,-0.6641,-0.4491,-0.1948,-0.0469,0.0,0.0,0.0,0.0,0.0,0.0,0.0,0.0,0.0,0.0,0.0,0.0,0.0,0.0,0.0,0.0,0.0,0.0,0.0,0.0,0.0,0.0,0.0,0.0,0.0,0.0,0.0,0.1384,0.3074,0.5017,0.5875,0.6307,0.6278,0.6264,0.6338,0.6338,0.6338,0.6338,0.6338,0.7249,0.8223,0.9043,0.9214,0.9525,0.9972,0.8517,0.7687]}]]